<?xml version="1.0" encoding="UTF-8" standalone="no" ?>
<gpx xmlns="http://www.topografix.com/GPX/1/1" xmlns:xsi="http://www.w3.org/2001/XMLSchema-instance" xsi:schemaLocation="http://www.topografix.com/GPX/1/1 http://www.topografix.com/GPX/1/1/gpx.xsd" version="1.1" creator="VisuGPX - https://www.visugpx.com">
  <metadata>
    <name>83-cd-2012-09-09-LORGUES-Vidauban-Font Blanche-Chateau d-Astros </name>
    <desc><![CDATA[Vidauban-Font Blanche-Chateau d-Astros ]]></desc>
  </metadata>
  <trk>
    <name><![CDATA[2012-09-09-vidauban_modif]]></name>
    <trkseg>
      <trkpt lat="43.44519" lon="6.38244">
        <ele>167.964279</ele>
        <time>2012-09-09T07:21:06Z</time>
      </trkpt>
      <trkpt lat="43.44526" lon="6.38248">
        <ele>166.044983</ele>
        <time>2012-09-09T07:21:25Z</time>
      </trkpt>
      <trkpt lat="43.44534" lon="6.38246">
        <ele>166.701523</ele>
        <time>2012-09-09T07:21:38Z</time>
      </trkpt>
      <trkpt lat="43.44536" lon="6.38246">
        <ele>166.898209</ele>
        <time>2012-09-09T07:21:39Z</time>
      </trkpt>
      <trkpt lat="43.44522" lon="6.38243">
        <ele>165.699997</ele>
        <time>2012-09-09T07:24:36Z</time>
      </trkpt>
      <trkpt lat="43.44522" lon="6.38243">
        <ele>166</ele>
        <time>2012-09-09T07:24:37Z</time>
      </trkpt>
      <trkpt lat="43.44528" lon="6.38232">
        <ele>165.800003</ele>
        <time>2012-09-09T07:26:16Z</time>
      </trkpt>
      <trkpt lat="43.4452" lon="6.38253">
        <ele>165.300003</ele>
        <time>2012-09-09T07:27:21Z</time>
      </trkpt>
      <trkpt lat="43.44519" lon="6.38253">
        <ele>165.399994</ele>
        <time>2012-09-09T07:27:22Z</time>
      </trkpt>
      <trkpt lat="43.44505" lon="6.38265">
        <ele>165.300003</ele>
        <time>2012-09-09T07:27:39Z</time>
      </trkpt>
      <trkpt lat="43.44497" lon="6.38269">
        <ele>164.600006</ele>
        <time>2012-09-09T07:27:50Z</time>
      </trkpt>
      <trkpt lat="43.4449" lon="6.38274">
        <ele>164.800003</ele>
        <time>2012-09-09T07:27:58Z</time>
      </trkpt>
      <trkpt lat="43.44481" lon="6.38277">
        <ele>165.300003</ele>
        <time>2012-09-09T07:28:05Z</time>
      </trkpt>
      <trkpt lat="43.44474" lon="6.38283">
        <ele>165.5</ele>
        <time>2012-09-09T07:28:13Z</time>
      </trkpt>
      <trkpt lat="43.44465" lon="6.38285">
        <ele>165.5</ele>
        <time>2012-09-09T07:28:21Z</time>
      </trkpt>
      <trkpt lat="43.44457" lon="6.38289">
        <ele>166.199997</ele>
        <time>2012-09-09T07:28:30Z</time>
      </trkpt>
      <trkpt lat="43.44456" lon="6.38289">
        <ele>166.399994</ele>
        <time>2012-09-09T07:28:31Z</time>
      </trkpt>
      <trkpt lat="43.44443" lon="6.383">
        <ele>167.5</ele>
        <time>2012-09-09T07:28:51Z</time>
      </trkpt>
      <trkpt lat="43.44434" lon="6.38302">
        <ele>167.699997</ele>
        <time>2012-09-09T07:29:03Z</time>
      </trkpt>
      <trkpt lat="43.44426" lon="6.38304">
        <ele>168.699997</ele>
        <time>2012-09-09T07:29:10Z</time>
      </trkpt>
      <trkpt lat="43.44418" lon="6.38307">
        <ele>169</ele>
        <time>2012-09-09T07:29:16Z</time>
      </trkpt>
      <trkpt lat="43.4441" lon="6.38312">
        <ele>168.600006</ele>
        <time>2012-09-09T07:29:24Z</time>
      </trkpt>
      <trkpt lat="43.44402" lon="6.38316">
        <ele>169.600006</ele>
        <time>2012-09-09T07:29:32Z</time>
      </trkpt>
      <trkpt lat="43.44401" lon="6.38316">
        <ele>169.399994</ele>
        <time>2012-09-09T07:29:33Z</time>
      </trkpt>
      <trkpt lat="43.44386" lon="6.38322">
        <ele>170</ele>
        <time>2012-09-09T07:29:49Z</time>
      </trkpt>
      <trkpt lat="43.44378" lon="6.38325">
        <ele>170.399994</ele>
        <time>2012-09-09T07:29:56Z</time>
      </trkpt>
      <trkpt lat="43.44371" lon="6.3833">
        <ele>170.399994</ele>
        <time>2012-09-09T07:30:03Z</time>
      </trkpt>
      <trkpt lat="43.44364" lon="6.38335">
        <ele>170.300003</ele>
        <time>2012-09-09T07:30:10Z</time>
      </trkpt>
      <trkpt lat="43.44358" lon="6.38342">
        <ele>170.699997</ele>
        <time>2012-09-09T07:30:17Z</time>
      </trkpt>
      <trkpt lat="43.44352" lon="6.38349">
        <ele>170.399994</ele>
        <time>2012-09-09T07:30:24Z</time>
      </trkpt>
      <trkpt lat="43.44347" lon="6.38358">
        <ele>170</ele>
        <time>2012-09-09T07:30:31Z</time>
      </trkpt>
      <trkpt lat="43.44342" lon="6.38366">
        <ele>170.100006</ele>
        <time>2012-09-09T07:30:36Z</time>
      </trkpt>
      <trkpt lat="43.44341" lon="6.38367">
        <ele>169.800003</ele>
        <time>2012-09-09T07:30:37Z</time>
      </trkpt>
      <trkpt lat="43.44329" lon="6.38382">
        <ele>168.5</ele>
        <time>2012-09-09T07:30:52Z</time>
      </trkpt>
      <trkpt lat="43.44324" lon="6.3839">
        <ele>168.899994</ele>
        <time>2012-09-09T07:30:59Z</time>
      </trkpt>
      <trkpt lat="43.44317" lon="6.38398">
        <ele>168.199997</ele>
        <time>2012-09-09T07:31:06Z</time>
      </trkpt>
      <trkpt lat="43.44312" lon="6.38406">
        <ele>167.699997</ele>
        <time>2012-09-09T07:31:13Z</time>
      </trkpt>
      <trkpt lat="43.44306" lon="6.38414">
        <ele>167.199997</ele>
        <time>2012-09-09T07:31:19Z</time>
      </trkpt>
      <trkpt lat="43.443" lon="6.38423">
        <ele>166.699997</ele>
        <time>2012-09-09T07:31:27Z</time>
      </trkpt>
      <trkpt lat="43.44294" lon="6.3843">
        <ele>166.100006</ele>
        <time>2012-09-09T07:31:35Z</time>
      </trkpt>
      <trkpt lat="43.44287" lon="6.38437">
        <ele>164.899994</ele>
        <time>2012-09-09T07:31:42Z</time>
      </trkpt>
      <trkpt lat="43.44286" lon="6.38438">
        <ele>164.899994</ele>
        <time>2012-09-09T07:31:43Z</time>
      </trkpt>
      <trkpt lat="43.44272" lon="6.38448">
        <ele>163.699997</ele>
        <time>2012-09-09T07:31:58Z</time>
      </trkpt>
      <trkpt lat="43.44265" lon="6.38453">
        <ele>163.5</ele>
        <time>2012-09-09T07:32:06Z</time>
      </trkpt>
      <trkpt lat="43.44257" lon="6.38458">
        <ele>162.699997</ele>
        <time>2012-09-09T07:32:14Z</time>
      </trkpt>
      <trkpt lat="43.4425" lon="6.38462">
        <ele>162.600006</ele>
        <time>2012-09-09T07:32:21Z</time>
      </trkpt>
      <trkpt lat="43.44242" lon="6.38466">
        <ele>162.199997</ele>
        <time>2012-09-09T07:32:27Z</time>
      </trkpt>
      <trkpt lat="43.44234" lon="6.38467">
        <ele>161.899994</ele>
        <time>2012-09-09T07:32:36Z</time>
      </trkpt>
      <trkpt lat="43.44225" lon="6.38469">
        <ele>161.699997</ele>
        <time>2012-09-09T07:32:43Z</time>
      </trkpt>
      <trkpt lat="43.44224" lon="6.38469">
        <ele>161.800003</ele>
        <time>2012-09-09T07:32:44Z</time>
      </trkpt>
      <trkpt lat="43.44209" lon="6.38473">
        <ele>162.300003</ele>
        <time>2012-09-09T07:32:56Z</time>
      </trkpt>
      <trkpt lat="43.44201" lon="6.38474">
        <ele>162.5</ele>
        <time>2012-09-09T07:33:01Z</time>
      </trkpt>
      <trkpt lat="43.44193" lon="6.38477">
        <ele>162.800003</ele>
        <time>2012-09-09T07:33:08Z</time>
      </trkpt>
      <trkpt lat="43.44186" lon="6.38478">
        <ele>162.899994</ele>
        <time>2012-09-09T07:33:15Z</time>
      </trkpt>
      <trkpt lat="43.44177" lon="6.38477">
        <ele>163.399994</ele>
        <time>2012-09-09T07:33:23Z</time>
      </trkpt>
      <trkpt lat="43.44169" lon="6.38477">
        <ele>163.800003</ele>
        <time>2012-09-09T07:33:30Z</time>
      </trkpt>
      <trkpt lat="43.44161" lon="6.38476">
        <ele>164.300003</ele>
        <time>2012-09-09T07:33:38Z</time>
      </trkpt>
      <trkpt lat="43.44153" lon="6.38476">
        <ele>164.899994</ele>
        <time>2012-09-09T07:33:45Z</time>
      </trkpt>
      <trkpt lat="43.44152" lon="6.38476">
        <ele>164.899994</ele>
        <time>2012-09-09T07:33:46Z</time>
      </trkpt>
      <trkpt lat="43.44137" lon="6.38476">
        <ele>166.5</ele>
        <time>2012-09-09T07:34:01Z</time>
      </trkpt>
      <trkpt lat="43.44128" lon="6.38474">
        <ele>166.600006</ele>
        <time>2012-09-09T07:34:12Z</time>
      </trkpt>
      <trkpt lat="43.4412" lon="6.38473">
        <ele>167.5</ele>
        <time>2012-09-09T07:34:21Z</time>
      </trkpt>
      <trkpt lat="43.44111" lon="6.38473">
        <ele>168.199997</ele>
        <time>2012-09-09T07:34:29Z</time>
      </trkpt>
      <trkpt lat="43.44102" lon="6.38472">
        <ele>169.199997</ele>
        <time>2012-09-09T07:34:37Z</time>
      </trkpt>
      <trkpt lat="43.44094" lon="6.38472">
        <ele>169.699997</ele>
        <time>2012-09-09T07:34:45Z</time>
      </trkpt>
      <trkpt lat="43.44085" lon="6.38472">
        <ele>169.5</ele>
        <time>2012-09-09T07:34:52Z</time>
      </trkpt>
      <trkpt lat="43.44083" lon="6.38472">
        <ele>169.899994</ele>
        <time>2012-09-09T07:34:53Z</time>
      </trkpt>
      <trkpt lat="43.44068" lon="6.38472">
        <ele>170.199997</ele>
        <time>2012-09-09T07:35:05Z</time>
      </trkpt>
      <trkpt lat="43.4406" lon="6.38471">
        <ele>170.600006</ele>
        <time>2012-09-09T07:35:12Z</time>
      </trkpt>
      <trkpt lat="43.44051" lon="6.38473">
        <ele>170.600006</ele>
        <time>2012-09-09T07:35:22Z</time>
      </trkpt>
      <trkpt lat="43.44043" lon="6.38475">
        <ele>170.899994</ele>
        <time>2012-09-09T07:35:29Z</time>
      </trkpt>
      <trkpt lat="43.44036" lon="6.38476">
        <ele>170.300003</ele>
        <time>2012-09-09T07:35:35Z</time>
      </trkpt>
      <trkpt lat="43.44027" lon="6.38479">
        <ele>169.800003</ele>
        <time>2012-09-09T07:35:41Z</time>
      </trkpt>
      <trkpt lat="43.44019" lon="6.3848">
        <ele>169.5</ele>
        <time>2012-09-09T07:35:48Z</time>
      </trkpt>
      <trkpt lat="43.44012" lon="6.38483">
        <ele>169.699997</ele>
        <time>2012-09-09T07:35:56Z</time>
      </trkpt>
      <trkpt lat="43.44011" lon="6.38484">
        <ele>169.899994</ele>
        <time>2012-09-09T07:35:57Z</time>
      </trkpt>
      <trkpt lat="43.43996" lon="6.38485">
        <ele>167.300003</ele>
        <time>2012-09-09T07:36:14Z</time>
      </trkpt>
      <trkpt lat="43.43988" lon="6.38487">
        <ele>167.300003</ele>
        <time>2012-09-09T07:36:20Z</time>
      </trkpt>
      <trkpt lat="43.4398" lon="6.38489">
        <ele>165.699997</ele>
        <time>2012-09-09T07:36:27Z</time>
      </trkpt>
      <trkpt lat="43.43972" lon="6.38492">
        <ele>164.699997</ele>
        <time>2012-09-09T07:36:36Z</time>
      </trkpt>
      <trkpt lat="43.43963" lon="6.38496">
        <ele>163</ele>
        <time>2012-09-09T07:36:46Z</time>
      </trkpt>
      <trkpt lat="43.43956" lon="6.38499">
        <ele>161.600006</ele>
        <time>2012-09-09T07:36:53Z</time>
      </trkpt>
      <trkpt lat="43.43947" lon="6.38502">
        <ele>159.899994</ele>
        <time>2012-09-09T07:37:03Z</time>
      </trkpt>
      <trkpt lat="43.43946" lon="6.38502">
        <ele>160</ele>
        <time>2012-09-09T07:37:04Z</time>
      </trkpt>
      <trkpt lat="43.4393" lon="6.38502">
        <ele>156.899994</ele>
        <time>2012-09-09T07:37:20Z</time>
      </trkpt>
      <trkpt lat="43.43921" lon="6.38499">
        <ele>155.300003</ele>
        <time>2012-09-09T07:37:27Z</time>
      </trkpt>
      <trkpt lat="43.43912" lon="6.385">
        <ele>153.899994</ele>
        <time>2012-09-09T07:37:35Z</time>
      </trkpt>
      <trkpt lat="43.43904" lon="6.38502">
        <ele>152.899994</ele>
        <time>2012-09-09T07:37:41Z</time>
      </trkpt>
      <trkpt lat="43.43896" lon="6.38504">
        <ele>150.300003</ele>
        <time>2012-09-09T07:37:49Z</time>
      </trkpt>
      <trkpt lat="43.43887" lon="6.38506">
        <ele>150.199997</ele>
        <time>2012-09-09T07:37:58Z</time>
      </trkpt>
      <trkpt lat="43.43879" lon="6.38506">
        <ele>149.800003</ele>
        <time>2012-09-09T07:38:06Z</time>
      </trkpt>
      <trkpt lat="43.43877" lon="6.38506">
        <ele>149.5</ele>
        <time>2012-09-09T07:38:07Z</time>
      </trkpt>
      <trkpt lat="43.43862" lon="6.38507">
        <ele>149.699997</ele>
        <time>2012-09-09T07:38:24Z</time>
      </trkpt>
      <trkpt lat="43.43854" lon="6.38509">
        <ele>149.5</ele>
        <time>2012-09-09T07:38:32Z</time>
      </trkpt>
      <trkpt lat="43.43846" lon="6.38509">
        <ele>150.399994</ele>
        <time>2012-09-09T07:38:41Z</time>
      </trkpt>
      <trkpt lat="43.43838" lon="6.3851">
        <ele>151.199997</ele>
        <time>2012-09-09T07:38:47Z</time>
      </trkpt>
      <trkpt lat="43.4383" lon="6.3851">
        <ele>151.600006</ele>
        <time>2012-09-09T07:38:53Z</time>
      </trkpt>
      <trkpt lat="43.43821" lon="6.38512">
        <ele>152.899994</ele>
        <time>2012-09-09T07:39:02Z</time>
      </trkpt>
      <trkpt lat="43.43812" lon="6.38512">
        <ele>153.5</ele>
        <time>2012-09-09T07:39:10Z</time>
      </trkpt>
      <trkpt lat="43.43811" lon="6.38512">
        <ele>152.899994</ele>
        <time>2012-09-09T07:39:11Z</time>
      </trkpt>
      <trkpt lat="43.43796" lon="6.38511">
        <ele>156.199997</ele>
        <time>2012-09-09T07:39:30Z</time>
      </trkpt>
      <trkpt lat="43.43787" lon="6.38513">
        <ele>157.100006</ele>
        <time>2012-09-09T07:39:39Z</time>
      </trkpt>
      <trkpt lat="43.43779" lon="6.38514">
        <ele>158.199997</ele>
        <time>2012-09-09T07:39:48Z</time>
      </trkpt>
      <trkpt lat="43.43771" lon="6.38515">
        <ele>158.600006</ele>
        <time>2012-09-09T07:39:57Z</time>
      </trkpt>
      <trkpt lat="43.43764" lon="6.38522">
        <ele>160.600006</ele>
        <time>2012-09-09T07:40:31Z</time>
      </trkpt>
      <trkpt lat="43.43763" lon="6.38522">
        <ele>160.5</ele>
        <time>2012-09-09T07:40:32Z</time>
      </trkpt>
      <trkpt lat="43.43754" lon="6.3852">
        <ele>163.300003</ele>
        <time>2012-09-09T07:41:59Z</time>
      </trkpt>
      <trkpt lat="43.43738" lon="6.38516">
        <ele>166.100006</ele>
        <time>2012-09-09T07:42:22Z</time>
      </trkpt>
      <trkpt lat="43.4373" lon="6.38518">
        <ele>167.5</ele>
        <time>2012-09-09T07:42:31Z</time>
      </trkpt>
      <trkpt lat="43.43721" lon="6.38519">
        <ele>168.600006</ele>
        <time>2012-09-09T07:42:41Z</time>
      </trkpt>
      <trkpt lat="43.43713" lon="6.38519">
        <ele>168.699997</ele>
        <time>2012-09-09T07:42:49Z</time>
      </trkpt>
      <trkpt lat="43.43704" lon="6.3852">
        <ele>169.600006</ele>
        <time>2012-09-09T07:42:58Z</time>
      </trkpt>
      <trkpt lat="43.43696" lon="6.38519">
        <ele>170.100006</ele>
        <time>2012-09-09T07:43:07Z</time>
      </trkpt>
      <trkpt lat="43.43695" lon="6.38519">
        <ele>170.300003</ele>
        <time>2012-09-09T07:43:08Z</time>
      </trkpt>
      <trkpt lat="43.43679" lon="6.3852">
        <ele>170.899994</ele>
        <time>2012-09-09T07:43:24Z</time>
      </trkpt>
      <trkpt lat="43.43671" lon="6.3852">
        <ele>172</ele>
        <time>2012-09-09T07:43:36Z</time>
      </trkpt>
      <trkpt lat="43.43662" lon="6.38519">
        <ele>173.5</ele>
        <time>2012-09-09T07:43:45Z</time>
      </trkpt>
      <trkpt lat="43.43654" lon="6.38518">
        <ele>174.100006</ele>
        <time>2012-09-09T07:43:54Z</time>
      </trkpt>
      <trkpt lat="43.43645" lon="6.38515">
        <ele>175.300003</ele>
        <time>2012-09-09T07:44:02Z</time>
      </trkpt>
      <trkpt lat="43.43637" lon="6.38514">
        <ele>176.100006</ele>
        <time>2012-09-09T07:44:10Z</time>
      </trkpt>
      <trkpt lat="43.43636" lon="6.38514">
        <ele>176.699997</ele>
        <time>2012-09-09T07:44:11Z</time>
      </trkpt>
      <trkpt lat="43.43621" lon="6.38513">
        <ele>180.300003</ele>
        <time>2012-09-09T07:44:29Z</time>
      </trkpt>
      <trkpt lat="43.43612" lon="6.38513">
        <ele>179.800003</ele>
        <time>2012-09-09T07:44:37Z</time>
      </trkpt>
      <trkpt lat="43.43604" lon="6.38511">
        <ele>181.600006</ele>
        <time>2012-09-09T07:44:45Z</time>
      </trkpt>
      <trkpt lat="43.43595" lon="6.38512">
        <ele>181.899994</ele>
        <time>2012-09-09T07:44:54Z</time>
      </trkpt>
      <trkpt lat="43.43587" lon="6.38512">
        <ele>181.399994</ele>
        <time>2012-09-09T07:45:02Z</time>
      </trkpt>
      <trkpt lat="43.43579" lon="6.38512">
        <ele>183</ele>
        <time>2012-09-09T07:45:10Z</time>
      </trkpt>
      <trkpt lat="43.43571" lon="6.38511">
        <ele>182.800003</ele>
        <time>2012-09-09T07:45:18Z</time>
      </trkpt>
      <trkpt lat="43.4357" lon="6.38511">
        <ele>183.399994</ele>
        <time>2012-09-09T07:45:19Z</time>
      </trkpt>
      <trkpt lat="43.43553" lon="6.38512">
        <ele>184.5</ele>
        <time>2012-09-09T07:45:34Z</time>
      </trkpt>
      <trkpt lat="43.43545" lon="6.38511">
        <ele>184.5</ele>
        <time>2012-09-09T07:45:42Z</time>
      </trkpt>
      <trkpt lat="43.43536" lon="6.38509">
        <ele>184.5</ele>
        <time>2012-09-09T07:45:50Z</time>
      </trkpt>
      <trkpt lat="43.43528" lon="6.38511">
        <ele>186.100006</ele>
        <time>2012-09-09T07:45:58Z</time>
      </trkpt>
      <trkpt lat="43.43519" lon="6.38508">
        <ele>187</ele>
        <time>2012-09-09T07:46:06Z</time>
      </trkpt>
      <trkpt lat="43.43511" lon="6.38509">
        <ele>187.100006</ele>
        <time>2012-09-09T07:46:14Z</time>
      </trkpt>
      <trkpt lat="43.43502" lon="6.38508">
        <ele>187.300003</ele>
        <time>2012-09-09T07:46:22Z</time>
      </trkpt>
      <trkpt lat="43.43501" lon="6.38508">
        <ele>187.399994</ele>
        <time>2012-09-09T07:46:23Z</time>
      </trkpt>
      <trkpt lat="43.43485" lon="6.38507">
        <ele>186.800003</ele>
        <time>2012-09-09T07:46:35Z</time>
      </trkpt>
      <trkpt lat="43.43477" lon="6.38507">
        <ele>188.100006</ele>
        <time>2012-09-09T07:46:45Z</time>
      </trkpt>
      <trkpt lat="43.43468" lon="6.38507">
        <ele>187.5</ele>
        <time>2012-09-09T07:46:55Z</time>
      </trkpt>
      <trkpt lat="43.4346" lon="6.38505">
        <ele>187.699997</ele>
        <time>2012-09-09T07:47:05Z</time>
      </trkpt>
      <trkpt lat="43.43451" lon="6.38504">
        <ele>186.5</ele>
        <time>2012-09-09T07:47:12Z</time>
      </trkpt>
      <trkpt lat="43.43443" lon="6.38502">
        <ele>185.600006</ele>
        <time>2012-09-09T07:47:19Z</time>
      </trkpt>
      <trkpt lat="43.43435" lon="6.38503">
        <ele>184.699997</ele>
        <time>2012-09-09T07:47:29Z</time>
      </trkpt>
      <trkpt lat="43.43434" lon="6.38503">
        <ele>184.5</ele>
        <time>2012-09-09T07:47:30Z</time>
      </trkpt>
      <trkpt lat="43.43421" lon="6.38514">
        <ele>182.699997</ele>
        <time>2012-09-09T07:47:43Z</time>
      </trkpt>
      <trkpt lat="43.43413" lon="6.3852">
        <ele>183</ele>
        <time>2012-09-09T07:47:49Z</time>
      </trkpt>
      <trkpt lat="43.43407" lon="6.38527">
        <ele>182.800003</ele>
        <time>2012-09-09T07:47:55Z</time>
      </trkpt>
      <trkpt lat="43.43401" lon="6.38534">
        <ele>182.300003</ele>
        <time>2012-09-09T07:48:03Z</time>
      </trkpt>
      <trkpt lat="43.43395" lon="6.38541">
        <ele>181.699997</ele>
        <time>2012-09-09T07:48:08Z</time>
      </trkpt>
      <trkpt lat="43.43389" lon="6.3855">
        <ele>181.5</ele>
        <time>2012-09-09T07:48:15Z</time>
      </trkpt>
      <trkpt lat="43.43384" lon="6.38557">
        <ele>180.5</ele>
        <time>2012-09-09T07:48:21Z</time>
      </trkpt>
      <trkpt lat="43.43378" lon="6.38564">
        <ele>180.899994</ele>
        <time>2012-09-09T07:48:27Z</time>
      </trkpt>
      <trkpt lat="43.43372" lon="6.38573">
        <ele>179.699997</ele>
        <time>2012-09-09T07:48:35Z</time>
      </trkpt>
      <trkpt lat="43.43371" lon="6.38574">
        <ele>179.5</ele>
        <time>2012-09-09T07:48:36Z</time>
      </trkpt>
      <trkpt lat="43.43358" lon="6.38588">
        <ele>178.199997</ele>
        <time>2012-09-09T07:48:53Z</time>
      </trkpt>
      <trkpt lat="43.43352" lon="6.38595">
        <ele>177.800003</ele>
        <time>2012-09-09T07:49:00Z</time>
      </trkpt>
      <trkpt lat="43.43346" lon="6.38604">
        <ele>176.5</ele>
        <time>2012-09-09T07:49:07Z</time>
      </trkpt>
      <trkpt lat="43.43341" lon="6.38612">
        <ele>175.100006</ele>
        <time>2012-09-09T07:49:13Z</time>
      </trkpt>
      <trkpt lat="43.43334" lon="6.38618">
        <ele>175.800003</ele>
        <time>2012-09-09T07:49:20Z</time>
      </trkpt>
      <trkpt lat="43.43326" lon="6.3862">
        <ele>176.199997</ele>
        <time>2012-09-09T07:49:27Z</time>
      </trkpt>
      <trkpt lat="43.43318" lon="6.38617">
        <ele>175.899994</ele>
        <time>2012-09-09T07:49:34Z</time>
      </trkpt>
      <trkpt lat="43.43312" lon="6.38609">
        <ele>176.199997</ele>
        <time>2012-09-09T07:49:41Z</time>
      </trkpt>
      <trkpt lat="43.43311" lon="6.38607">
        <ele>176</ele>
        <time>2012-09-09T07:49:42Z</time>
      </trkpt>
      <trkpt lat="43.433" lon="6.38593">
        <ele>175.899994</ele>
        <time>2012-09-09T07:49:56Z</time>
      </trkpt>
      <trkpt lat="43.43295" lon="6.38585">
        <ele>176.199997</ele>
        <time>2012-09-09T07:50:03Z</time>
      </trkpt>
      <trkpt lat="43.43288" lon="6.38577">
        <ele>175.300003</ele>
        <time>2012-09-09T07:50:12Z</time>
      </trkpt>
      <trkpt lat="43.43283" lon="6.38569">
        <ele>175.699997</ele>
        <time>2012-09-09T07:50:20Z</time>
      </trkpt>
      <trkpt lat="43.43277" lon="6.38561">
        <ele>172.800003</ele>
        <time>2012-09-09T07:50:28Z</time>
      </trkpt>
      <trkpt lat="43.43271" lon="6.38551">
        <ele>172.5</ele>
        <time>2012-09-09T07:50:40Z</time>
      </trkpt>
      <trkpt lat="43.43271" lon="6.38539">
        <ele>171.199997</ele>
        <time>2012-09-09T07:50:50Z</time>
      </trkpt>
      <trkpt lat="43.4327" lon="6.38537">
        <ele>170.800003</ele>
        <time>2012-09-09T07:50:51Z</time>
      </trkpt>
      <trkpt lat="43.43267" lon="6.38516">
        <ele>169.699997</ele>
        <time>2012-09-09T07:51:09Z</time>
      </trkpt>
      <trkpt lat="43.43268" lon="6.38504">
        <ele>167.800003</ele>
        <time>2012-09-09T07:51:19Z</time>
      </trkpt>
      <trkpt lat="43.43266" lon="6.38492">
        <ele>168</ele>
        <time>2012-09-09T07:51:30Z</time>
      </trkpt>
      <trkpt lat="43.43269" lon="6.38481">
        <ele>166</ele>
        <time>2012-09-09T07:51:41Z</time>
      </trkpt>
      <trkpt lat="43.43268" lon="6.3847">
        <ele>165.399994</ele>
        <time>2012-09-09T07:51:49Z</time>
      </trkpt>
      <trkpt lat="43.43268" lon="6.38458">
        <ele>163.399994</ele>
        <time>2012-09-09T07:51:58Z</time>
      </trkpt>
      <trkpt lat="43.43268" lon="6.38456">
        <ele>163</ele>
        <time>2012-09-09T07:51:59Z</time>
      </trkpt>
      <trkpt lat="43.43273" lon="6.38436">
        <ele>162.300003</ele>
        <time>2012-09-09T07:52:18Z</time>
      </trkpt>
      <trkpt lat="43.43278" lon="6.38425">
        <ele>159.899994</ele>
        <time>2012-09-09T07:52:28Z</time>
      </trkpt>
      <trkpt lat="43.4328" lon="6.38414">
        <ele>159.100006</ele>
        <time>2012-09-09T07:52:39Z</time>
      </trkpt>
      <trkpt lat="43.43278" lon="6.38403">
        <ele>157.199997</ele>
        <time>2012-09-09T07:52:53Z</time>
      </trkpt>
      <trkpt lat="43.4327" lon="6.38398">
        <ele>155.800003</ele>
        <time>2012-09-09T07:53:03Z</time>
      </trkpt>
      <trkpt lat="43.43269" lon="6.38397">
        <ele>156.199997</ele>
        <time>2012-09-09T07:53:04Z</time>
      </trkpt>
      <trkpt lat="43.43254" lon="6.38396">
        <ele>153</ele>
        <time>2012-09-09T07:53:20Z</time>
      </trkpt>
      <trkpt lat="43.43245" lon="6.38395">
        <ele>151.899994</ele>
        <time>2012-09-09T07:53:28Z</time>
      </trkpt>
      <trkpt lat="43.43237" lon="6.38398">
        <ele>149.899994</ele>
        <time>2012-09-09T07:53:38Z</time>
      </trkpt>
      <trkpt lat="43.43229" lon="6.384">
        <ele>149.5</ele>
        <time>2012-09-09T07:53:46Z</time>
      </trkpt>
      <trkpt lat="43.4322" lon="6.38403">
        <ele>148.100006</ele>
        <time>2012-09-09T07:53:54Z</time>
      </trkpt>
      <trkpt lat="43.43214" lon="6.38408">
        <ele>147.100006</ele>
        <time>2012-09-09T07:54:03Z</time>
      </trkpt>
      <trkpt lat="43.43206" lon="6.38414">
        <ele>145.600006</ele>
        <time>2012-09-09T07:54:13Z</time>
      </trkpt>
      <trkpt lat="43.43205" lon="6.38415">
        <ele>145.300003</ele>
        <time>2012-09-09T07:54:14Z</time>
      </trkpt>
      <trkpt lat="43.43192" lon="6.38428">
        <ele>142.699997</ele>
        <time>2012-09-09T07:54:33Z</time>
      </trkpt>
      <trkpt lat="43.43185" lon="6.38435">
        <ele>141</ele>
        <time>2012-09-09T07:54:40Z</time>
      </trkpt>
      <trkpt lat="43.43176" lon="6.38433">
        <ele>140.600006</ele>
        <time>2012-09-09T07:55:04Z</time>
      </trkpt>
      <trkpt lat="43.43168" lon="6.38428">
        <ele>139.800003</ele>
        <time>2012-09-09T07:56:37Z</time>
      </trkpt>
      <trkpt lat="43.43168" lon="6.38427">
        <ele>139.5</ele>
        <time>2012-09-09T07:56:38Z</time>
      </trkpt>
      <trkpt lat="43.43156" lon="6.38411">
        <ele>137.399994</ele>
        <time>2012-09-09T07:56:55Z</time>
      </trkpt>
      <trkpt lat="43.43151" lon="6.38403">
        <ele>137</ele>
        <time>2012-09-09T07:57:02Z</time>
      </trkpt>
      <trkpt lat="43.43144" lon="6.38395">
        <ele>134.300003</ele>
        <time>2012-09-09T07:57:10Z</time>
      </trkpt>
      <trkpt lat="43.43138" lon="6.38388">
        <ele>134.199997</ele>
        <time>2012-09-09T07:57:17Z</time>
      </trkpt>
      <trkpt lat="43.43132" lon="6.38379">
        <ele>133.399994</ele>
        <time>2012-09-09T07:57:26Z</time>
      </trkpt>
      <trkpt lat="43.43126" lon="6.38372">
        <ele>131.399994</ele>
        <time>2012-09-09T07:57:34Z</time>
      </trkpt>
      <trkpt lat="43.43119" lon="6.38364">
        <ele>130.800003</ele>
        <time>2012-09-09T07:57:41Z</time>
      </trkpt>
      <trkpt lat="43.43118" lon="6.38363">
        <ele>130.899994</ele>
        <time>2012-09-09T07:57:42Z</time>
      </trkpt>
      <trkpt lat="43.43105" lon="6.38349">
        <ele>129.199997</ele>
        <time>2012-09-09T07:58:01Z</time>
      </trkpt>
      <trkpt lat="43.43098" lon="6.38341">
        <ele>128.699997</ele>
        <time>2012-09-09T07:58:08Z</time>
      </trkpt>
      <trkpt lat="43.43093" lon="6.38335">
        <ele>128.699997</ele>
        <time>2012-09-09T07:58:15Z</time>
      </trkpt>
      <trkpt lat="43.43087" lon="6.38327">
        <ele>129.300003</ele>
        <time>2012-09-09T07:58:21Z</time>
      </trkpt>
      <trkpt lat="43.43081" lon="6.38319">
        <ele>129.699997</ele>
        <time>2012-09-09T07:58:28Z</time>
      </trkpt>
      <trkpt lat="43.43075" lon="6.38313">
        <ele>130.800003</ele>
        <time>2012-09-09T07:58:34Z</time>
      </trkpt>
      <trkpt lat="43.43069" lon="6.38305">
        <ele>131.399994</ele>
        <time>2012-09-09T07:58:41Z</time>
      </trkpt>
      <trkpt lat="43.43063" lon="6.38297">
        <ele>131.699997</ele>
        <time>2012-09-09T07:58:49Z</time>
      </trkpt>
      <trkpt lat="43.43062" lon="6.38295">
        <ele>131.600006</ele>
        <time>2012-09-09T07:58:50Z</time>
      </trkpt>
      <trkpt lat="43.43051" lon="6.38281">
        <ele>131.5</ele>
        <time>2012-09-09T07:59:02Z</time>
      </trkpt>
      <trkpt lat="43.43044" lon="6.38275">
        <ele>131.199997</ele>
        <time>2012-09-09T07:59:09Z</time>
      </trkpt>
      <trkpt lat="43.43037" lon="6.38268">
        <ele>131.699997</ele>
        <time>2012-09-09T07:59:16Z</time>
      </trkpt>
      <trkpt lat="43.43031" lon="6.38262">
        <ele>130.399994</ele>
        <time>2012-09-09T07:59:22Z</time>
      </trkpt>
      <trkpt lat="43.43022" lon="6.38259">
        <ele>129.100006</ele>
        <time>2012-09-09T07:59:30Z</time>
      </trkpt>
      <trkpt lat="43.43014" lon="6.38257">
        <ele>127.900002</ele>
        <time>2012-09-09T07:59:39Z</time>
      </trkpt>
      <trkpt lat="43.43006" lon="6.38253">
        <ele>126.599998</ele>
        <time>2012-09-09T07:59:48Z</time>
      </trkpt>
      <trkpt lat="43.42998" lon="6.38248">
        <ele>126.900002</ele>
        <time>2012-09-09T07:59:58Z</time>
      </trkpt>
      <trkpt lat="43.42998" lon="6.38247">
        <ele>126.800003</ele>
        <time>2012-09-09T07:59:59Z</time>
      </trkpt>
      <trkpt lat="43.42982" lon="6.3824">
        <ele>124.800003</ele>
        <time>2012-09-09T08:00:14Z</time>
      </trkpt>
      <trkpt lat="43.42974" lon="6.38237">
        <ele>122.300003</ele>
        <time>2012-09-09T08:00:23Z</time>
      </trkpt>
      <trkpt lat="43.42966" lon="6.38234">
        <ele>122.900002</ele>
        <time>2012-09-09T08:00:32Z</time>
      </trkpt>
      <trkpt lat="43.42957" lon="6.38231">
        <ele>121.800003</ele>
        <time>2012-09-09T08:00:40Z</time>
      </trkpt>
      <trkpt lat="43.42949" lon="6.38226">
        <ele>120.400002</ele>
        <time>2012-09-09T08:00:47Z</time>
      </trkpt>
      <trkpt lat="43.42941" lon="6.38222">
        <ele>118.900002</ele>
        <time>2012-09-09T08:00:55Z</time>
      </trkpt>
      <trkpt lat="43.42934" lon="6.38217">
        <ele>117.900002</ele>
        <time>2012-09-09T08:01:02Z</time>
      </trkpt>
      <trkpt lat="43.42933" lon="6.38216">
        <ele>117.5</ele>
        <time>2012-09-09T08:01:03Z</time>
      </trkpt>
      <trkpt lat="43.42918" lon="6.38208">
        <ele>117</ele>
        <time>2012-09-09T08:01:15Z</time>
      </trkpt>
      <trkpt lat="43.4291" lon="6.38205">
        <ele>116.400002</ele>
        <time>2012-09-09T08:01:22Z</time>
      </trkpt>
      <trkpt lat="43.42902" lon="6.38204">
        <ele>117.400002</ele>
        <time>2012-09-09T08:01:28Z</time>
      </trkpt>
      <trkpt lat="43.42893" lon="6.38204">
        <ele>116.400002</ele>
        <time>2012-09-09T08:01:36Z</time>
      </trkpt>
      <trkpt lat="43.42885" lon="6.38207">
        <ele>117.699997</ele>
        <time>2012-09-09T08:01:43Z</time>
      </trkpt>
      <trkpt lat="43.42877" lon="6.38211">
        <ele>117.699997</ele>
        <time>2012-09-09T08:01:50Z</time>
      </trkpt>
      <trkpt lat="43.42869" lon="6.38214">
        <ele>118.800003</ele>
        <time>2012-09-09T08:01:58Z</time>
      </trkpt>
      <trkpt lat="43.4286" lon="6.38217">
        <ele>118.900002</ele>
        <time>2012-09-09T08:02:05Z</time>
      </trkpt>
      <trkpt lat="43.42859" lon="6.38218">
        <ele>118.699997</ele>
        <time>2012-09-09T08:02:06Z</time>
      </trkpt>
      <trkpt lat="43.42845" lon="6.38223">
        <ele>119.300003</ele>
        <time>2012-09-09T08:02:18Z</time>
      </trkpt>
      <trkpt lat="43.42836" lon="6.38226">
        <ele>120.400002</ele>
        <time>2012-09-09T08:02:24Z</time>
      </trkpt>
      <trkpt lat="43.42828" lon="6.3823">
        <ele>119.900002</ele>
        <time>2012-09-09T08:02:31Z</time>
      </trkpt>
      <trkpt lat="43.4282" lon="6.38233">
        <ele>119.5</ele>
        <time>2012-09-09T08:02:42Z</time>
      </trkpt>
      <trkpt lat="43.42812" lon="6.38233">
        <ele>120</ele>
        <time>2012-09-09T08:02:48Z</time>
      </trkpt>
      <trkpt lat="43.42805" lon="6.38238">
        <ele>118.699997</ele>
        <time>2012-09-09T08:02:55Z</time>
      </trkpt>
      <trkpt lat="43.42797" lon="6.38242">
        <ele>119.900002</ele>
        <time>2012-09-09T08:03:03Z</time>
      </trkpt>
      <trkpt lat="43.42789" lon="6.38246">
        <ele>119.699997</ele>
        <time>2012-09-09T08:03:10Z</time>
      </trkpt>
      <trkpt lat="43.42788" lon="6.38246">
        <ele>119.599998</ele>
        <time>2012-09-09T08:03:11Z</time>
      </trkpt>
      <trkpt lat="43.42777" lon="6.38262">
        <ele>118.800003</ele>
        <time>2012-09-09T08:03:26Z</time>
      </trkpt>
      <trkpt lat="43.42772" lon="6.38271">
        <ele>119</ele>
        <time>2012-09-09T08:03:31Z</time>
      </trkpt>
      <trkpt lat="43.42766" lon="6.3828">
        <ele>119.5</ele>
        <time>2012-09-09T08:03:39Z</time>
      </trkpt>
      <trkpt lat="43.42761" lon="6.38288">
        <ele>119.5</ele>
        <time>2012-09-09T08:03:47Z</time>
      </trkpt>
      <trkpt lat="43.42755" lon="6.38297">
        <ele>119.199997</ele>
        <time>2012-09-09T08:03:55Z</time>
      </trkpt>
      <trkpt lat="43.4275" lon="6.38307">
        <ele>120.199997</ele>
        <time>2012-09-09T08:04:02Z</time>
      </trkpt>
      <trkpt lat="43.42744" lon="6.38315">
        <ele>120.199997</ele>
        <time>2012-09-09T08:04:11Z</time>
      </trkpt>
      <trkpt lat="43.42743" lon="6.38317">
        <ele>120.199997</ele>
        <time>2012-09-09T08:04:12Z</time>
      </trkpt>
      <trkpt lat="43.42732" lon="6.38332">
        <ele>120.800003</ele>
        <time>2012-09-09T08:04:24Z</time>
      </trkpt>
      <trkpt lat="43.42726" lon="6.38341">
        <ele>120.199997</ele>
        <time>2012-09-09T08:04:32Z</time>
      </trkpt>
      <trkpt lat="43.42724" lon="6.38351">
        <ele>120.099998</ele>
        <time>2012-09-09T08:04:39Z</time>
      </trkpt>
      <trkpt lat="43.4272" lon="6.38361">
        <ele>119</ele>
        <time>2012-09-09T08:04:45Z</time>
      </trkpt>
      <trkpt lat="43.42714" lon="6.3837">
        <ele>119.300003</ele>
        <time>2012-09-09T08:04:54Z</time>
      </trkpt>
      <trkpt lat="43.42707" lon="6.38375">
        <ele>118.900002</ele>
        <time>2012-09-09T08:05:01Z</time>
      </trkpt>
      <trkpt lat="43.42699" lon="6.38379">
        <ele>118.199997</ele>
        <time>2012-09-09T08:05:09Z</time>
      </trkpt>
      <trkpt lat="43.4269" lon="6.38381">
        <ele>117.599998</ele>
        <time>2012-09-09T08:05:31Z</time>
      </trkpt>
      <trkpt lat="43.42689" lon="6.38381">
        <ele>117.900002</ele>
        <time>2012-09-09T08:05:32Z</time>
      </trkpt>
      <trkpt lat="43.42674" lon="6.38381">
        <ele>116.900002</ele>
        <time>2012-09-09T08:05:44Z</time>
      </trkpt>
      <trkpt lat="43.42667" lon="6.38383">
        <ele>117.699997</ele>
        <time>2012-09-09T08:05:52Z</time>
      </trkpt>
      <trkpt lat="43.42658" lon="6.38382">
        <ele>116.099998</ele>
        <time>2012-09-09T08:05:59Z</time>
      </trkpt>
      <trkpt lat="43.4265" lon="6.38379">
        <ele>116.400002</ele>
        <time>2012-09-09T08:06:07Z</time>
      </trkpt>
      <trkpt lat="43.42642" lon="6.38379">
        <ele>116</ele>
        <time>2012-09-09T08:06:15Z</time>
      </trkpt>
      <trkpt lat="43.42634" lon="6.38378">
        <ele>114.300003</ele>
        <time>2012-09-09T08:06:23Z</time>
      </trkpt>
      <trkpt lat="43.42625" lon="6.38381">
        <ele>113.699997</ele>
        <time>2012-09-09T08:06:32Z</time>
      </trkpt>
      <trkpt lat="43.42625" lon="6.38382">
        <ele>113.5</ele>
        <time>2012-09-09T08:06:33Z</time>
      </trkpt>
      <trkpt lat="43.4261" lon="6.38387">
        <ele>112.800003</ele>
        <time>2012-09-09T08:06:46Z</time>
      </trkpt>
      <trkpt lat="43.42603" lon="6.38395">
        <ele>112.5</ele>
        <time>2012-09-09T08:06:53Z</time>
      </trkpt>
      <trkpt lat="43.42594" lon="6.38397">
        <ele>112.400002</ele>
        <time>2012-09-09T08:07:01Z</time>
      </trkpt>
      <trkpt lat="43.42585" lon="6.38399">
        <ele>111.199997</ele>
        <time>2012-09-09T08:07:09Z</time>
      </trkpt>
      <trkpt lat="43.42577" lon="6.384">
        <ele>110.300003</ele>
        <time>2012-09-09T08:07:17Z</time>
      </trkpt>
      <trkpt lat="43.42568" lon="6.38398">
        <ele>109.099998</ele>
        <time>2012-09-09T08:07:27Z</time>
      </trkpt>
      <trkpt lat="43.42561" lon="6.38401">
        <ele>107.199997</ele>
        <time>2012-09-09T08:07:55Z</time>
      </trkpt>
      <trkpt lat="43.42559" lon="6.38401">
        <ele>107.199997</ele>
        <time>2012-09-09T08:07:56Z</time>
      </trkpt>
      <trkpt lat="43.42543" lon="6.38404">
        <ele>106.5</ele>
        <time>2012-09-09T08:08:09Z</time>
      </trkpt>
      <trkpt lat="43.42536" lon="6.38409">
        <ele>106.400002</ele>
        <time>2012-09-09T08:08:15Z</time>
      </trkpt>
      <trkpt lat="43.42527" lon="6.38411">
        <ele>106.400002</ele>
        <time>2012-09-09T08:08:21Z</time>
      </trkpt>
      <trkpt lat="43.42526" lon="6.384">
        <ele>104.800003</ele>
        <time>2012-09-09T08:08:27Z</time>
      </trkpt>
      <trkpt lat="43.42532" lon="6.38392">
        <ele>102.699997</ele>
        <time>2012-09-09T08:08:37Z</time>
      </trkpt>
      <trkpt lat="43.42539" lon="6.38385">
        <ele>101.099998</ele>
        <time>2012-09-09T08:08:46Z</time>
      </trkpt>
      <trkpt lat="43.42543" lon="6.38375">
        <ele>102.699997</ele>
        <time>2012-09-09T08:08:57Z</time>
      </trkpt>
      <trkpt lat="43.42544" lon="6.38374">
        <ele>102.599998</ele>
        <time>2012-09-09T08:08:58Z</time>
      </trkpt>
      <trkpt lat="43.42555" lon="6.3836">
        <ele>101</ele>
        <time>2012-09-09T08:09:12Z</time>
      </trkpt>
      <trkpt lat="43.42559" lon="6.38349">
        <ele>98.300003</ele>
        <time>2012-09-09T08:09:22Z</time>
      </trkpt>
      <trkpt lat="43.42563" lon="6.3834">
        <ele>97.5</ele>
        <time>2012-09-09T08:09:30Z</time>
      </trkpt>
      <trkpt lat="43.42567" lon="6.38329">
        <ele>95.800003</ele>
        <time>2012-09-09T08:09:38Z</time>
      </trkpt>
      <trkpt lat="43.42567" lon="6.38317">
        <ele>95</ele>
        <time>2012-09-09T08:09:45Z</time>
      </trkpt>
      <trkpt lat="43.42572" lon="6.38307">
        <ele>95.900002</ele>
        <time>2012-09-09T08:09:55Z</time>
      </trkpt>
      <trkpt lat="43.42576" lon="6.38298">
        <ele>94.400002</ele>
        <time>2012-09-09T08:10:02Z</time>
      </trkpt>
      <trkpt lat="43.42577" lon="6.38296">
        <ele>94.400002</ele>
        <time>2012-09-09T08:10:03Z</time>
      </trkpt>
      <trkpt lat="43.42585" lon="6.38278">
        <ele>92.800003</ele>
        <time>2012-09-09T08:10:17Z</time>
      </trkpt>
      <trkpt lat="43.42589" lon="6.38266">
        <ele>91.5</ele>
        <time>2012-09-09T08:10:26Z</time>
      </trkpt>
      <trkpt lat="43.42592" lon="6.38256">
        <ele>89.5</ele>
        <time>2012-09-09T08:10:34Z</time>
      </trkpt>
      <trkpt lat="43.42595" lon="6.38246">
        <ele>88.199997</ele>
        <time>2012-09-09T08:10:43Z</time>
      </trkpt>
      <trkpt lat="43.42596" lon="6.38235">
        <ele>87.300003</ele>
        <time>2012-09-09T08:10:50Z</time>
      </trkpt>
      <trkpt lat="43.42598" lon="6.38224">
        <ele>87.199997</ele>
        <time>2012-09-09T08:10:58Z</time>
      </trkpt>
      <trkpt lat="43.42601" lon="6.38212">
        <ele>85.900002</ele>
        <time>2012-09-09T08:11:07Z</time>
      </trkpt>
      <trkpt lat="43.42601" lon="6.3821">
        <ele>85.599998</ele>
        <time>2012-09-09T08:11:08Z</time>
      </trkpt>
      <trkpt lat="43.42593" lon="6.38191">
        <ele>83.5</ele>
        <time>2012-09-09T08:13:10Z</time>
      </trkpt>
      <trkpt lat="43.42593" lon="6.3819">
        <ele>83.699997</ele>
        <time>2012-09-09T08:13:11Z</time>
      </trkpt>
      <trkpt lat="43.42601" lon="6.38197">
        <ele>83.800003</ele>
        <time>2012-09-09T08:14:19Z</time>
      </trkpt>
      <trkpt lat="43.42584" lon="6.38189">
        <ele>84.300003</ele>
        <time>2012-09-09T08:15:15Z</time>
      </trkpt>
      <trkpt lat="43.42577" lon="6.38187">
        <ele>83.199997</ele>
        <time>2012-09-09T08:15:22Z</time>
      </trkpt>
      <trkpt lat="43.42575" lon="6.38186">
        <ele>83.199997</ele>
        <time>2012-09-09T08:15:23Z</time>
      </trkpt>
      <trkpt lat="43.4256" lon="6.38184">
        <ele>84.199997</ele>
        <time>2012-09-09T08:15:37Z</time>
      </trkpt>
      <trkpt lat="43.42553" lon="6.38179">
        <ele>82.400002</ele>
        <time>2012-09-09T08:15:51Z</time>
      </trkpt>
      <trkpt lat="43.42545" lon="6.38174">
        <ele>81.199997</ele>
        <time>2012-09-09T08:15:56Z</time>
      </trkpt>
      <trkpt lat="43.42537" lon="6.38175">
        <ele>80.599998</ele>
        <time>2012-09-09T08:16:08Z</time>
      </trkpt>
      <trkpt lat="43.42543" lon="6.38167">
        <ele>82</ele>
        <time>2012-09-09T08:17:04Z</time>
      </trkpt>
      <trkpt lat="43.42544" lon="6.38167">
        <ele>82.099998</ele>
        <time>2012-09-09T08:17:05Z</time>
      </trkpt>
      <trkpt lat="43.42543" lon="6.38167">
        <ele>84.599998</ele>
        <time>2012-09-09T08:17:44Z</time>
      </trkpt>
      <trkpt lat="43.42535" lon="6.38164">
        <ele>84.400002</ele>
        <time>2012-09-09T08:17:48Z</time>
      </trkpt>
      <trkpt lat="43.42534" lon="6.38152">
        <ele>83.699997</ele>
        <time>2012-09-09T08:18:10Z</time>
      </trkpt>
      <trkpt lat="43.42534" lon="6.38151">
        <ele>83.599998</ele>
        <time>2012-09-09T08:18:11Z</time>
      </trkpt>
      <trkpt lat="43.42523" lon="6.38164">
        <ele>82.400002</ele>
        <time>2012-09-09T08:18:53Z</time>
      </trkpt>
      <trkpt lat="43.42528" lon="6.38174">
        <ele>82.599998</ele>
        <time>2012-09-09T08:19:01Z</time>
      </trkpt>
      <trkpt lat="43.42528" lon="6.38186">
        <ele>81.300003</ele>
        <time>2012-09-09T08:19:40Z</time>
      </trkpt>
      <trkpt lat="43.42528" lon="6.38188">
        <ele>81.5</ele>
        <time>2012-09-09T08:19:41Z</time>
      </trkpt>
      <trkpt lat="43.42521" lon="6.38204">
        <ele>83</ele>
        <time>2012-09-09T08:20:00Z</time>
      </trkpt>
      <trkpt lat="43.42513" lon="6.38207">
        <ele>82.5</ele>
        <time>2012-09-09T08:20:14Z</time>
      </trkpt>
      <trkpt lat="43.42507" lon="6.38213">
        <ele>82.400002</ele>
        <time>2012-09-09T08:20:18Z</time>
      </trkpt>
      <trkpt lat="43.425" lon="6.38218">
        <ele>83</ele>
        <time>2012-09-09T08:20:25Z</time>
      </trkpt>
      <trkpt lat="43.42493" lon="6.38226">
        <ele>82.300003</ele>
        <time>2012-09-09T08:20:32Z</time>
      </trkpt>
      <trkpt lat="43.42486" lon="6.38229">
        <ele>81.599998</ele>
        <time>2012-09-09T08:20:36Z</time>
      </trkpt>
      <trkpt lat="43.42477" lon="6.38233">
        <ele>81.400002</ele>
        <time>2012-09-09T08:20:45Z</time>
      </trkpt>
      <trkpt lat="43.42476" lon="6.38234">
        <ele>81.699997</ele>
        <time>2012-09-09T08:20:46Z</time>
      </trkpt>
      <trkpt lat="43.42463" lon="6.38237">
        <ele>79.5</ele>
        <time>2012-09-09T08:21:00Z</time>
      </trkpt>
      <trkpt lat="43.42454" lon="6.38235">
        <ele>80.900002</ele>
        <time>2012-09-09T08:21:09Z</time>
      </trkpt>
      <trkpt lat="43.42445" lon="6.38236">
        <ele>80</ele>
        <time>2012-09-09T08:21:15Z</time>
      </trkpt>
      <trkpt lat="43.42436" lon="6.38236">
        <ele>80</ele>
        <time>2012-09-09T08:21:24Z</time>
      </trkpt>
      <trkpt lat="43.42428" lon="6.38238">
        <ele>80.199997</ele>
        <time>2012-09-09T08:21:28Z</time>
      </trkpt>
      <trkpt lat="43.42422" lon="6.38245">
        <ele>79.699997</ele>
        <time>2012-09-09T08:21:36Z</time>
      </trkpt>
      <trkpt lat="43.42414" lon="6.38252">
        <ele>79.800003</ele>
        <time>2012-09-09T08:21:41Z</time>
      </trkpt>
      <trkpt lat="43.42406" lon="6.38254">
        <ele>79.099998</ele>
        <time>2012-09-09T08:21:46Z</time>
      </trkpt>
      <trkpt lat="43.42405" lon="6.38254">
        <ele>79.300003</ele>
        <time>2012-09-09T08:21:47Z</time>
      </trkpt>
      <trkpt lat="43.42393" lon="6.38264">
        <ele>79.800003</ele>
        <time>2012-09-09T08:21:56Z</time>
      </trkpt>
      <trkpt lat="43.42386" lon="6.38266">
        <ele>79.5</ele>
        <time>2012-09-09T08:22:00Z</time>
      </trkpt>
      <trkpt lat="43.42379" lon="6.38274">
        <ele>78.699997</ele>
        <time>2012-09-09T08:22:08Z</time>
      </trkpt>
      <trkpt lat="43.42374" lon="6.38283">
        <ele>77.400002</ele>
        <time>2012-09-09T08:22:16Z</time>
      </trkpt>
      <trkpt lat="43.42371" lon="6.38293">
        <ele>77.800003</ele>
        <time>2012-09-09T08:22:21Z</time>
      </trkpt>
      <trkpt lat="43.42371" lon="6.38304">
        <ele>77.5</ele>
        <time>2012-09-09T08:22:25Z</time>
      </trkpt>
      <trkpt lat="43.42367" lon="6.38314">
        <ele>76.199997</ele>
        <time>2012-09-09T08:22:31Z</time>
      </trkpt>
      <trkpt lat="43.42366" lon="6.38326">
        <ele>75.699997</ele>
        <time>2012-09-09T08:22:36Z</time>
      </trkpt>
      <trkpt lat="43.42367" lon="6.38337">
        <ele>73.400002</ele>
        <time>2012-09-09T08:22:47Z</time>
      </trkpt>
      <trkpt lat="43.42367" lon="6.38339">
        <ele>73.400002</ele>
        <time>2012-09-09T08:22:48Z</time>
      </trkpt>
      <trkpt lat="43.42365" lon="6.3836">
        <ele>72.800003</ele>
        <time>2012-09-09T08:22:58Z</time>
      </trkpt>
      <trkpt lat="43.42367" lon="6.38371">
        <ele>72.5</ele>
        <time>2012-09-09T08:23:06Z</time>
      </trkpt>
      <trkpt lat="43.42359" lon="6.38376">
        <ele>71.900002</ele>
        <time>2012-09-09T08:23:13Z</time>
      </trkpt>
      <trkpt lat="43.42353" lon="6.38386">
        <ele>71.099998</ele>
        <time>2012-09-09T08:23:21Z</time>
      </trkpt>
      <trkpt lat="43.42345" lon="6.38389">
        <ele>70.400002</ele>
        <time>2012-09-09T08:23:32Z</time>
      </trkpt>
      <trkpt lat="43.42337" lon="6.38392">
        <ele>70.199997</ele>
        <time>2012-09-09T08:23:37Z</time>
      </trkpt>
      <trkpt lat="43.42329" lon="6.38397">
        <ele>69.800003</ele>
        <time>2012-09-09T08:23:44Z</time>
      </trkpt>
      <trkpt lat="43.4233" lon="6.38408">
        <ele>69.400002</ele>
        <time>2012-09-09T08:23:49Z</time>
      </trkpt>
      <trkpt lat="43.4233" lon="6.38412">
        <ele>69.199997</ele>
        <time>2012-09-09T08:23:50Z</time>
      </trkpt>
      <trkpt lat="43.42324" lon="6.38427">
        <ele>69.300003</ele>
        <time>2012-09-09T08:23:58Z</time>
      </trkpt>
      <trkpt lat="43.42319" lon="6.38437">
        <ele>70.099998</ele>
        <time>2012-09-09T08:24:05Z</time>
      </trkpt>
      <trkpt lat="43.4232" lon="6.38449">
        <ele>69.300003</ele>
        <time>2012-09-09T08:24:11Z</time>
      </trkpt>
      <trkpt lat="43.42319" lon="6.3846">
        <ele>68</ele>
        <time>2012-09-09T08:24:15Z</time>
      </trkpt>
      <trkpt lat="43.42316" lon="6.38469">
        <ele>68.599998</ele>
        <time>2012-09-09T08:24:19Z</time>
      </trkpt>
      <trkpt lat="43.42315" lon="6.38481">
        <ele>69.199997</ele>
        <time>2012-09-09T08:24:24Z</time>
      </trkpt>
      <trkpt lat="43.42314" lon="6.38493">
        <ele>68.599998</ele>
        <time>2012-09-09T08:24:30Z</time>
      </trkpt>
      <trkpt lat="43.42315" lon="6.38505">
        <ele>69</ele>
        <time>2012-09-09T08:24:35Z</time>
      </trkpt>
      <trkpt lat="43.42316" lon="6.38514">
        <ele>68.199997</ele>
        <time>2012-09-09T08:24:39Z</time>
      </trkpt>
      <trkpt lat="43.42314" lon="6.38525">
        <ele>68.099998</ele>
        <time>2012-09-09T08:24:43Z</time>
      </trkpt>
      <trkpt lat="43.42313" lon="6.38536">
        <ele>68</ele>
        <time>2012-09-09T08:24:51Z</time>
      </trkpt>
      <trkpt lat="43.42313" lon="6.38538">
        <ele>67.400002</ele>
        <time>2012-09-09T08:24:52Z</time>
      </trkpt>
      <trkpt lat="43.42312" lon="6.38556">
        <ele>67.199997</ele>
        <time>2012-09-09T08:25:01Z</time>
      </trkpt>
      <trkpt lat="43.42319" lon="6.38561">
        <ele>67.5</ele>
        <time>2012-09-09T08:25:05Z</time>
      </trkpt>
      <trkpt lat="43.42327" lon="6.38567">
        <ele>67.800003</ele>
        <time>2012-09-09T08:25:10Z</time>
      </trkpt>
      <trkpt lat="43.42334" lon="6.38574">
        <ele>67.800003</ele>
        <time>2012-09-09T08:25:14Z</time>
      </trkpt>
      <trkpt lat="43.4234" lon="6.38581">
        <ele>67.5</ele>
        <time>2012-09-09T08:25:18Z</time>
      </trkpt>
      <trkpt lat="43.42345" lon="6.38588">
        <ele>67.699997</ele>
        <time>2012-09-09T08:25:21Z</time>
      </trkpt>
      <trkpt lat="43.42352" lon="6.38595">
        <ele>67.599998</ele>
        <time>2012-09-09T08:25:29Z</time>
      </trkpt>
      <trkpt lat="43.42357" lon="6.38603">
        <ele>68.199997</ele>
        <time>2012-09-09T08:25:34Z</time>
      </trkpt>
      <trkpt lat="43.42362" lon="6.38612">
        <ele>67</ele>
        <time>2012-09-09T08:25:38Z</time>
      </trkpt>
      <trkpt lat="43.42368" lon="6.38618">
        <ele>67.400002</ele>
        <time>2012-09-09T08:25:43Z</time>
      </trkpt>
      <trkpt lat="43.42373" lon="6.38627">
        <ele>67.800003</ele>
        <time>2012-09-09T08:25:50Z</time>
      </trkpt>
      <trkpt lat="43.42379" lon="6.38633">
        <ele>67.300003</ele>
        <time>2012-09-09T08:25:56Z</time>
      </trkpt>
      <trkpt lat="43.42381" lon="6.38634">
        <ele>66.900002</ele>
        <time>2012-09-09T08:25:57Z</time>
      </trkpt>
      <trkpt lat="43.42394" lon="6.38644">
        <ele>67.300003</ele>
        <time>2012-09-09T08:26:12Z</time>
      </trkpt>
      <trkpt lat="43.42402" lon="6.38638">
        <ele>66.800003</ele>
        <time>2012-09-09T08:26:28Z</time>
      </trkpt>
      <trkpt lat="43.4241" lon="6.38635">
        <ele>67.900002</ele>
        <time>2012-09-09T08:26:33Z</time>
      </trkpt>
      <trkpt lat="43.42418" lon="6.38632">
        <ele>67.599998</ele>
        <time>2012-09-09T08:26:36Z</time>
      </trkpt>
      <trkpt lat="43.42425" lon="6.38626">
        <ele>67.400002</ele>
        <time>2012-09-09T08:26:39Z</time>
      </trkpt>
      <trkpt lat="43.42433" lon="6.38621">
        <ele>67.800003</ele>
        <time>2012-09-09T08:26:47Z</time>
      </trkpt>
      <trkpt lat="43.42442" lon="6.38619">
        <ele>68.5</ele>
        <time>2012-09-09T08:26:53Z</time>
      </trkpt>
      <trkpt lat="43.42447" lon="6.38613">
        <ele>68.300003</ele>
        <time>2012-09-09T08:26:57Z</time>
      </trkpt>
      <trkpt lat="43.42448" lon="6.3861">
        <ele>67.900002</ele>
        <time>2012-09-09T08:26:58Z</time>
      </trkpt>
      <trkpt lat="43.42454" lon="6.38592">
        <ele>68.699997</ele>
        <time>2012-09-09T08:27:05Z</time>
      </trkpt>
      <trkpt lat="43.42457" lon="6.38581">
        <ele>68.199997</ele>
        <time>2012-09-09T08:27:12Z</time>
      </trkpt>
      <trkpt lat="43.42461" lon="6.38571">
        <ele>68.300003</ele>
        <time>2012-09-09T08:27:24Z</time>
      </trkpt>
      <trkpt lat="43.42468" lon="6.38565">
        <ele>68.5</ele>
        <time>2012-09-09T08:27:32Z</time>
      </trkpt>
      <trkpt lat="43.42475" lon="6.38562">
        <ele>68.5</ele>
        <time>2012-09-09T08:27:37Z</time>
      </trkpt>
      <trkpt lat="43.42483" lon="6.38563">
        <ele>68.300003</ele>
        <time>2012-09-09T08:27:40Z</time>
      </trkpt>
      <trkpt lat="43.42491" lon="6.38557">
        <ele>68</ele>
        <time>2012-09-09T08:27:46Z</time>
      </trkpt>
      <trkpt lat="43.425" lon="6.38554">
        <ele>67.900002</ele>
        <time>2012-09-09T08:28:00Z</time>
      </trkpt>
      <trkpt lat="43.42501" lon="6.38555">
        <ele>67.5</ele>
        <time>2012-09-09T08:28:01Z</time>
      </trkpt>
      <trkpt lat="43.42515" lon="6.38551">
        <ele>68</ele>
        <time>2012-09-09T08:28:09Z</time>
      </trkpt>
      <trkpt lat="43.42523" lon="6.38553">
        <ele>67.900002</ele>
        <time>2012-09-09T08:28:12Z</time>
      </trkpt>
      <trkpt lat="43.42531" lon="6.38551">
        <ele>67.199997</ele>
        <time>2012-09-09T08:28:17Z</time>
      </trkpt>
      <trkpt lat="43.42532" lon="6.38539">
        <ele>67.400002</ele>
        <time>2012-09-09T08:28:39Z</time>
      </trkpt>
      <trkpt lat="43.4254" lon="6.38538">
        <ele>67.599998</ele>
        <time>2012-09-09T08:28:47Z</time>
      </trkpt>
      <trkpt lat="43.42548" lon="6.38535">
        <ele>67.300003</ele>
        <time>2012-09-09T08:29:31Z</time>
      </trkpt>
      <trkpt lat="43.42549" lon="6.38535">
        <ele>67.199997</ele>
        <time>2012-09-09T08:29:32Z</time>
      </trkpt>
      <trkpt lat="43.42565" lon="6.38529">
        <ele>67.699997</ele>
        <time>2012-09-09T08:29:51Z</time>
      </trkpt>
      <trkpt lat="43.42572" lon="6.38525">
        <ele>68</ele>
        <time>2012-09-09T08:29:58Z</time>
      </trkpt>
      <trkpt lat="43.4258" lon="6.38521">
        <ele>68.099998</ele>
        <time>2012-09-09T08:30:06Z</time>
      </trkpt>
      <trkpt lat="43.42588" lon="6.38517">
        <ele>68.099998</ele>
        <time>2012-09-09T08:30:15Z</time>
      </trkpt>
      <trkpt lat="43.42596" lon="6.38513">
        <ele>67.699997</ele>
        <time>2012-09-09T08:30:23Z</time>
      </trkpt>
      <trkpt lat="43.42605" lon="6.3851">
        <ele>67.599998</ele>
        <time>2012-09-09T08:30:30Z</time>
      </trkpt>
      <trkpt lat="43.42613" lon="6.38507">
        <ele>67.300003</ele>
        <time>2012-09-09T08:30:38Z</time>
      </trkpt>
      <trkpt lat="43.42614" lon="6.38507">
        <ele>67.699997</ele>
        <time>2012-09-09T08:30:39Z</time>
      </trkpt>
      <trkpt lat="43.4263" lon="6.38507">
        <ele>67.800003</ele>
        <time>2012-09-09T08:30:53Z</time>
      </trkpt>
      <trkpt lat="43.42637" lon="6.38507">
        <ele>67.400002</ele>
        <time>2012-09-09T08:30:58Z</time>
      </trkpt>
      <trkpt lat="43.42646" lon="6.38506">
        <ele>67.699997</ele>
        <time>2012-09-09T08:31:05Z</time>
      </trkpt>
      <trkpt lat="43.42654" lon="6.38505">
        <ele>67.800003</ele>
        <time>2012-09-09T08:31:12Z</time>
      </trkpt>
      <trkpt lat="43.42663" lon="6.38505">
        <ele>67.300003</ele>
        <time>2012-09-09T08:31:19Z</time>
      </trkpt>
      <trkpt lat="43.42671" lon="6.38504">
        <ele>67.300003</ele>
        <time>2012-09-09T08:31:29Z</time>
      </trkpt>
      <trkpt lat="43.4268" lon="6.38504">
        <ele>67.199997</ele>
        <time>2012-09-09T08:31:38Z</time>
      </trkpt>
      <trkpt lat="43.42689" lon="6.38504">
        <ele>67</ele>
        <time>2012-09-09T08:31:45Z</time>
      </trkpt>
      <trkpt lat="43.4269" lon="6.38505">
        <ele>67.099998</ele>
        <time>2012-09-09T08:31:46Z</time>
      </trkpt>
      <trkpt lat="43.42705" lon="6.38506">
        <ele>67.300003</ele>
        <time>2012-09-09T08:32:03Z</time>
      </trkpt>
      <trkpt lat="43.42713" lon="6.38506">
        <ele>66.599998</ele>
        <time>2012-09-09T08:32:11Z</time>
      </trkpt>
      <trkpt lat="43.42722" lon="6.38506">
        <ele>66.900002</ele>
        <time>2012-09-09T08:32:17Z</time>
      </trkpt>
      <trkpt lat="43.4273" lon="6.38507">
        <ele>67</ele>
        <time>2012-09-09T08:32:21Z</time>
      </trkpt>
      <trkpt lat="43.42738" lon="6.38509">
        <ele>67.5</ele>
        <time>2012-09-09T08:32:28Z</time>
      </trkpt>
      <trkpt lat="43.42746" lon="6.38512">
        <ele>67.199997</ele>
        <time>2012-09-09T08:32:36Z</time>
      </trkpt>
      <trkpt lat="43.42754" lon="6.38515">
        <ele>67.400002</ele>
        <time>2012-09-09T08:32:41Z</time>
      </trkpt>
      <trkpt lat="43.42761" lon="6.38517">
        <ele>66.800003</ele>
        <time>2012-09-09T08:32:49Z</time>
      </trkpt>
      <trkpt lat="43.42762" lon="6.38518">
        <ele>66.800003</ele>
        <time>2012-09-09T08:32:50Z</time>
      </trkpt>
      <trkpt lat="43.42777" lon="6.38524">
        <ele>67.099998</ele>
        <time>2012-09-09T08:33:04Z</time>
      </trkpt>
      <trkpt lat="43.42785" lon="6.3853">
        <ele>66.699997</ele>
        <time>2012-09-09T08:33:13Z</time>
      </trkpt>
      <trkpt lat="43.42793" lon="6.38533">
        <ele>67.300003</ele>
        <time>2012-09-09T08:33:19Z</time>
      </trkpt>
      <trkpt lat="43.42799" lon="6.3854">
        <ele>67.199997</ele>
        <time>2012-09-09T08:33:26Z</time>
      </trkpt>
      <trkpt lat="43.42806" lon="6.38547">
        <ele>67.599998</ele>
        <time>2012-09-09T08:33:33Z</time>
      </trkpt>
      <trkpt lat="43.42813" lon="6.38553">
        <ele>67</ele>
        <time>2012-09-09T08:33:39Z</time>
      </trkpt>
      <trkpt lat="43.42821" lon="6.38557">
        <ele>67.400002</ele>
        <time>2012-09-09T08:33:45Z</time>
      </trkpt>
      <trkpt lat="43.42828" lon="6.38564">
        <ele>67.199997</ele>
        <time>2012-09-09T08:33:51Z</time>
      </trkpt>
      <trkpt lat="43.42829" lon="6.38565">
        <ele>66.900002</ele>
        <time>2012-09-09T08:33:52Z</time>
      </trkpt>
      <trkpt lat="43.42843" lon="6.38575">
        <ele>67.400002</ele>
        <time>2012-09-09T08:34:04Z</time>
      </trkpt>
      <trkpt lat="43.4285" lon="6.38581">
        <ele>66.900002</ele>
        <time>2012-09-09T08:34:12Z</time>
      </trkpt>
      <trkpt lat="43.42859" lon="6.38585">
        <ele>65.800003</ele>
        <time>2012-09-09T08:34:22Z</time>
      </trkpt>
      <trkpt lat="43.42867" lon="6.3859">
        <ele>65.900002</ele>
        <time>2012-09-09T08:34:29Z</time>
      </trkpt>
      <trkpt lat="43.42874" lon="6.38595">
        <ele>65.699997</ele>
        <time>2012-09-09T08:34:34Z</time>
      </trkpt>
      <trkpt lat="43.42881" lon="6.386">
        <ele>65.199997</ele>
        <time>2012-09-09T08:34:41Z</time>
      </trkpt>
      <trkpt lat="43.42888" lon="6.38604">
        <ele>65.300003</ele>
        <time>2012-09-09T08:34:47Z</time>
      </trkpt>
      <trkpt lat="43.42895" lon="6.38609">
        <ele>65.400002</ele>
        <time>2012-09-09T08:34:52Z</time>
      </trkpt>
      <trkpt lat="43.42897" lon="6.38611">
        <ele>65.400002</ele>
        <time>2012-09-09T08:34:53Z</time>
      </trkpt>
      <trkpt lat="43.42905" lon="6.38629">
        <ele>64.800003</ele>
        <time>2012-09-09T08:35:06Z</time>
      </trkpt>
      <trkpt lat="43.42909" lon="6.38638">
        <ele>65.5</ele>
        <time>2012-09-09T08:35:12Z</time>
      </trkpt>
      <trkpt lat="43.42914" lon="6.38648">
        <ele>65.599998</ele>
        <time>2012-09-09T08:35:22Z</time>
      </trkpt>
      <trkpt lat="43.42922" lon="6.3865">
        <ele>65.599998</ele>
        <time>2012-09-09T08:35:29Z</time>
      </trkpt>
      <trkpt lat="43.4293" lon="6.38654">
        <ele>65.900002</ele>
        <time>2012-09-09T08:35:43Z</time>
      </trkpt>
      <trkpt lat="43.42936" lon="6.38659">
        <ele>65.800003</ele>
        <time>2012-09-09T08:35:47Z</time>
      </trkpt>
      <trkpt lat="43.42945" lon="6.3866">
        <ele>66</ele>
        <time>2012-09-09T08:35:52Z</time>
      </trkpt>
      <trkpt lat="43.42953" lon="6.38664">
        <ele>65.5</ele>
        <time>2012-09-09T08:35:56Z</time>
      </trkpt>
      <trkpt lat="43.42955" lon="6.38664">
        <ele>65.699997</ele>
        <time>2012-09-09T08:35:57Z</time>
      </trkpt>
      <trkpt lat="43.42965" lon="6.38677">
        <ele>67</ele>
        <time>2012-09-09T08:36:09Z</time>
      </trkpt>
      <trkpt lat="43.42972" lon="6.38682">
        <ele>67</ele>
        <time>2012-09-09T08:36:16Z</time>
      </trkpt>
      <trkpt lat="43.4298" lon="6.38687">
        <ele>67.199997</ele>
        <time>2012-09-09T08:36:21Z</time>
      </trkpt>
      <trkpt lat="43.42986" lon="6.38696">
        <ele>66.699997</ele>
        <time>2012-09-09T08:36:28Z</time>
      </trkpt>
      <trkpt lat="43.42993" lon="6.38703">
        <ele>67.400002</ele>
        <time>2012-09-09T08:36:36Z</time>
      </trkpt>
      <trkpt lat="43.43" lon="6.38708">
        <ele>66.800003</ele>
        <time>2012-09-09T08:36:42Z</time>
      </trkpt>
      <trkpt lat="43.43006" lon="6.38716">
        <ele>67.099998</ele>
        <time>2012-09-09T08:36:48Z</time>
      </trkpt>
      <trkpt lat="43.43012" lon="6.38724">
        <ele>67.300003</ele>
        <time>2012-09-09T08:36:53Z</time>
      </trkpt>
      <trkpt lat="43.43017" lon="6.38734">
        <ele>67.300003</ele>
        <time>2012-09-09T08:37:01Z</time>
      </trkpt>
      <trkpt lat="43.43018" lon="6.38735">
        <ele>67.300003</ele>
        <time>2012-09-09T08:37:02Z</time>
      </trkpt>
      <trkpt lat="43.43027" lon="6.3875">
        <ele>67.199997</ele>
        <time>2012-09-09T08:37:13Z</time>
      </trkpt>
      <trkpt lat="43.4303" lon="6.3876">
        <ele>67.400002</ele>
        <time>2012-09-09T08:37:21Z</time>
      </trkpt>
      <trkpt lat="43.43036" lon="6.38769">
        <ele>67.900002</ele>
        <time>2012-09-09T08:37:28Z</time>
      </trkpt>
      <trkpt lat="43.43042" lon="6.38778">
        <ele>67.400002</ele>
        <time>2012-09-09T08:37:36Z</time>
      </trkpt>
      <trkpt lat="43.43048" lon="6.38786">
        <ele>66.900002</ele>
        <time>2012-09-09T08:37:43Z</time>
      </trkpt>
      <trkpt lat="43.43053" lon="6.38795">
        <ele>67.099998</ele>
        <time>2012-09-09T08:37:50Z</time>
      </trkpt>
      <trkpt lat="43.43058" lon="6.38803">
        <ele>67.699997</ele>
        <time>2012-09-09T08:37:57Z</time>
      </trkpt>
      <trkpt lat="43.43063" lon="6.38811">
        <ele>67.900002</ele>
        <time>2012-09-09T08:38:03Z</time>
      </trkpt>
      <trkpt lat="43.43064" lon="6.38813">
        <ele>67.599998</ele>
        <time>2012-09-09T08:38:04Z</time>
      </trkpt>
      <trkpt lat="43.43071" lon="6.38831">
        <ele>69</ele>
        <time>2012-09-09T08:38:20Z</time>
      </trkpt>
      <trkpt lat="43.43075" lon="6.38842">
        <ele>69.900002</ele>
        <time>2012-09-09T08:38:30Z</time>
      </trkpt>
      <trkpt lat="43.43077" lon="6.38852">
        <ele>68.599998</ele>
        <time>2012-09-09T08:38:37Z</time>
      </trkpt>
      <trkpt lat="43.4308" lon="6.38861">
        <ele>69.599998</ele>
        <time>2012-09-09T08:38:41Z</time>
      </trkpt>
      <trkpt lat="43.43083" lon="6.38873">
        <ele>68.699997</ele>
        <time>2012-09-09T08:38:49Z</time>
      </trkpt>
      <trkpt lat="43.43083" lon="6.38883">
        <ele>69.400002</ele>
        <time>2012-09-09T08:38:58Z</time>
      </trkpt>
      <trkpt lat="43.43086" lon="6.38893">
        <ele>68.400002</ele>
        <time>2012-09-09T08:39:03Z</time>
      </trkpt>
      <trkpt lat="43.43086" lon="6.38904">
        <ele>68.300003</ele>
        <time>2012-09-09T08:39:09Z</time>
      </trkpt>
      <trkpt lat="43.43087" lon="6.38906">
        <ele>68.400002</ele>
        <time>2012-09-09T08:39:10Z</time>
      </trkpt>
      <trkpt lat="43.43092" lon="6.38925">
        <ele>67.900002</ele>
        <time>2012-09-09T08:39:24Z</time>
      </trkpt>
      <trkpt lat="43.43095" lon="6.38934">
        <ele>66.699997</ele>
        <time>2012-09-09T08:39:31Z</time>
      </trkpt>
      <trkpt lat="43.43097" lon="6.38945">
        <ele>67</ele>
        <time>2012-09-09T08:39:37Z</time>
      </trkpt>
      <trkpt lat="43.43102" lon="6.38955">
        <ele>66.599998</ele>
        <time>2012-09-09T08:39:44Z</time>
      </trkpt>
      <trkpt lat="43.43105" lon="6.38967">
        <ele>66.800003</ele>
        <time>2012-09-09T08:39:50Z</time>
      </trkpt>
      <trkpt lat="43.43101" lon="6.38976">
        <ele>67.5</ele>
        <time>2012-09-09T08:39:56Z</time>
      </trkpt>
      <trkpt lat="43.43096" lon="6.38985">
        <ele>67.5</ele>
        <time>2012-09-09T08:40:03Z</time>
      </trkpt>
      <trkpt lat="43.43096" lon="6.38997">
        <ele>68</ele>
        <time>2012-09-09T08:40:10Z</time>
      </trkpt>
      <trkpt lat="43.43096" lon="6.38998">
        <ele>67.699997</ele>
        <time>2012-09-09T08:40:11Z</time>
      </trkpt>
      <trkpt lat="43.43097" lon="6.39019">
        <ele>67</ele>
        <time>2012-09-09T08:40:24Z</time>
      </trkpt>
      <trkpt lat="43.43097" lon="6.39031">
        <ele>67</ele>
        <time>2012-09-09T08:40:31Z</time>
      </trkpt>
      <trkpt lat="43.43094" lon="6.39041">
        <ele>67.099998</ele>
        <time>2012-09-09T08:40:38Z</time>
      </trkpt>
      <trkpt lat="43.43095" lon="6.39052">
        <ele>67.400002</ele>
        <time>2012-09-09T08:40:45Z</time>
      </trkpt>
      <trkpt lat="43.43096" lon="6.39063">
        <ele>67.400002</ele>
        <time>2012-09-09T08:40:50Z</time>
      </trkpt>
      <trkpt lat="43.43093" lon="6.39073">
        <ele>67</ele>
        <time>2012-09-09T08:40:59Z</time>
      </trkpt>
      <trkpt lat="43.43088" lon="6.39083">
        <ele>67.5</ele>
        <time>2012-09-09T08:41:05Z</time>
      </trkpt>
      <trkpt lat="43.43088" lon="6.39095">
        <ele>67.300003</ele>
        <time>2012-09-09T08:41:14Z</time>
      </trkpt>
      <trkpt lat="43.43088" lon="6.39097">
        <ele>67.300003</ele>
        <time>2012-09-09T08:41:15Z</time>
      </trkpt>
      <trkpt lat="43.43092" lon="6.39116">
        <ele>67.099998</ele>
        <time>2012-09-09T08:41:25Z</time>
      </trkpt>
      <trkpt lat="43.43095" lon="6.39128">
        <ele>67.199997</ele>
        <time>2012-09-09T08:41:32Z</time>
      </trkpt>
      <trkpt lat="43.43088" lon="6.39135">
        <ele>67.5</ele>
        <time>2012-09-09T08:41:38Z</time>
      </trkpt>
      <trkpt lat="43.43088" lon="6.39147">
        <ele>67.800003</ele>
        <time>2012-09-09T08:41:45Z</time>
      </trkpt>
      <trkpt lat="43.43085" lon="6.39158">
        <ele>67.599998</ele>
        <time>2012-09-09T08:41:53Z</time>
      </trkpt>
      <trkpt lat="43.43083" lon="6.39169">
        <ele>67.199997</ele>
        <time>2012-09-09T08:42:00Z</time>
      </trkpt>
      <trkpt lat="43.43077" lon="6.39176">
        <ele>67.300003</ele>
        <time>2012-09-09T08:42:05Z</time>
      </trkpt>
      <trkpt lat="43.43072" lon="6.39186">
        <ele>67.599998</ele>
        <time>2012-09-09T08:42:13Z</time>
      </trkpt>
      <trkpt lat="43.4307" lon="6.39195">
        <ele>67.699997</ele>
        <time>2012-09-09T08:42:20Z</time>
      </trkpt>
      <trkpt lat="43.43069" lon="6.39198">
        <ele>67.400002</ele>
        <time>2012-09-09T08:42:21Z</time>
      </trkpt>
      <trkpt lat="43.43065" lon="6.39216">
        <ele>67</ele>
        <time>2012-09-09T08:42:33Z</time>
      </trkpt>
      <trkpt lat="43.43061" lon="6.39227">
        <ele>68</ele>
        <time>2012-09-09T08:42:41Z</time>
      </trkpt>
      <trkpt lat="43.43058" lon="6.39237">
        <ele>67.5</ele>
        <time>2012-09-09T08:42:49Z</time>
      </trkpt>
      <trkpt lat="43.43055" lon="6.39247">
        <ele>67.5</ele>
        <time>2012-09-09T08:42:56Z</time>
      </trkpt>
      <trkpt lat="43.4305" lon="6.39256">
        <ele>67.5</ele>
        <time>2012-09-09T08:43:03Z</time>
      </trkpt>
      <trkpt lat="43.43048" lon="6.39267">
        <ele>68</ele>
        <time>2012-09-09T08:43:10Z</time>
      </trkpt>
      <trkpt lat="43.43044" lon="6.39277">
        <ele>67.800003</ele>
        <time>2012-09-09T08:43:15Z</time>
      </trkpt>
      <trkpt lat="43.43043" lon="6.39289">
        <ele>68.300003</ele>
        <time>2012-09-09T08:43:22Z</time>
      </trkpt>
      <trkpt lat="43.43042" lon="6.39291">
        <ele>67.800003</ele>
        <time>2012-09-09T08:43:23Z</time>
      </trkpt>
      <trkpt lat="43.4304" lon="6.3931">
        <ele>68.400002</ele>
        <time>2012-09-09T08:43:36Z</time>
      </trkpt>
      <trkpt lat="43.43038" lon="6.39321">
        <ele>68.800003</ele>
        <time>2012-09-09T08:43:45Z</time>
      </trkpt>
      <trkpt lat="43.43036" lon="6.39333">
        <ele>68.300003</ele>
        <time>2012-09-09T08:43:53Z</time>
      </trkpt>
      <trkpt lat="43.43031" lon="6.39342">
        <ele>68.099998</ele>
        <time>2012-09-09T08:44:00Z</time>
      </trkpt>
      <trkpt lat="43.43026" lon="6.39352">
        <ele>68.099998</ele>
        <time>2012-09-09T08:44:05Z</time>
      </trkpt>
      <trkpt lat="43.43023" lon="6.39361">
        <ele>67.699997</ele>
        <time>2012-09-09T08:44:12Z</time>
      </trkpt>
      <trkpt lat="43.43017" lon="6.39371">
        <ele>68.099998</ele>
        <time>2012-09-09T08:44:20Z</time>
      </trkpt>
      <trkpt lat="43.43014" lon="6.3938">
        <ele>68</ele>
        <time>2012-09-09T08:44:25Z</time>
      </trkpt>
      <trkpt lat="43.43013" lon="6.39382">
        <ele>67.900002</ele>
        <time>2012-09-09T08:44:26Z</time>
      </trkpt>
      <trkpt lat="43.43007" lon="6.39402">
        <ele>67.699997</ele>
        <time>2012-09-09T08:44:39Z</time>
      </trkpt>
      <trkpt lat="43.43003" lon="6.39411">
        <ele>67.599998</ele>
        <time>2012-09-09T08:44:45Z</time>
      </trkpt>
      <trkpt lat="43.42997" lon="6.3942">
        <ele>67.800003</ele>
        <time>2012-09-09T08:44:51Z</time>
      </trkpt>
      <trkpt lat="43.42992" lon="6.39428">
        <ele>66.699997</ele>
        <time>2012-09-09T08:44:58Z</time>
      </trkpt>
      <trkpt lat="43.42987" lon="6.39436">
        <ele>67.099998</ele>
        <time>2012-09-09T08:45:04Z</time>
      </trkpt>
      <trkpt lat="43.42983" lon="6.39447">
        <ele>66.5</ele>
        <time>2012-09-09T08:45:10Z</time>
      </trkpt>
      <trkpt lat="43.4298" lon="6.39457">
        <ele>65.800003</ele>
        <time>2012-09-09T08:45:16Z</time>
      </trkpt>
      <trkpt lat="43.42973" lon="6.39464">
        <ele>66.699997</ele>
        <time>2012-09-09T08:45:24Z</time>
      </trkpt>
      <trkpt lat="43.42968" lon="6.39472">
        <ele>66.300003</ele>
        <time>2012-09-09T08:45:31Z</time>
      </trkpt>
      <trkpt lat="43.42967" lon="6.39474">
        <ele>66.5</ele>
        <time>2012-09-09T08:45:32Z</time>
      </trkpt>
      <trkpt lat="43.42964" lon="6.39495">
        <ele>67</ele>
        <time>2012-09-09T08:45:44Z</time>
      </trkpt>
      <trkpt lat="43.42957" lon="6.39502">
        <ele>67.099998</ele>
        <time>2012-09-09T08:45:49Z</time>
      </trkpt>
      <trkpt lat="43.42955" lon="6.39513">
        <ele>66.199997</ele>
        <time>2012-09-09T08:45:59Z</time>
      </trkpt>
      <trkpt lat="43.42953" lon="6.39524">
        <ele>65.800003</ele>
        <time>2012-09-09T08:46:04Z</time>
      </trkpt>
      <trkpt lat="43.42949" lon="6.39534">
        <ele>65.800003</ele>
        <time>2012-09-09T08:46:11Z</time>
      </trkpt>
      <trkpt lat="43.42945" lon="6.39544">
        <ele>66.599998</ele>
        <time>2012-09-09T08:46:17Z</time>
      </trkpt>
      <trkpt lat="43.42941" lon="6.39554">
        <ele>67.300003</ele>
        <time>2012-09-09T08:46:23Z</time>
      </trkpt>
      <trkpt lat="43.42939" lon="6.39564">
        <ele>66.699997</ele>
        <time>2012-09-09T08:46:30Z</time>
      </trkpt>
      <trkpt lat="43.42935" lon="6.39575">
        <ele>66.900002</ele>
        <time>2012-09-09T08:46:38Z</time>
      </trkpt>
      <trkpt lat="43.42933" lon="6.39577">
        <ele>66.900002</ele>
        <time>2012-09-09T08:46:39Z</time>
      </trkpt>
      <trkpt lat="43.42929" lon="6.39597">
        <ele>66.099998</ele>
        <time>2012-09-09T08:46:50Z</time>
      </trkpt>
      <trkpt lat="43.42927" lon="6.39607">
        <ele>66.900002</ele>
        <time>2012-09-09T08:46:57Z</time>
      </trkpt>
      <trkpt lat="43.42925" lon="6.39618">
        <ele>67.400002</ele>
        <time>2012-09-09T08:47:03Z</time>
      </trkpt>
      <trkpt lat="43.4292" lon="6.39626">
        <ele>67.699997</ele>
        <time>2012-09-09T08:47:09Z</time>
      </trkpt>
      <trkpt lat="43.42916" lon="6.39636">
        <ele>67.800003</ele>
        <time>2012-09-09T08:47:16Z</time>
      </trkpt>
      <trkpt lat="43.42909" lon="6.39645">
        <ele>67.099998</ele>
        <time>2012-09-09T08:47:22Z</time>
      </trkpt>
      <trkpt lat="43.42906" lon="6.39655">
        <ele>67.400002</ele>
        <time>2012-09-09T08:47:28Z</time>
      </trkpt>
      <trkpt lat="43.42902" lon="6.39665">
        <ele>67.800003</ele>
        <time>2012-09-09T08:47:33Z</time>
      </trkpt>
      <trkpt lat="43.42899" lon="6.39677">
        <ele>67.599998</ele>
        <time>2012-09-09T08:47:39Z</time>
      </trkpt>
      <trkpt lat="43.42899" lon="6.39678">
        <ele>67</ele>
        <time>2012-09-09T08:47:40Z</time>
      </trkpt>
      <trkpt lat="43.42894" lon="6.39697">
        <ele>67.699997</ele>
        <time>2012-09-09T08:47:53Z</time>
      </trkpt>
      <trkpt lat="43.42891" lon="6.39707">
        <ele>67.599998</ele>
        <time>2012-09-09T08:48:02Z</time>
      </trkpt>
      <trkpt lat="43.42888" lon="6.39719">
        <ele>67.199997</ele>
        <time>2012-09-09T08:48:10Z</time>
      </trkpt>
      <trkpt lat="43.42883" lon="6.39727">
        <ele>67.099998</ele>
        <time>2012-09-09T08:48:16Z</time>
      </trkpt>
      <trkpt lat="43.4288" lon="6.39738">
        <ele>67.199997</ele>
        <time>2012-09-09T08:48:21Z</time>
      </trkpt>
      <trkpt lat="43.42876" lon="6.39748">
        <ele>67.099998</ele>
        <time>2012-09-09T08:48:28Z</time>
      </trkpt>
      <trkpt lat="43.42872" lon="6.39758">
        <ele>66.599998</ele>
        <time>2012-09-09T08:48:35Z</time>
      </trkpt>
      <trkpt lat="43.4287" lon="6.39768">
        <ele>67.099998</ele>
        <time>2012-09-09T08:48:42Z</time>
      </trkpt>
      <trkpt lat="43.42869" lon="6.39769">
        <ele>67.099998</ele>
        <time>2012-09-09T08:48:43Z</time>
      </trkpt>
      <trkpt lat="43.42861" lon="6.39787">
        <ele>67.300003</ele>
        <time>2012-09-09T08:48:54Z</time>
      </trkpt>
      <trkpt lat="43.42856" lon="6.39797">
        <ele>67.099998</ele>
        <time>2012-09-09T08:49:01Z</time>
      </trkpt>
      <trkpt lat="43.42853" lon="6.39808">
        <ele>66.099998</ele>
        <time>2012-09-09T08:49:08Z</time>
      </trkpt>
      <trkpt lat="43.42853" lon="6.3982">
        <ele>67.199997</ele>
        <time>2012-09-09T08:49:17Z</time>
      </trkpt>
      <trkpt lat="43.42853" lon="6.39832">
        <ele>67.800003</ele>
        <time>2012-09-09T08:49:46Z</time>
      </trkpt>
      <trkpt lat="43.42854" lon="6.39833">
        <ele>68</ele>
        <time>2012-09-09T08:49:47Z</time>
      </trkpt>
      <trkpt lat="43.42849" lon="6.39851">
        <ele>67.5</ele>
        <time>2012-09-09T08:50:44Z</time>
      </trkpt>
      <trkpt lat="43.42851" lon="6.39861">
        <ele>67.199997</ele>
        <time>2012-09-09T08:50:54Z</time>
      </trkpt>
      <trkpt lat="43.42852" lon="6.39863">
        <ele>67.199997</ele>
        <time>2012-09-09T08:50:55Z</time>
      </trkpt>
      <trkpt lat="43.42854" lon="6.39884">
        <ele>66.699997</ele>
        <time>2012-09-09T08:51:11Z</time>
      </trkpt>
      <trkpt lat="43.42857" lon="6.39895">
        <ele>66.900002</ele>
        <time>2012-09-09T08:51:27Z</time>
      </trkpt>
      <trkpt lat="43.42861" lon="6.39906">
        <ele>67.599998</ele>
        <time>2012-09-09T08:51:44Z</time>
      </trkpt>
      <trkpt lat="43.42863" lon="6.39918">
        <ele>67.199997</ele>
        <time>2012-09-09T08:51:53Z</time>
      </trkpt>
      <trkpt lat="43.42863" lon="6.3993">
        <ele>68</ele>
        <time>2012-09-09T08:52:01Z</time>
      </trkpt>
      <trkpt lat="43.42863" lon="6.39931">
        <ele>67.800003</ele>
        <time>2012-09-09T08:52:02Z</time>
      </trkpt>
      <trkpt lat="43.4287" lon="6.3995">
        <ele>67.599998</ele>
        <time>2012-09-09T08:52:20Z</time>
      </trkpt>
      <trkpt lat="43.42878" lon="6.39946">
        <ele>66.900002</ele>
        <time>2012-09-09T08:52:29Z</time>
      </trkpt>
      <trkpt lat="43.42883" lon="6.39937">
        <ele>67</ele>
        <time>2012-09-09T08:52:40Z</time>
      </trkpt>
      <trkpt lat="43.42891" lon="6.3993">
        <ele>66.699997</ele>
        <time>2012-09-09T08:52:50Z</time>
      </trkpt>
      <trkpt lat="43.42895" lon="6.3992">
        <ele>67.099998</ele>
        <time>2012-09-09T08:53:01Z</time>
      </trkpt>
      <trkpt lat="43.42902" lon="6.39913">
        <ele>67.900002</ele>
        <time>2012-09-09T08:53:10Z</time>
      </trkpt>
      <trkpt lat="43.42903" lon="6.39912">
        <ele>68.099998</ele>
        <time>2012-09-09T08:53:11Z</time>
      </trkpt>
      <trkpt lat="43.42916" lon="6.39902">
        <ele>67.5</ele>
        <time>2012-09-09T08:53:25Z</time>
      </trkpt>
      <trkpt lat="43.42922" lon="6.39896">
        <ele>68</ele>
        <time>2012-09-09T08:53:33Z</time>
      </trkpt>
      <trkpt lat="43.42931" lon="6.39894">
        <ele>68.5</ele>
        <time>2012-09-09T08:53:39Z</time>
      </trkpt>
      <trkpt lat="43.42938" lon="6.39888">
        <ele>67.900002</ele>
        <time>2012-09-09T08:53:50Z</time>
      </trkpt>
      <trkpt lat="43.42946" lon="6.39883">
        <ele>69.699997</ele>
        <time>2012-09-09T08:53:59Z</time>
      </trkpt>
      <trkpt lat="43.42952" lon="6.39876">
        <ele>69.699997</ele>
        <time>2012-09-09T08:54:07Z</time>
      </trkpt>
      <trkpt lat="43.4296" lon="6.3987">
        <ele>69.099998</ele>
        <time>2012-09-09T08:54:13Z</time>
      </trkpt>
      <trkpt lat="43.4296" lon="6.39869">
        <ele>69.5</ele>
        <time>2012-09-09T08:54:14Z</time>
      </trkpt>
      <trkpt lat="43.42971" lon="6.39855">
        <ele>69.400002</ele>
        <time>2012-09-09T08:54:29Z</time>
      </trkpt>
      <trkpt lat="43.42978" lon="6.3985">
        <ele>70</ele>
        <time>2012-09-09T08:54:36Z</time>
      </trkpt>
      <trkpt lat="43.42986" lon="6.39847">
        <ele>69.900002</ele>
        <time>2012-09-09T08:54:42Z</time>
      </trkpt>
      <trkpt lat="43.42994" lon="6.39842">
        <ele>70.099998</ele>
        <time>2012-09-09T08:55:02Z</time>
      </trkpt>
      <trkpt lat="43.43002" lon="6.39837">
        <ele>70.900002</ele>
        <time>2012-09-09T08:55:08Z</time>
      </trkpt>
      <trkpt lat="43.43009" lon="6.39831">
        <ele>71.5</ele>
        <time>2012-09-09T08:55:18Z</time>
      </trkpt>
      <trkpt lat="43.4301" lon="6.39832">
        <ele>71.199997</ele>
        <time>2012-09-09T08:55:19Z</time>
      </trkpt>
      <trkpt lat="43.43022" lon="6.39825">
        <ele>71.400002</ele>
        <time>2012-09-09T08:55:44Z</time>
      </trkpt>
      <trkpt lat="43.4302" lon="6.39813">
        <ele>72</ele>
        <time>2012-09-09T08:56:29Z</time>
      </trkpt>
      <trkpt lat="43.43021" lon="6.39812">
        <ele>71.699997</ele>
        <time>2012-09-09T08:56:30Z</time>
      </trkpt>
      <trkpt lat="43.43032" lon="6.39796">
        <ele>71.400002</ele>
        <time>2012-09-09T08:56:45Z</time>
      </trkpt>
      <trkpt lat="43.4304" lon="6.39797">
        <ele>72.300003</ele>
        <time>2012-09-09T08:57:00Z</time>
      </trkpt>
      <trkpt lat="43.43044" lon="6.39808">
        <ele>72.199997</ele>
        <time>2012-09-09T08:57:40Z</time>
      </trkpt>
      <trkpt lat="43.43044" lon="6.39808">
        <ele>72.099998</ele>
        <time>2012-09-09T08:57:41Z</time>
      </trkpt>
      <trkpt lat="43.43032" lon="6.39795">
        <ele>71.800003</ele>
        <time>2012-09-09T08:58:17Z</time>
      </trkpt>
      <trkpt lat="43.4303" lon="6.39807">
        <ele>72.199997</ele>
        <time>2012-09-09T08:58:25Z</time>
      </trkpt>
      <trkpt lat="43.43032" lon="6.39818">
        <ele>71.900002</ele>
        <time>2012-09-09T08:58:36Z</time>
      </trkpt>
      <trkpt lat="43.43032" lon="6.39832">
        <ele>72.199997</ele>
        <time>2012-09-09T08:58:49Z</time>
      </trkpt>
      <trkpt lat="43.43032" lon="6.39832">
        <ele>72.599998</ele>
        <time>2012-09-09T08:58:50Z</time>
      </trkpt>
      <trkpt lat="43.4303" lon="6.39813">
        <ele>71</ele>
        <time>2012-09-09T08:59:22Z</time>
      </trkpt>
      <trkpt lat="43.43038" lon="6.39811">
        <ele>72.400002</ele>
        <time>2012-09-09T08:59:41Z</time>
      </trkpt>
      <trkpt lat="43.43047" lon="6.39819">
        <ele>72</ele>
        <time>2012-09-09T08:59:56Z</time>
      </trkpt>
      <trkpt lat="43.43048" lon="6.39822">
        <ele>72.400002</ele>
        <time>2012-09-09T08:59:58Z</time>
      </trkpt>
      <trkpt lat="43.43045" lon="6.39826">
        <ele>72</ele>
        <time>2012-09-09T09:00:34Z</time>
      </trkpt>
      <trkpt lat="43.43039" lon="6.39823">
        <ele>72.199997</ele>
        <time>2012-09-09T09:00:37Z</time>
      </trkpt>
      <trkpt lat="43.4303" lon="6.39824">
        <ele>71.599998</ele>
        <time>2012-09-09T09:00:41Z</time>
      </trkpt>
      <trkpt lat="43.43022" lon="6.39825">
        <ele>71.800003</ele>
        <time>2012-09-09T09:00:46Z</time>
      </trkpt>
      <trkpt lat="43.43026" lon="6.39815">
        <ele>72</ele>
        <time>2012-09-09T09:01:03Z</time>
      </trkpt>
      <trkpt lat="43.43028" lon="6.39815">
        <ele>72.099998</ele>
        <time>2012-09-09T09:01:04Z</time>
      </trkpt>
      <trkpt lat="43.43035" lon="6.3981">
        <ele>70.5</ele>
        <time>2012-09-09T09:03:57Z</time>
      </trkpt>
      <trkpt lat="43.43033" lon="6.39812">
        <ele>70.599998</ele>
        <time>2012-09-09T09:05:52Z</time>
      </trkpt>
      <trkpt lat="43.43032" lon="6.39812">
        <ele>70.400002</ele>
        <time>2012-09-09T09:05:53Z</time>
      </trkpt>
      <trkpt lat="43.43019" lon="6.39819">
        <ele>70.599998</ele>
        <time>2012-09-09T09:07:07Z</time>
      </trkpt>
      <trkpt lat="43.43017" lon="6.39819">
        <ele>70.599998</ele>
        <time>2012-09-09T09:07:08Z</time>
      </trkpt>
      <trkpt lat="43.43004" lon="6.39829">
        <ele>69.699997</ele>
        <time>2012-09-09T09:07:41Z</time>
      </trkpt>
      <trkpt lat="43.42996" lon="6.39832">
        <ele>69.099998</ele>
        <time>2012-09-09T09:07:49Z</time>
      </trkpt>
      <trkpt lat="43.42988" lon="6.39834">
        <ele>69.5</ele>
        <time>2012-09-09T09:07:55Z</time>
      </trkpt>
      <trkpt lat="43.4298" lon="6.39839">
        <ele>69.5</ele>
        <time>2012-09-09T09:08:02Z</time>
      </trkpt>
      <trkpt lat="43.42974" lon="6.39845">
        <ele>68.699997</ele>
        <time>2012-09-09T09:08:08Z</time>
      </trkpt>
      <trkpt lat="43.42973" lon="6.39846">
        <ele>68.800003</ele>
        <time>2012-09-09T09:08:09Z</time>
      </trkpt>
      <trkpt lat="43.42959" lon="6.39855">
        <ele>68.599998</ele>
        <time>2012-09-09T09:08:21Z</time>
      </trkpt>
      <trkpt lat="43.42952" lon="6.39862">
        <ele>68.300003</ele>
        <time>2012-09-09T09:08:28Z</time>
      </trkpt>
      <trkpt lat="43.42946" lon="6.39872">
        <ele>68.400002</ele>
        <time>2012-09-09T09:08:44Z</time>
      </trkpt>
      <trkpt lat="43.42939" lon="6.39879">
        <ele>67.599998</ele>
        <time>2012-09-09T09:09:02Z</time>
      </trkpt>
      <trkpt lat="43.42932" lon="6.39883">
        <ele>67.400002</ele>
        <time>2012-09-09T09:09:10Z</time>
      </trkpt>
      <trkpt lat="43.42931" lon="6.39884">
        <ele>67.300003</ele>
        <time>2012-09-09T09:09:11Z</time>
      </trkpt>
      <trkpt lat="43.42916" lon="6.39892">
        <ele>66.800003</ele>
        <time>2012-09-09T09:09:26Z</time>
      </trkpt>
      <trkpt lat="43.42908" lon="6.39898">
        <ele>66.900002</ele>
        <time>2012-09-09T09:09:33Z</time>
      </trkpt>
      <trkpt lat="43.42902" lon="6.39904">
        <ele>66.900002</ele>
        <time>2012-09-09T09:09:38Z</time>
      </trkpt>
      <trkpt lat="43.42895" lon="6.3991">
        <ele>66.400002</ele>
        <time>2012-09-09T09:09:44Z</time>
      </trkpt>
      <trkpt lat="43.42887" lon="6.39914">
        <ele>66.599998</ele>
        <time>2012-09-09T09:09:49Z</time>
      </trkpt>
      <trkpt lat="43.42882" lon="6.39919">
        <ele>66.099998</ele>
        <time>2012-09-09T09:09:53Z</time>
      </trkpt>
      <trkpt lat="43.42874" lon="6.39925">
        <ele>66.199997</ele>
        <time>2012-09-09T09:10:00Z</time>
      </trkpt>
      <trkpt lat="43.42867" lon="6.3993">
        <ele>66.199997</ele>
        <time>2012-09-09T09:10:06Z</time>
      </trkpt>
      <trkpt lat="43.42863" lon="6.39939">
        <ele>65.599998</ele>
        <time>2012-09-09T09:10:13Z</time>
      </trkpt>
      <trkpt lat="43.42862" lon="6.3994">
        <ele>65.599998</ele>
        <time>2012-09-09T09:10:14Z</time>
      </trkpt>
      <trkpt lat="43.4286" lon="6.39961">
        <ele>65.900002</ele>
        <time>2012-09-09T09:10:27Z</time>
      </trkpt>
      <trkpt lat="43.42859" lon="6.39973">
        <ele>65.300003</ele>
        <time>2012-09-09T09:10:33Z</time>
      </trkpt>
      <trkpt lat="43.42856" lon="6.39982">
        <ele>65.5</ele>
        <time>2012-09-09T09:10:38Z</time>
      </trkpt>
      <trkpt lat="43.42854" lon="6.39993">
        <ele>65.599998</ele>
        <time>2012-09-09T09:10:45Z</time>
      </trkpt>
      <trkpt lat="43.42854" lon="6.40005">
        <ele>65.099998</ele>
        <time>2012-09-09T09:10:52Z</time>
      </trkpt>
      <trkpt lat="43.42856" lon="6.40017">
        <ele>65.800003</ele>
        <time>2012-09-09T09:10:58Z</time>
      </trkpt>
      <trkpt lat="43.42859" lon="6.40028">
        <ele>66</ele>
        <time>2012-09-09T09:11:05Z</time>
      </trkpt>
      <trkpt lat="43.42859" lon="6.4004">
        <ele>65.5</ele>
        <time>2012-09-09T09:11:13Z</time>
      </trkpt>
      <trkpt lat="43.42859" lon="6.40051">
        <ele>65.5</ele>
        <time>2012-09-09T09:11:19Z</time>
      </trkpt>
      <trkpt lat="43.42859" lon="6.40052">
        <ele>65.699997</ele>
        <time>2012-09-09T09:11:20Z</time>
      </trkpt>
      <trkpt lat="43.42857" lon="6.40074">
        <ele>65.400002</ele>
        <time>2012-09-09T09:11:33Z</time>
      </trkpt>
      <trkpt lat="43.42857" lon="6.40087">
        <ele>65.400002</ele>
        <time>2012-09-09T09:11:42Z</time>
      </trkpt>
      <trkpt lat="43.42855" lon="6.40098">
        <ele>66.300003</ele>
        <time>2012-09-09T09:11:53Z</time>
      </trkpt>
      <trkpt lat="43.42851" lon="6.40109">
        <ele>65.900002</ele>
        <time>2012-09-09T09:12:00Z</time>
      </trkpt>
      <trkpt lat="43.4285" lon="6.4012">
        <ele>66.199997</ele>
        <time>2012-09-09T09:12:08Z</time>
      </trkpt>
      <trkpt lat="43.42845" lon="6.4013">
        <ele>66</ele>
        <time>2012-09-09T09:12:19Z</time>
      </trkpt>
      <trkpt lat="43.42838" lon="6.40138">
        <ele>66.5</ele>
        <time>2012-09-09T09:12:27Z</time>
      </trkpt>
      <trkpt lat="43.42838" lon="6.40139">
        <ele>66.400002</ele>
        <time>2012-09-09T09:12:28Z</time>
      </trkpt>
      <trkpt lat="43.4284" lon="6.40149">
        <ele>65.800003</ele>
        <time>2012-09-09T09:13:06Z</time>
      </trkpt>
      <trkpt lat="43.42848" lon="6.40148">
        <ele>65.900002</ele>
        <time>2012-09-09T09:13:18Z</time>
      </trkpt>
      <trkpt lat="43.42857" lon="6.40149">
        <ele>66.099998</ele>
        <time>2012-09-09T09:13:22Z</time>
      </trkpt>
      <trkpt lat="43.42848" lon="6.40151">
        <ele>65.5</ele>
        <time>2012-09-09T09:13:40Z</time>
      </trkpt>
      <trkpt lat="43.42847" lon="6.40152">
        <ele>65.5</ele>
        <time>2012-09-09T09:13:41Z</time>
      </trkpt>
      <trkpt lat="43.42832" lon="6.40156">
        <ele>66.099998</ele>
        <time>2012-09-09T09:13:50Z</time>
      </trkpt>
      <trkpt lat="43.42825" lon="6.40164">
        <ele>66.199997</ele>
        <time>2012-09-09T09:13:58Z</time>
      </trkpt>
      <trkpt lat="43.42821" lon="6.40174">
        <ele>66.099998</ele>
        <time>2012-09-09T09:14:06Z</time>
      </trkpt>
      <trkpt lat="43.4282" lon="6.40186">
        <ele>65.5</ele>
        <time>2012-09-09T09:14:14Z</time>
      </trkpt>
      <trkpt lat="43.4282" lon="6.40198">
        <ele>64.699997</ele>
        <time>2012-09-09T09:14:23Z</time>
      </trkpt>
      <trkpt lat="43.42822" lon="6.4021">
        <ele>64.900002</ele>
        <time>2012-09-09T09:14:31Z</time>
      </trkpt>
      <trkpt lat="43.42825" lon="6.40219">
        <ele>64.800003</ele>
        <time>2012-09-09T09:14:38Z</time>
      </trkpt>
      <trkpt lat="43.42828" lon="6.4023">
        <ele>64.400002</ele>
        <time>2012-09-09T09:14:44Z</time>
      </trkpt>
      <trkpt lat="43.42828" lon="6.40232">
        <ele>64.5</ele>
        <time>2012-09-09T09:14:45Z</time>
      </trkpt>
      <trkpt lat="43.42823" lon="6.40252">
        <ele>64.900002</ele>
        <time>2012-09-09T09:14:58Z</time>
      </trkpt>
      <trkpt lat="43.42825" lon="6.40263">
        <ele>65.300003</ele>
        <time>2012-09-09T09:15:05Z</time>
      </trkpt>
      <trkpt lat="43.42826" lon="6.40274">
        <ele>65.699997</ele>
        <time>2012-09-09T09:15:13Z</time>
      </trkpt>
      <trkpt lat="43.42826" lon="6.40285">
        <ele>66</ele>
        <time>2012-09-09T09:15:21Z</time>
      </trkpt>
      <trkpt lat="43.42824" lon="6.40297">
        <ele>65.900002</ele>
        <time>2012-09-09T09:15:28Z</time>
      </trkpt>
      <trkpt lat="43.42825" lon="6.40309">
        <ele>65.599998</ele>
        <time>2012-09-09T09:15:35Z</time>
      </trkpt>
      <trkpt lat="43.42825" lon="6.40321">
        <ele>65.5</ele>
        <time>2012-09-09T09:15:40Z</time>
      </trkpt>
      <trkpt lat="43.42828" lon="6.40331">
        <ele>65.400002</ele>
        <time>2012-09-09T09:15:45Z</time>
      </trkpt>
      <trkpt lat="43.42828" lon="6.40333">
        <ele>65.5</ele>
        <time>2012-09-09T09:15:46Z</time>
      </trkpt>
      <trkpt lat="43.42832" lon="6.40354">
        <ele>66</ele>
        <time>2012-09-09T09:16:01Z</time>
      </trkpt>
      <trkpt lat="43.42834" lon="6.40365">
        <ele>66.099998</ele>
        <time>2012-09-09T09:16:09Z</time>
      </trkpt>
      <trkpt lat="43.42837" lon="6.40376">
        <ele>66.300003</ele>
        <time>2012-09-09T09:16:17Z</time>
      </trkpt>
      <trkpt lat="43.42838" lon="6.40388">
        <ele>66.099998</ele>
        <time>2012-09-09T09:16:25Z</time>
      </trkpt>
      <trkpt lat="43.42841" lon="6.40399">
        <ele>66.5</ele>
        <time>2012-09-09T09:16:31Z</time>
      </trkpt>
      <trkpt lat="43.4284" lon="6.4041">
        <ele>66.300003</ele>
        <time>2012-09-09T09:16:37Z</time>
      </trkpt>
      <trkpt lat="43.42844" lon="6.4042">
        <ele>66.599998</ele>
        <time>2012-09-09T09:16:43Z</time>
      </trkpt>
      <trkpt lat="43.42847" lon="6.4043">
        <ele>66.699997</ele>
        <time>2012-09-09T09:16:48Z</time>
      </trkpt>
      <trkpt lat="43.42848" lon="6.40432">
        <ele>66.699997</ele>
        <time>2012-09-09T09:16:49Z</time>
      </trkpt>
      <trkpt lat="43.42848" lon="6.40451">
        <ele>66.699997</ele>
        <time>2012-09-09T09:17:00Z</time>
      </trkpt>
      <trkpt lat="43.42851" lon="6.40461">
        <ele>67</ele>
        <time>2012-09-09T09:17:06Z</time>
      </trkpt>
      <trkpt lat="43.42855" lon="6.40471">
        <ele>66.900002</ele>
        <time>2012-09-09T09:17:13Z</time>
      </trkpt>
      <trkpt lat="43.4286" lon="6.40482">
        <ele>67.599998</ele>
        <time>2012-09-09T09:17:20Z</time>
      </trkpt>
      <trkpt lat="43.42865" lon="6.40491">
        <ele>67.800003</ele>
        <time>2012-09-09T09:17:29Z</time>
      </trkpt>
      <trkpt lat="43.42868" lon="6.40502">
        <ele>67.800003</ele>
        <time>2012-09-09T09:17:35Z</time>
      </trkpt>
      <trkpt lat="43.42872" lon="6.40513">
        <ele>68.599998</ele>
        <time>2012-09-09T09:17:43Z</time>
      </trkpt>
      <trkpt lat="43.42873" lon="6.40523">
        <ele>68.900002</ele>
        <time>2012-09-09T09:17:49Z</time>
      </trkpt>
      <trkpt lat="43.42873" lon="6.40526">
        <ele>68.900002</ele>
        <time>2012-09-09T09:17:50Z</time>
      </trkpt>
      <trkpt lat="43.42877" lon="6.40545">
        <ele>68.699997</ele>
        <time>2012-09-09T09:18:03Z</time>
      </trkpt>
      <trkpt lat="43.42881" lon="6.40555">
        <ele>69</ele>
        <time>2012-09-09T09:18:10Z</time>
      </trkpt>
      <trkpt lat="43.42887" lon="6.40564">
        <ele>69.400002</ele>
        <time>2012-09-09T09:18:18Z</time>
      </trkpt>
      <trkpt lat="43.42892" lon="6.40574">
        <ele>70</ele>
        <time>2012-09-09T09:18:26Z</time>
      </trkpt>
      <trkpt lat="43.42897" lon="6.40583">
        <ele>70.5</ele>
        <time>2012-09-09T09:18:33Z</time>
      </trkpt>
      <trkpt lat="43.42904" lon="6.40589">
        <ele>70.900002</ele>
        <time>2012-09-09T09:18:38Z</time>
      </trkpt>
      <trkpt lat="43.42907" lon="6.406">
        <ele>71.099998</ele>
        <time>2012-09-09T09:18:45Z</time>
      </trkpt>
      <trkpt lat="43.42915" lon="6.40604">
        <ele>71.199997</ele>
        <time>2012-09-09T09:18:52Z</time>
      </trkpt>
      <trkpt lat="43.42916" lon="6.40605">
        <ele>71</ele>
        <time>2012-09-09T09:18:53Z</time>
      </trkpt>
      <trkpt lat="43.42929" lon="6.40618">
        <ele>71.599998</ele>
        <time>2012-09-09T09:19:07Z</time>
      </trkpt>
      <trkpt lat="43.42935" lon="6.40625">
        <ele>71.800003</ele>
        <time>2012-09-09T09:19:14Z</time>
      </trkpt>
      <trkpt lat="43.42942" lon="6.40631">
        <ele>72</ele>
        <time>2012-09-09T09:19:22Z</time>
      </trkpt>
      <trkpt lat="43.42951" lon="6.40633">
        <ele>72.099998</ele>
        <time>2012-09-09T09:19:30Z</time>
      </trkpt>
      <trkpt lat="43.42959" lon="6.40633">
        <ele>72.5</ele>
        <time>2012-09-09T09:19:38Z</time>
      </trkpt>
      <trkpt lat="43.42968" lon="6.40633">
        <ele>72.599998</ele>
        <time>2012-09-09T09:19:45Z</time>
      </trkpt>
      <trkpt lat="43.42977" lon="6.40632">
        <ele>73.099998</ele>
        <time>2012-09-09T09:19:57Z</time>
      </trkpt>
      <trkpt lat="43.42978" lon="6.40632">
        <ele>73.099998</ele>
        <time>2012-09-09T09:19:58Z</time>
      </trkpt>
      <trkpt lat="43.42992" lon="6.40629">
        <ele>74.5</ele>
        <time>2012-09-09T09:20:16Z</time>
      </trkpt>
      <trkpt lat="43.43001" lon="6.40627">
        <ele>74.300003</ele>
        <time>2012-09-09T09:20:23Z</time>
      </trkpt>
      <trkpt lat="43.43009" lon="6.40625">
        <ele>74.199997</ele>
        <time>2012-09-09T09:20:30Z</time>
      </trkpt>
      <trkpt lat="43.43017" lon="6.40622">
        <ele>74.400002</ele>
        <time>2012-09-09T09:20:39Z</time>
      </trkpt>
      <trkpt lat="43.43026" lon="6.40621">
        <ele>75.199997</ele>
        <time>2012-09-09T09:20:49Z</time>
      </trkpt>
      <trkpt lat="43.43034" lon="6.40617">
        <ele>75.199997</ele>
        <time>2012-09-09T09:21:04Z</time>
      </trkpt>
      <trkpt lat="43.43035" lon="6.40616">
        <ele>75.300003</ele>
        <time>2012-09-09T09:21:05Z</time>
      </trkpt>
      <trkpt lat="43.43052" lon="6.40611">
        <ele>76.599998</ele>
        <time>2012-09-09T09:22:12Z</time>
      </trkpt>
      <trkpt lat="43.43052" lon="6.40611">
        <ele>76.599998</ele>
        <time>2012-09-09T09:22:13Z</time>
      </trkpt>
      <trkpt lat="43.43068" lon="6.40616">
        <ele>76.800003</ele>
        <time>2012-09-09T09:22:28Z</time>
      </trkpt>
      <trkpt lat="43.43077" lon="6.40616">
        <ele>76.699997</ele>
        <time>2012-09-09T09:22:34Z</time>
      </trkpt>
      <trkpt lat="43.43085" lon="6.40617">
        <ele>76.400002</ele>
        <time>2012-09-09T09:22:40Z</time>
      </trkpt>
      <trkpt lat="43.43093" lon="6.40618">
        <ele>76.599998</ele>
        <time>2012-09-09T09:22:48Z</time>
      </trkpt>
      <trkpt lat="43.431" lon="6.40625">
        <ele>76.5</ele>
        <time>2012-09-09T09:22:55Z</time>
      </trkpt>
      <trkpt lat="43.43107" lon="6.40632">
        <ele>76.300003</ele>
        <time>2012-09-09T09:23:01Z</time>
      </trkpt>
      <trkpt lat="43.43115" lon="6.40637">
        <ele>76.5</ele>
        <time>2012-09-09T09:23:10Z</time>
      </trkpt>
      <trkpt lat="43.43119" lon="6.40647">
        <ele>76.300003</ele>
        <time>2012-09-09T09:23:16Z</time>
      </trkpt>
      <trkpt lat="43.43119" lon="6.40649">
        <ele>76.5</ele>
        <time>2012-09-09T09:23:17Z</time>
      </trkpt>
      <trkpt lat="43.43133" lon="6.4066">
        <ele>76.099998</ele>
        <time>2012-09-09T09:23:30Z</time>
      </trkpt>
      <trkpt lat="43.43138" lon="6.4067">
        <ele>76.699997</ele>
        <time>2012-09-09T09:23:41Z</time>
      </trkpt>
      <trkpt lat="43.43143" lon="6.40678">
        <ele>76</ele>
        <time>2012-09-09T09:23:48Z</time>
      </trkpt>
      <trkpt lat="43.43148" lon="6.40687">
        <ele>76.199997</ele>
        <time>2012-09-09T09:23:55Z</time>
      </trkpt>
      <trkpt lat="43.43151" lon="6.40698">
        <ele>76.199997</ele>
        <time>2012-09-09T09:24:01Z</time>
      </trkpt>
      <trkpt lat="43.43158" lon="6.407">
        <ele>76.300003</ele>
        <time>2012-09-09T09:24:09Z</time>
      </trkpt>
      <trkpt lat="43.43166" lon="6.40693">
        <ele>76.300003</ele>
        <time>2012-09-09T09:24:17Z</time>
      </trkpt>
      <trkpt lat="43.43166" lon="6.40692">
        <ele>76.300003</ele>
        <time>2012-09-09T09:24:18Z</time>
      </trkpt>
      <trkpt lat="43.43177" lon="6.40709">
        <ele>75.699997</ele>
        <time>2012-09-09T09:24:56Z</time>
      </trkpt>
      <trkpt lat="43.43179" lon="6.40699">
        <ele>75.699997</ele>
        <time>2012-09-09T09:25:23Z</time>
      </trkpt>
      <trkpt lat="43.4318" lon="6.40697">
        <ele>75.800003</ele>
        <time>2012-09-09T09:25:24Z</time>
      </trkpt>
      <trkpt lat="43.43189" lon="6.40699">
        <ele>75.599998</ele>
        <time>2012-09-09T09:26:24Z</time>
      </trkpt>
      <trkpt lat="43.43189" lon="6.40699">
        <ele>75.5</ele>
        <time>2012-09-09T09:26:25Z</time>
      </trkpt>
      <trkpt lat="43.43197" lon="6.40703">
        <ele>76.199997</ele>
        <time>2012-09-09T09:28:03Z</time>
      </trkpt>
      <trkpt lat="43.43196" lon="6.40704">
        <ele>76.199997</ele>
        <time>2012-09-09T09:28:04Z</time>
      </trkpt>
      <trkpt lat="43.43181" lon="6.40712">
        <ele>76.400002</ele>
        <time>2012-09-09T09:28:27Z</time>
      </trkpt>
      <trkpt lat="43.43174" lon="6.40718">
        <ele>76.300003</ele>
        <time>2012-09-09T09:28:35Z</time>
      </trkpt>
      <trkpt lat="43.43165" lon="6.40717">
        <ele>75.800003</ele>
        <time>2012-09-09T09:28:53Z</time>
      </trkpt>
      <trkpt lat="43.43158" lon="6.40711">
        <ele>76.199997</ele>
        <time>2012-09-09T09:29:00Z</time>
      </trkpt>
      <trkpt lat="43.4315" lon="6.40708">
        <ele>76.199997</ele>
        <time>2012-09-09T09:29:17Z</time>
      </trkpt>
      <trkpt lat="43.43149" lon="6.40708">
        <ele>76.099998</ele>
        <time>2012-09-09T09:29:18Z</time>
      </trkpt>
      <trkpt lat="43.43133" lon="6.4071">
        <ele>76.5</ele>
        <time>2012-09-09T09:29:31Z</time>
      </trkpt>
      <trkpt lat="43.43125" lon="6.40712">
        <ele>76.5</ele>
        <time>2012-09-09T09:29:37Z</time>
      </trkpt>
      <trkpt lat="43.43118" lon="6.40708">
        <ele>76.599998</ele>
        <time>2012-09-09T09:29:50Z</time>
      </trkpt>
      <trkpt lat="43.4311" lon="6.40706">
        <ele>76</ele>
        <time>2012-09-09T09:29:58Z</time>
      </trkpt>
      <trkpt lat="43.43101" lon="6.40704">
        <ele>76.199997</ele>
        <time>2012-09-09T09:30:06Z</time>
      </trkpt>
      <trkpt lat="43.43094" lon="6.40702">
        <ele>76.099998</ele>
        <time>2012-09-09T09:30:13Z</time>
      </trkpt>
      <trkpt lat="43.43086" lon="6.40705">
        <ele>76.400002</ele>
        <time>2012-09-09T09:30:18Z</time>
      </trkpt>
      <trkpt lat="43.43084" lon="6.40705">
        <ele>76.599998</ele>
        <time>2012-09-09T09:30:19Z</time>
      </trkpt>
      <trkpt lat="43.43069" lon="6.40706">
        <ele>77.099998</ele>
        <time>2012-09-09T09:30:31Z</time>
      </trkpt>
      <trkpt lat="43.43061" lon="6.40709">
        <ele>76.900002</ele>
        <time>2012-09-09T09:30:36Z</time>
      </trkpt>
      <trkpt lat="43.43053" lon="6.40712">
        <ele>76.599998</ele>
        <time>2012-09-09T09:30:41Z</time>
      </trkpt>
      <trkpt lat="43.43046" lon="6.40713">
        <ele>77</ele>
        <time>2012-09-09T09:30:46Z</time>
      </trkpt>
      <trkpt lat="43.43038" lon="6.40716">
        <ele>76.699997</ele>
        <time>2012-09-09T09:30:51Z</time>
      </trkpt>
      <trkpt lat="43.43031" lon="6.40723">
        <ele>76.699997</ele>
        <time>2012-09-09T09:30:57Z</time>
      </trkpt>
      <trkpt lat="43.43026" lon="6.40733">
        <ele>76.5</ele>
        <time>2012-09-09T09:31:06Z</time>
      </trkpt>
      <trkpt lat="43.43019" lon="6.4074">
        <ele>76</ele>
        <time>2012-09-09T09:32:05Z</time>
      </trkpt>
      <trkpt lat="43.43019" lon="6.40741">
        <ele>76.199997</ele>
        <time>2012-09-09T09:32:06Z</time>
      </trkpt>
      <trkpt lat="43.43005" lon="6.40751">
        <ele>75.900002</ele>
        <time>2012-09-09T09:32:18Z</time>
      </trkpt>
      <trkpt lat="43.42997" lon="6.40755">
        <ele>76</ele>
        <time>2012-09-09T09:32:24Z</time>
      </trkpt>
      <trkpt lat="43.4299" lon="6.40763">
        <ele>75.800003</ele>
        <time>2012-09-09T09:32:31Z</time>
      </trkpt>
      <trkpt lat="43.42986" lon="6.40774">
        <ele>75.400002</ele>
        <time>2012-09-09T09:32:39Z</time>
      </trkpt>
      <trkpt lat="43.42982" lon="6.40785">
        <ele>75.5</ele>
        <time>2012-09-09T09:32:50Z</time>
      </trkpt>
      <trkpt lat="43.42976" lon="6.40792">
        <ele>75.099998</ele>
        <time>2012-09-09T09:32:57Z</time>
      </trkpt>
      <trkpt lat="43.4297" lon="6.408">
        <ele>75</ele>
        <time>2012-09-09T09:33:03Z</time>
      </trkpt>
      <trkpt lat="43.4297" lon="6.40811">
        <ele>76.099998</ele>
        <time>2012-09-09T09:33:18Z</time>
      </trkpt>
      <trkpt lat="43.4297" lon="6.40812">
        <ele>76.300003</ele>
        <time>2012-09-09T09:33:19Z</time>
      </trkpt>
      <trkpt lat="43.42964" lon="6.40833">
        <ele>77.300003</ele>
        <time>2012-09-09T09:33:33Z</time>
      </trkpt>
      <trkpt lat="43.42958" lon="6.40841">
        <ele>76.800003</ele>
        <time>2012-09-09T09:33:40Z</time>
      </trkpt>
      <trkpt lat="43.42951" lon="6.40849">
        <ele>76.5</ele>
        <time>2012-09-09T09:33:50Z</time>
      </trkpt>
      <trkpt lat="43.42945" lon="6.40856">
        <ele>76.599998</ele>
        <time>2012-09-09T09:34:02Z</time>
      </trkpt>
      <trkpt lat="43.42941" lon="6.40867">
        <ele>77</ele>
        <time>2012-09-09T09:34:12Z</time>
      </trkpt>
      <trkpt lat="43.42937" lon="6.40877">
        <ele>76.5</ele>
        <time>2012-09-09T09:34:21Z</time>
      </trkpt>
      <trkpt lat="43.42936" lon="6.40879">
        <ele>76.5</ele>
        <time>2012-09-09T09:34:22Z</time>
      </trkpt>
      <trkpt lat="43.42929" lon="6.40899">
        <ele>76.900002</ele>
        <time>2012-09-09T09:34:33Z</time>
      </trkpt>
      <trkpt lat="43.42927" lon="6.40909">
        <ele>76.800003</ele>
        <time>2012-09-09T09:34:41Z</time>
      </trkpt>
      <trkpt lat="43.42925" lon="6.40921">
        <ele>76.5</ele>
        <time>2012-09-09T09:34:49Z</time>
      </trkpt>
      <trkpt lat="43.4292" lon="6.40931">
        <ele>76.400002</ele>
        <time>2012-09-09T09:34:58Z</time>
      </trkpt>
      <trkpt lat="43.42917" lon="6.40942">
        <ele>76.300003</ele>
        <time>2012-09-09T09:35:05Z</time>
      </trkpt>
      <trkpt lat="43.42915" lon="6.40952">
        <ele>75.900002</ele>
        <time>2012-09-09T09:35:14Z</time>
      </trkpt>
      <trkpt lat="43.42913" lon="6.40962">
        <ele>76</ele>
        <time>2012-09-09T09:35:19Z</time>
      </trkpt>
      <trkpt lat="43.42912" lon="6.40974">
        <ele>75.900002</ele>
        <time>2012-09-09T09:35:28Z</time>
      </trkpt>
      <trkpt lat="43.42912" lon="6.40975">
        <ele>75.699997</ele>
        <time>2012-09-09T09:35:29Z</time>
      </trkpt>
      <trkpt lat="43.42905" lon="6.40993">
        <ele>76.099998</ele>
        <time>2012-09-09T09:35:41Z</time>
      </trkpt>
      <trkpt lat="43.42902" lon="6.41003">
        <ele>76.099998</ele>
        <time>2012-09-09T09:35:48Z</time>
      </trkpt>
      <trkpt lat="43.42898" lon="6.41013">
        <ele>75.900002</ele>
        <time>2012-09-09T09:35:58Z</time>
      </trkpt>
      <trkpt lat="43.42894" lon="6.41022">
        <ele>75.900002</ele>
        <time>2012-09-09T09:36:05Z</time>
      </trkpt>
      <trkpt lat="43.42894" lon="6.41035">
        <ele>75.900002</ele>
        <time>2012-09-09T09:36:13Z</time>
      </trkpt>
      <trkpt lat="43.42888" lon="6.41043">
        <ele>75.900002</ele>
        <time>2012-09-09T09:36:21Z</time>
      </trkpt>
      <trkpt lat="43.42887" lon="6.41055">
        <ele>76.5</ele>
        <time>2012-09-09T09:36:29Z</time>
      </trkpt>
      <trkpt lat="43.42887" lon="6.41056">
        <ele>76.5</ele>
        <time>2012-09-09T09:36:30Z</time>
      </trkpt>
      <trkpt lat="43.42881" lon="6.41077">
        <ele>76.400002</ele>
        <time>2012-09-09T09:36:44Z</time>
      </trkpt>
      <trkpt lat="43.4288" lon="6.41088">
        <ele>75.699997</ele>
        <time>2012-09-09T09:36:55Z</time>
      </trkpt>
      <trkpt lat="43.42876" lon="6.41099">
        <ele>76</ele>
        <time>2012-09-09T09:37:01Z</time>
      </trkpt>
      <trkpt lat="43.42872" lon="6.41108">
        <ele>76.099998</ele>
        <time>2012-09-09T09:37:07Z</time>
      </trkpt>
      <trkpt lat="43.42869" lon="6.4112">
        <ele>75.699997</ele>
        <time>2012-09-09T09:37:16Z</time>
      </trkpt>
      <trkpt lat="43.42865" lon="6.4113">
        <ele>75.900002</ele>
        <time>2012-09-09T09:37:23Z</time>
      </trkpt>
      <trkpt lat="43.4286" lon="6.41139">
        <ele>75.900002</ele>
        <time>2012-09-09T09:37:30Z</time>
      </trkpt>
      <trkpt lat="43.4286" lon="6.4114">
        <ele>75.699997</ele>
        <time>2012-09-09T09:37:31Z</time>
      </trkpt>
      <trkpt lat="43.42852" lon="6.41159">
        <ele>75.800003</ele>
        <time>2012-09-09T09:37:45Z</time>
      </trkpt>
      <trkpt lat="43.42848" lon="6.4117">
        <ele>76</ele>
        <time>2012-09-09T09:37:53Z</time>
      </trkpt>
      <trkpt lat="43.42845" lon="6.41181">
        <ele>76</ele>
        <time>2012-09-09T09:38:01Z</time>
      </trkpt>
      <trkpt lat="43.42839" lon="6.41189">
        <ele>76.099998</ele>
        <time>2012-09-09T09:38:08Z</time>
      </trkpt>
      <trkpt lat="43.42834" lon="6.41198">
        <ele>76.300003</ele>
        <time>2012-09-09T09:38:18Z</time>
      </trkpt>
      <trkpt lat="43.42832" lon="6.41209">
        <ele>76.400002</ele>
        <time>2012-09-09T09:38:25Z</time>
      </trkpt>
      <trkpt lat="43.4283" lon="6.4122">
        <ele>76.300003</ele>
        <time>2012-09-09T09:38:33Z</time>
      </trkpt>
      <trkpt lat="43.4283" lon="6.41221">
        <ele>76.199997</ele>
        <time>2012-09-09T09:38:34Z</time>
      </trkpt>
      <trkpt lat="43.42826" lon="6.41242">
        <ele>76.099998</ele>
        <time>2012-09-09T09:38:49Z</time>
      </trkpt>
      <trkpt lat="43.42824" lon="6.41254">
        <ele>76.400002</ele>
        <time>2012-09-09T09:38:58Z</time>
      </trkpt>
      <trkpt lat="43.42819" lon="6.41264">
        <ele>76.300003</ele>
        <time>2012-09-09T09:39:11Z</time>
      </trkpt>
      <trkpt lat="43.42818" lon="6.41275">
        <ele>76.400002</ele>
        <time>2012-09-09T09:39:19Z</time>
      </trkpt>
      <trkpt lat="43.42818" lon="6.41287">
        <ele>76.199997</ele>
        <time>2012-09-09T09:39:28Z</time>
      </trkpt>
      <trkpt lat="43.42815" lon="6.41299">
        <ele>76.599998</ele>
        <time>2012-09-09T09:39:39Z</time>
      </trkpt>
      <trkpt lat="43.42815" lon="6.413">
        <ele>76.599998</ele>
        <time>2012-09-09T09:39:40Z</time>
      </trkpt>
      <trkpt lat="43.42813" lon="6.41321">
        <ele>76.300003</ele>
        <time>2012-09-09T09:39:52Z</time>
      </trkpt>
      <trkpt lat="43.42816" lon="6.41331">
        <ele>76.599998</ele>
        <time>2012-09-09T09:39:59Z</time>
      </trkpt>
      <trkpt lat="43.42817" lon="6.41342">
        <ele>76.099998</ele>
        <time>2012-09-09T09:40:05Z</time>
      </trkpt>
      <trkpt lat="43.42821" lon="6.41352">
        <ele>75.699997</ele>
        <time>2012-09-09T09:40:11Z</time>
      </trkpt>
      <trkpt lat="43.42823" lon="6.41362">
        <ele>75.900002</ele>
        <time>2012-09-09T09:40:18Z</time>
      </trkpt>
      <trkpt lat="43.42826" lon="6.41374">
        <ele>76.099998</ele>
        <time>2012-09-09T09:40:23Z</time>
      </trkpt>
      <trkpt lat="43.42826" lon="6.41385">
        <ele>75.699997</ele>
        <time>2012-09-09T09:40:31Z</time>
      </trkpt>
      <trkpt lat="43.42826" lon="6.41396">
        <ele>75.599998</ele>
        <time>2012-09-09T09:40:38Z</time>
      </trkpt>
      <trkpt lat="43.42827" lon="6.41408">
        <ele>75.900002</ele>
        <time>2012-09-09T09:40:44Z</time>
      </trkpt>
      <trkpt lat="43.42827" lon="6.41409">
        <ele>76</ele>
        <time>2012-09-09T09:40:45Z</time>
      </trkpt>
      <trkpt lat="43.42823" lon="6.41431">
        <ele>76.099998</ele>
        <time>2012-09-09T09:41:02Z</time>
      </trkpt>
      <trkpt lat="43.42827" lon="6.41441">
        <ele>75.900002</ele>
        <time>2012-09-09T09:41:08Z</time>
      </trkpt>
      <trkpt lat="43.42827" lon="6.41453">
        <ele>76</ele>
        <time>2012-09-09T09:41:15Z</time>
      </trkpt>
      <trkpt lat="43.42831" lon="6.41463">
        <ele>76.099998</ele>
        <time>2012-09-09T09:41:25Z</time>
      </trkpt>
      <trkpt lat="43.42838" lon="6.4147">
        <ele>76</ele>
        <time>2012-09-09T09:41:35Z</time>
      </trkpt>
      <trkpt lat="43.42835" lon="6.41481">
        <ele>75.400002</ele>
        <time>2012-09-09T09:42:08Z</time>
      </trkpt>
      <trkpt lat="43.42836" lon="6.41483">
        <ele>75.5</ele>
        <time>2012-09-09T09:42:09Z</time>
      </trkpt>
      <trkpt lat="43.42835" lon="6.41504">
        <ele>76</ele>
        <time>2012-09-09T09:42:23Z</time>
      </trkpt>
      <trkpt lat="43.42834" lon="6.41515">
        <ele>76.199997</ele>
        <time>2012-09-09T09:42:31Z</time>
      </trkpt>
      <trkpt lat="43.42832" lon="6.41526">
        <ele>76.199997</ele>
        <time>2012-09-09T09:42:38Z</time>
      </trkpt>
      <trkpt lat="43.4283" lon="6.41538">
        <ele>76</ele>
        <time>2012-09-09T09:42:46Z</time>
      </trkpt>
      <trkpt lat="43.42828" lon="6.4155">
        <ele>76.199997</ele>
        <time>2012-09-09T09:42:54Z</time>
      </trkpt>
      <trkpt lat="43.42829" lon="6.4156">
        <ele>75.800003</ele>
        <time>2012-09-09T09:43:02Z</time>
      </trkpt>
      <trkpt lat="43.42829" lon="6.41572">
        <ele>75.599998</ele>
        <time>2012-09-09T09:43:09Z</time>
      </trkpt>
      <trkpt lat="43.42829" lon="6.41574">
        <ele>75.699997</ele>
        <time>2012-09-09T09:43:10Z</time>
      </trkpt>
      <trkpt lat="43.42837" lon="6.41593">
        <ele>76.199997</ele>
        <time>2012-09-09T09:43:28Z</time>
      </trkpt>
      <trkpt lat="43.42837" lon="6.41605">
        <ele>75.900002</ele>
        <time>2012-09-09T09:43:39Z</time>
      </trkpt>
      <trkpt lat="43.42841" lon="6.41615">
        <ele>75.599998</ele>
        <time>2012-09-09T09:43:52Z</time>
      </trkpt>
      <trkpt lat="43.42846" lon="6.41625">
        <ele>76.099998</ele>
        <time>2012-09-09T09:44:00Z</time>
      </trkpt>
      <trkpt lat="43.42849" lon="6.41636">
        <ele>75.699997</ele>
        <time>2012-09-09T09:44:10Z</time>
      </trkpt>
      <trkpt lat="43.4285" lon="6.41637">
        <ele>75.699997</ele>
        <time>2012-09-09T09:44:11Z</time>
      </trkpt>
      <trkpt lat="43.42859" lon="6.41656">
        <ele>74.300003</ele>
        <time>2012-09-09T09:44:30Z</time>
      </trkpt>
      <trkpt lat="43.42863" lon="6.41666">
        <ele>74.400002</ele>
        <time>2012-09-09T09:44:38Z</time>
      </trkpt>
      <trkpt lat="43.42867" lon="6.41677">
        <ele>73.599998</ele>
        <time>2012-09-09T09:44:47Z</time>
      </trkpt>
      <trkpt lat="43.42874" lon="6.41684">
        <ele>73.900002</ele>
        <time>2012-09-09T09:44:54Z</time>
      </trkpt>
      <trkpt lat="43.42879" lon="6.41693">
        <ele>73.800003</ele>
        <time>2012-09-09T09:45:00Z</time>
      </trkpt>
      <trkpt lat="43.42885" lon="6.41702">
        <ele>73.5</ele>
        <time>2012-09-09T09:45:07Z</time>
      </trkpt>
      <trkpt lat="43.42893" lon="6.41707">
        <ele>74.099998</ele>
        <time>2012-09-09T09:46:02Z</time>
      </trkpt>
      <trkpt lat="43.42894" lon="6.41707">
        <ele>74.300003</ele>
        <time>2012-09-09T09:46:03Z</time>
      </trkpt>
      <trkpt lat="43.42908" lon="6.41717">
        <ele>74.699997</ele>
        <time>2012-09-09T09:46:19Z</time>
      </trkpt>
      <trkpt lat="43.42916" lon="6.41716">
        <ele>75.300003</ele>
        <time>2012-09-09T09:46:30Z</time>
      </trkpt>
      <trkpt lat="43.42924" lon="6.41712">
        <ele>75.300003</ele>
        <time>2012-09-09T09:46:40Z</time>
      </trkpt>
      <trkpt lat="43.42933" lon="6.4171">
        <ele>75.599998</ele>
        <time>2012-09-09T09:46:51Z</time>
      </trkpt>
      <trkpt lat="43.42937" lon="6.4172">
        <ele>75.300003</ele>
        <time>2012-09-09T09:46:58Z</time>
      </trkpt>
      <trkpt lat="43.4293" lon="6.41714">
        <ele>74.400002</ele>
        <time>2012-09-09T09:47:37Z</time>
      </trkpt>
      <trkpt lat="43.42929" lon="6.41713">
        <ele>74.199997</ele>
        <time>2012-09-09T09:47:38Z</time>
      </trkpt>
      <trkpt lat="43.42922" lon="6.41725">
        <ele>73.800003</ele>
        <time>2012-09-09T09:47:54Z</time>
      </trkpt>
      <trkpt lat="43.42928" lon="6.41733">
        <ele>74.599998</ele>
        <time>2012-09-09T09:48:03Z</time>
      </trkpt>
      <trkpt lat="43.42935" lon="6.41739">
        <ele>73.699997</ele>
        <time>2012-09-09T09:48:08Z</time>
      </trkpt>
      <trkpt lat="43.42941" lon="6.41747">
        <ele>73</ele>
        <time>2012-09-09T09:48:15Z</time>
      </trkpt>
      <trkpt lat="43.42946" lon="6.41755">
        <ele>72.800003</ele>
        <time>2012-09-09T09:48:23Z</time>
      </trkpt>
      <trkpt lat="43.42951" lon="6.41764">
        <ele>73.5</ele>
        <time>2012-09-09T09:48:29Z</time>
      </trkpt>
      <trkpt lat="43.42958" lon="6.4177">
        <ele>73.400002</ele>
        <time>2012-09-09T09:48:36Z</time>
      </trkpt>
      <trkpt lat="43.42965" lon="6.41779">
        <ele>73</ele>
        <time>2012-09-09T09:48:43Z</time>
      </trkpt>
      <trkpt lat="43.42965" lon="6.4178">
        <ele>72.900002</ele>
        <time>2012-09-09T09:48:44Z</time>
      </trkpt>
      <trkpt lat="43.42977" lon="6.41794">
        <ele>73.599998</ele>
        <time>2012-09-09T09:48:55Z</time>
      </trkpt>
      <trkpt lat="43.42984" lon="6.418">
        <ele>73.300003</ele>
        <time>2012-09-09T09:49:03Z</time>
      </trkpt>
      <trkpt lat="43.4299" lon="6.41807">
        <ele>73.099998</ele>
        <time>2012-09-09T09:49:09Z</time>
      </trkpt>
      <trkpt lat="43.42996" lon="6.41814">
        <ele>73.199997</ele>
        <time>2012-09-09T09:49:14Z</time>
      </trkpt>
      <trkpt lat="43.43001" lon="6.41824">
        <ele>73.099998</ele>
        <time>2012-09-09T09:49:22Z</time>
      </trkpt>
      <trkpt lat="43.43007" lon="6.41831">
        <ele>73.400002</ele>
        <time>2012-09-09T09:49:29Z</time>
      </trkpt>
      <trkpt lat="43.43013" lon="6.41839">
        <ele>73.599998</ele>
        <time>2012-09-09T09:49:35Z</time>
      </trkpt>
      <trkpt lat="43.43018" lon="6.41846">
        <ele>73.800003</ele>
        <time>2012-09-09T09:49:41Z</time>
      </trkpt>
      <trkpt lat="43.43024" lon="6.41856">
        <ele>73.599998</ele>
        <time>2012-09-09T09:49:47Z</time>
      </trkpt>
      <trkpt lat="43.43024" lon="6.41857">
        <ele>73.5</ele>
        <time>2012-09-09T09:49:48Z</time>
      </trkpt>
      <trkpt lat="43.43031" lon="6.41875">
        <ele>73</ele>
        <time>2012-09-09T09:50:08Z</time>
      </trkpt>
      <trkpt lat="43.43035" lon="6.41885">
        <ele>72.900002</ele>
        <time>2012-09-09T09:50:13Z</time>
      </trkpt>
      <trkpt lat="43.4304" lon="6.41893">
        <ele>72.5</ele>
        <time>2012-09-09T09:50:19Z</time>
      </trkpt>
      <trkpt lat="43.43046" lon="6.41902">
        <ele>72.5</ele>
        <time>2012-09-09T09:50:27Z</time>
      </trkpt>
      <trkpt lat="43.43052" lon="6.41909">
        <ele>72.599998</ele>
        <time>2012-09-09T09:50:32Z</time>
      </trkpt>
      <trkpt lat="43.43058" lon="6.41916">
        <ele>72.900002</ele>
        <time>2012-09-09T09:50:39Z</time>
      </trkpt>
      <trkpt lat="43.43064" lon="6.41922">
        <ele>72.800003</ele>
        <time>2012-09-09T09:50:43Z</time>
      </trkpt>
      <trkpt lat="43.4307" lon="6.41931">
        <ele>72.300003</ele>
        <time>2012-09-09T09:50:50Z</time>
      </trkpt>
      <trkpt lat="43.43071" lon="6.41932">
        <ele>72.199997</ele>
        <time>2012-09-09T09:50:51Z</time>
      </trkpt>
      <trkpt lat="43.43084" lon="6.41946">
        <ele>71.5</ele>
        <time>2012-09-09T09:51:02Z</time>
      </trkpt>
      <trkpt lat="43.43091" lon="6.41951">
        <ele>71.199997</ele>
        <time>2012-09-09T09:51:10Z</time>
      </trkpt>
      <trkpt lat="43.431" lon="6.41952">
        <ele>71.699997</ele>
        <time>2012-09-09T09:51:19Z</time>
      </trkpt>
      <trkpt lat="43.43107" lon="6.41957">
        <ele>71.400002</ele>
        <time>2012-09-09T09:51:27Z</time>
      </trkpt>
      <trkpt lat="43.43114" lon="6.41962">
        <ele>70.599998</ele>
        <time>2012-09-09T09:51:35Z</time>
      </trkpt>
      <trkpt lat="43.4312" lon="6.4197">
        <ele>70</ele>
        <time>2012-09-09T09:51:45Z</time>
      </trkpt>
      <trkpt lat="43.43127" lon="6.41977">
        <ele>69.5</ele>
        <time>2012-09-09T09:51:53Z</time>
      </trkpt>
      <trkpt lat="43.43127" lon="6.41979">
        <ele>69.599998</ele>
        <time>2012-09-09T09:51:54Z</time>
      </trkpt>
      <trkpt lat="43.43141" lon="6.4199">
        <ele>68.900002</ele>
        <time>2012-09-09T09:52:09Z</time>
      </trkpt>
      <trkpt lat="43.43149" lon="6.41986">
        <ele>68.699997</ele>
        <time>2012-09-09T09:52:14Z</time>
      </trkpt>
      <trkpt lat="43.43155" lon="6.41979">
        <ele>69</ele>
        <time>2012-09-09T09:52:20Z</time>
      </trkpt>
      <trkpt lat="43.43158" lon="6.41969">
        <ele>69.400002</ele>
        <time>2012-09-09T09:52:28Z</time>
      </trkpt>
      <trkpt lat="43.43165" lon="6.41961">
        <ele>70</ele>
        <time>2012-09-09T09:52:36Z</time>
      </trkpt>
      <trkpt lat="43.43169" lon="6.41952">
        <ele>70.099998</ele>
        <time>2012-09-09T09:52:44Z</time>
      </trkpt>
      <trkpt lat="43.43174" lon="6.41942">
        <ele>70.800003</ele>
        <time>2012-09-09T09:52:52Z</time>
      </trkpt>
      <trkpt lat="43.43178" lon="6.41932">
        <ele>71.400002</ele>
        <time>2012-09-09T09:53:03Z</time>
      </trkpt>
      <trkpt lat="43.43179" lon="6.41931">
        <ele>71.300003</ele>
        <time>2012-09-09T09:53:04Z</time>
      </trkpt>
      <trkpt lat="43.43186" lon="6.41914">
        <ele>71.900002</ele>
        <time>2012-09-09T09:53:13Z</time>
      </trkpt>
      <trkpt lat="43.43188" lon="6.41904">
        <ele>72.199997</ele>
        <time>2012-09-09T09:53:19Z</time>
      </trkpt>
      <trkpt lat="43.43193" lon="6.41895">
        <ele>72.400002</ele>
        <time>2012-09-09T09:53:24Z</time>
      </trkpt>
      <trkpt lat="43.43196" lon="6.41883">
        <ele>72.5</ele>
        <time>2012-09-09T09:53:32Z</time>
      </trkpt>
      <trkpt lat="43.43201" lon="6.41874">
        <ele>73.300003</ele>
        <time>2012-09-09T09:53:43Z</time>
      </trkpt>
      <trkpt lat="43.43201" lon="6.41863">
        <ele>74.400002</ele>
        <time>2012-09-09T09:53:52Z</time>
      </trkpt>
      <trkpt lat="43.43203" lon="6.41853">
        <ele>74.599998</ele>
        <time>2012-09-09T09:53:56Z</time>
      </trkpt>
      <trkpt lat="43.43208" lon="6.41844">
        <ele>74.900002</ele>
        <time>2012-09-09T09:54:02Z</time>
      </trkpt>
      <trkpt lat="43.43211" lon="6.41833">
        <ele>75.099998</ele>
        <time>2012-09-09T09:54:09Z</time>
      </trkpt>
      <trkpt lat="43.43212" lon="6.41831">
        <ele>75.199997</ele>
        <time>2012-09-09T09:54:10Z</time>
      </trkpt>
      <trkpt lat="43.43218" lon="6.41812">
        <ele>76.199997</ele>
        <time>2012-09-09T09:54:26Z</time>
      </trkpt>
      <trkpt lat="43.43224" lon="6.41807">
        <ele>76.699997</ele>
        <time>2012-09-09T09:54:31Z</time>
      </trkpt>
      <trkpt lat="43.43231" lon="6.41799">
        <ele>77.300003</ele>
        <time>2012-09-09T09:54:39Z</time>
      </trkpt>
      <trkpt lat="43.43235" lon="6.4179">
        <ele>77.900002</ele>
        <time>2012-09-09T09:54:47Z</time>
      </trkpt>
      <trkpt lat="43.43242" lon="6.41783">
        <ele>78.699997</ele>
        <time>2012-09-09T09:54:59Z</time>
      </trkpt>
      <trkpt lat="43.43248" lon="6.41776">
        <ele>78.699997</ele>
        <time>2012-09-09T09:55:09Z</time>
      </trkpt>
      <trkpt lat="43.43254" lon="6.41768">
        <ele>79.400002</ele>
        <time>2012-09-09T09:55:16Z</time>
      </trkpt>
      <trkpt lat="43.43255" lon="6.41766">
        <ele>79.5</ele>
        <time>2012-09-09T09:55:17Z</time>
      </trkpt>
      <trkpt lat="43.43264" lon="6.41748">
        <ele>80.300003</ele>
        <time>2012-09-09T09:55:30Z</time>
      </trkpt>
      <trkpt lat="43.43272" lon="6.41744">
        <ele>80.699997</ele>
        <time>2012-09-09T09:55:37Z</time>
      </trkpt>
      <trkpt lat="43.43277" lon="6.41736">
        <ele>81.800003</ele>
        <time>2012-09-09T09:55:52Z</time>
      </trkpt>
      <trkpt lat="43.43282" lon="6.41726">
        <ele>82.400002</ele>
        <time>2012-09-09T09:55:58Z</time>
      </trkpt>
      <trkpt lat="43.43287" lon="6.41716">
        <ele>82.800003</ele>
        <time>2012-09-09T09:56:04Z</time>
      </trkpt>
      <trkpt lat="43.4329" lon="6.41705">
        <ele>83.5</ele>
        <time>2012-09-09T09:56:10Z</time>
      </trkpt>
      <trkpt lat="43.43286" lon="6.41695">
        <ele>83.199997</ele>
        <time>2012-09-09T09:56:27Z</time>
      </trkpt>
      <trkpt lat="43.43285" lon="6.41695">
        <ele>83.099998</ele>
        <time>2012-09-09T09:56:28Z</time>
      </trkpt>
      <trkpt lat="43.43275" lon="6.41703">
        <ele>82.199997</ele>
        <time>2012-09-09T09:57:39Z</time>
      </trkpt>
      <trkpt lat="43.43274" lon="6.41704">
        <ele>82.300003</ele>
        <time>2012-09-09T09:57:40Z</time>
      </trkpt>
      <trkpt lat="43.43272" lon="6.41723">
        <ele>81.5</ele>
        <time>2012-09-09T09:57:57Z</time>
      </trkpt>
      <trkpt lat="43.4328" lon="6.41726">
        <ele>81.5</ele>
        <time>2012-09-09T09:58:04Z</time>
      </trkpt>
      <trkpt lat="43.43288" lon="6.41725">
        <ele>82.300003</ele>
        <time>2012-09-09T09:58:45Z</time>
      </trkpt>
      <trkpt lat="43.4329" lon="6.41726">
        <ele>82.300003</ele>
        <time>2012-09-09T09:58:46Z</time>
      </trkpt>
      <trkpt lat="43.43274" lon="6.41719">
        <ele>82</ele>
        <time>2012-09-09T09:59:40Z</time>
      </trkpt>
      <trkpt lat="43.43278" lon="6.41709">
        <ele>82.599998</ele>
        <time>2012-09-09T10:01:04Z</time>
      </trkpt>
      <trkpt lat="43.43279" lon="6.41709">
        <ele>82.699997</ele>
        <time>2012-09-09T10:01:05Z</time>
      </trkpt>
      <trkpt lat="43.43286" lon="6.41716">
        <ele>82.699997</ele>
        <time>2012-09-09T10:01:59Z</time>
      </trkpt>
      <trkpt lat="43.43281" lon="6.41726">
        <ele>82.699997</ele>
        <time>2012-09-09T10:02:20Z</time>
      </trkpt>
      <trkpt lat="43.43281" lon="6.41726">
        <ele>82.599998</ele>
        <time>2012-09-09T10:02:21Z</time>
      </trkpt>
      <trkpt lat="43.43281" lon="6.41723">
        <ele>82.900002</ele>
        <time>2012-09-09T10:04:17Z</time>
      </trkpt>
      <trkpt lat="43.4328" lon="6.41723">
        <ele>83.099998</ele>
        <time>2012-09-09T10:04:18Z</time>
      </trkpt>
      <trkpt lat="43.4328" lon="6.41727">
        <ele>82.900002</ele>
        <time>2012-09-09T10:04:54Z</time>
      </trkpt>
      <trkpt lat="43.43273" lon="6.4172">
        <ele>83.800003</ele>
        <time>2012-09-09T10:05:48Z</time>
      </trkpt>
      <trkpt lat="43.43273" lon="6.4172">
        <ele>83.699997</ele>
        <time>2012-09-09T10:05:49Z</time>
      </trkpt>
      <trkpt lat="43.43283" lon="6.4172">
        <ele>82.599998</ele>
        <time>2012-09-09T10:07:02Z</time>
      </trkpt>
      <trkpt lat="43.43284" lon="6.41718">
        <ele>82.5</ele>
        <time>2012-09-09T10:07:03Z</time>
      </trkpt>
      <trkpt lat="43.43279" lon="6.41712">
        <ele>83.099998</ele>
        <time>2012-09-09T10:08:49Z</time>
      </trkpt>
      <trkpt lat="43.43279" lon="6.41712">
        <ele>83.199997</ele>
        <time>2012-09-09T10:08:50Z</time>
      </trkpt>
      <trkpt lat="43.43266" lon="6.41728">
        <ele>83.400002</ele>
        <time>2012-09-09T10:09:09Z</time>
      </trkpt>
      <trkpt lat="43.43275" lon="6.41732">
        <ele>83.400002</ele>
        <time>2012-09-09T10:09:25Z</time>
      </trkpt>
      <trkpt lat="43.43283" lon="6.41729">
        <ele>83.300003</ele>
        <time>2012-09-09T10:09:31Z</time>
      </trkpt>
      <trkpt lat="43.43275" lon="6.41725">
        <ele>83.199997</ele>
        <time>2012-09-09T10:10:06Z</time>
      </trkpt>
      <trkpt lat="43.43275" lon="6.41725">
        <ele>83</ele>
        <time>2012-09-09T10:10:07Z</time>
      </trkpt>
      <trkpt lat="43.4328" lon="6.4173">
        <ele>83.400002</ele>
        <time>2012-09-09T10:11:13Z</time>
      </trkpt>
      <trkpt lat="43.4328" lon="6.41729">
        <ele>83.300003</ele>
        <time>2012-09-09T10:11:14Z</time>
      </trkpt>
      <trkpt lat="43.43285" lon="6.41708">
        <ele>82.800003</ele>
        <time>2012-09-09T10:11:34Z</time>
      </trkpt>
      <trkpt lat="43.43279" lon="6.417">
        <ele>82.900002</ele>
        <time>2012-09-09T10:12:02Z</time>
      </trkpt>
      <trkpt lat="43.43276" lon="6.41711">
        <ele>83</ele>
        <time>2012-09-09T10:12:31Z</time>
      </trkpt>
      <trkpt lat="43.43275" lon="6.41712">
        <ele>83.199997</ele>
        <time>2012-09-09T10:12:32Z</time>
      </trkpt>
      <trkpt lat="43.43262" lon="6.41725">
        <ele>83.199997</ele>
        <time>2012-09-09T10:12:50Z</time>
      </trkpt>
      <trkpt lat="43.43268" lon="6.4172">
        <ele>83.400002</ele>
        <time>2012-09-09T10:13:11Z</time>
      </trkpt>
      <trkpt lat="43.43275" lon="6.41714">
        <ele>83.099998</ele>
        <time>2012-09-09T10:13:14Z</time>
      </trkpt>
      <trkpt lat="43.43277" lon="6.41725">
        <ele>83.400002</ele>
        <time>2012-09-09T10:14:11Z</time>
      </trkpt>
      <trkpt lat="43.43278" lon="6.41726">
        <ele>83.300003</ele>
        <time>2012-09-09T10:14:12Z</time>
      </trkpt>
      <trkpt lat="43.43262" lon="6.41737">
        <ele>83.699997</ele>
        <time>2012-09-09T10:15:03Z</time>
      </trkpt>
      <trkpt lat="43.4327" lon="6.41732">
        <ele>83.699997</ele>
        <time>2012-09-09T10:15:17Z</time>
      </trkpt>
      <trkpt lat="43.4327" lon="6.41731">
        <ele>83.800003</ele>
        <time>2012-09-09T10:15:18Z</time>
      </trkpt>
      <trkpt lat="43.43286" lon="6.41729">
        <ele>84.300003</ele>
        <time>2012-09-09T10:15:37Z</time>
      </trkpt>
      <trkpt lat="43.43289" lon="6.4174">
        <ele>84</ele>
        <time>2012-09-09T10:16:06Z</time>
      </trkpt>
      <trkpt lat="43.43281" lon="6.41744">
        <ele>83.300003</ele>
        <time>2012-09-09T10:16:28Z</time>
      </trkpt>
      <trkpt lat="43.43279" lon="6.41746">
        <ele>83.199997</ele>
        <time>2012-09-09T10:16:29Z</time>
      </trkpt>
      <trkpt lat="43.43266" lon="6.4175">
        <ele>83.599998</ele>
        <time>2012-09-09T10:16:56Z</time>
      </trkpt>
      <trkpt lat="43.43274" lon="6.41749">
        <ele>83.199997</ele>
        <time>2012-09-09T10:17:08Z</time>
      </trkpt>
      <trkpt lat="43.43281" lon="6.41746">
        <ele>83.300003</ele>
        <time>2012-09-09T10:17:13Z</time>
      </trkpt>
      <trkpt lat="43.4329" lon="6.41747">
        <ele>83.400002</ele>
        <time>2012-09-09T10:17:21Z</time>
      </trkpt>
      <trkpt lat="43.43295" lon="6.41738">
        <ele>83.699997</ele>
        <time>2012-09-09T10:17:27Z</time>
      </trkpt>
      <trkpt lat="43.43298" lon="6.41729">
        <ele>84.300003</ele>
        <time>2012-09-09T10:17:30Z</time>
      </trkpt>
      <trkpt lat="43.43298" lon="6.41726">
        <ele>84.300003</ele>
        <time>2012-09-09T10:17:31Z</time>
      </trkpt>
      <trkpt lat="43.4329" lon="6.41715">
        <ele>83.800003</ele>
        <time>2012-09-09T10:17:38Z</time>
      </trkpt>
      <trkpt lat="43.43282" lon="6.41714">
        <ele>83.900002</ele>
        <time>2012-09-09T10:17:43Z</time>
      </trkpt>
      <trkpt lat="43.43274" lon="6.41719">
        <ele>83.699997</ele>
        <time>2012-09-09T10:17:54Z</time>
      </trkpt>
      <trkpt lat="43.4327" lon="6.41709">
        <ele>83.599998</ele>
        <time>2012-09-09T10:18:46Z</time>
      </trkpt>
      <trkpt lat="43.43269" lon="6.41709">
        <ele>83.699997</ele>
        <time>2012-09-09T10:18:47Z</time>
      </trkpt>
      <trkpt lat="43.43265" lon="6.41726">
        <ele>83</ele>
        <time>2012-09-09T10:19:36Z</time>
      </trkpt>
      <trkpt lat="43.43273" lon="6.41726">
        <ele>83.599998</ele>
        <time>2012-09-09T10:20:17Z</time>
      </trkpt>
      <trkpt lat="43.43274" lon="6.41726">
        <ele>83.599998</ele>
        <time>2012-09-09T10:20:18Z</time>
      </trkpt>
      <trkpt lat="43.43284" lon="6.41711">
        <ele>84.099998</ele>
        <time>2012-09-09T10:22:12Z</time>
      </trkpt>
      <trkpt lat="43.43285" lon="6.41709">
        <ele>83.900002</ele>
        <time>2012-09-09T10:22:13Z</time>
      </trkpt>
      <trkpt lat="43.43282" lon="6.41707">
        <ele>84.099998</ele>
        <time>2012-09-09T10:22:38Z</time>
      </trkpt>
      <trkpt lat="43.43275" lon="6.41712">
        <ele>84.199997</ele>
        <time>2012-09-09T10:23:06Z</time>
      </trkpt>
      <trkpt lat="43.43268" lon="6.41718">
        <ele>84.400002</ele>
        <time>2012-09-09T10:23:11Z</time>
      </trkpt>
      <trkpt lat="43.43275" lon="6.41722">
        <ele>84.599998</ele>
        <time>2012-09-09T10:24:39Z</time>
      </trkpt>
      <trkpt lat="43.43277" lon="6.41722">
        <ele>84.599998</ele>
        <time>2012-09-09T10:24:40Z</time>
      </trkpt>
      <trkpt lat="43.43267" lon="6.41726">
        <ele>84.5</ele>
        <time>2012-09-09T10:25:44Z</time>
      </trkpt>
      <trkpt lat="43.43284" lon="6.41717">
        <ele>84.900002</ele>
        <time>2012-09-09T10:28:07Z</time>
      </trkpt>
      <trkpt lat="43.43286" lon="6.41716">
        <ele>85.099998</ele>
        <time>2012-09-09T10:28:08Z</time>
      </trkpt>
      <trkpt lat="43.43293" lon="6.41702">
        <ele>85.699997</ele>
        <time>2012-09-09T10:28:20Z</time>
      </trkpt>
      <trkpt lat="43.43299" lon="6.41693">
        <ele>86.699997</ele>
        <time>2012-09-09T10:28:29Z</time>
      </trkpt>
      <trkpt lat="43.43294" lon="6.41684">
        <ele>86.900002</ele>
        <time>2012-09-09T10:28:41Z</time>
      </trkpt>
      <trkpt lat="43.43288" lon="6.41693">
        <ele>86.400002</ele>
        <time>2012-09-09T10:29:10Z</time>
      </trkpt>
      <trkpt lat="43.43288" lon="6.41694">
        <ele>86.400002</ele>
        <time>2012-09-09T10:29:11Z</time>
      </trkpt>
      <trkpt lat="43.43277" lon="6.41712">
        <ele>83.199997</ele>
        <time>2012-09-09T10:29:33Z</time>
      </trkpt>
      <trkpt lat="43.4327" lon="6.41719">
        <ele>83.099998</ele>
        <time>2012-09-09T10:29:40Z</time>
      </trkpt>
      <trkpt lat="43.43264" lon="6.41724">
        <ele>82.599998</ele>
        <time>2012-09-09T10:29:46Z</time>
      </trkpt>
      <trkpt lat="43.43259" lon="6.41734">
        <ele>82.800003</ele>
        <time>2012-09-09T10:29:55Z</time>
      </trkpt>
      <trkpt lat="43.43262" lon="6.41744">
        <ele>82.5</ele>
        <time>2012-09-09T10:30:06Z</time>
      </trkpt>
      <trkpt lat="43.43271" lon="6.41743">
        <ele>83.400002</ele>
        <time>2012-09-09T10:30:20Z</time>
      </trkpt>
      <trkpt lat="43.43272" lon="6.41742">
        <ele>83.5</ele>
        <time>2012-09-09T10:30:21Z</time>
      </trkpt>
      <trkpt lat="43.43282" lon="6.41728">
        <ele>84.699997</ele>
        <time>2012-09-09T10:30:41Z</time>
      </trkpt>
      <trkpt lat="43.43273" lon="6.41728">
        <ele>84.400002</ele>
        <time>2012-09-09T10:31:03Z</time>
      </trkpt>
      <trkpt lat="43.43281" lon="6.41724">
        <ele>84.699997</ele>
        <time>2012-09-09T10:31:36Z</time>
      </trkpt>
      <trkpt lat="43.43282" lon="6.41724">
        <ele>84.699997</ele>
        <time>2012-09-09T10:31:37Z</time>
      </trkpt>
      <trkpt lat="43.43288" lon="6.41716">
        <ele>84.300003</ele>
        <time>2012-09-09T10:33:06Z</time>
      </trkpt>
      <trkpt lat="43.43286" lon="6.41712">
        <ele>84.300003</ele>
        <time>2012-09-09T10:33:48Z</time>
      </trkpt>
      <trkpt lat="43.43279" lon="6.41718">
        <ele>84.300003</ele>
        <time>2012-09-09T10:33:58Z</time>
      </trkpt>
      <trkpt lat="43.43272" lon="6.41725">
        <ele>84.599998</ele>
        <time>2012-09-09T10:34:06Z</time>
      </trkpt>
      <trkpt lat="43.43271" lon="6.41726">
        <ele>84.5</ele>
        <time>2012-09-09T10:34:07Z</time>
      </trkpt>
      <trkpt lat="43.43264" lon="6.4173">
        <ele>84.699997</ele>
        <time>2012-09-09T10:35:35Z</time>
      </trkpt>
      <trkpt lat="43.4328" lon="6.41731">
        <ele>85.099998</ele>
        <time>2012-09-09T10:36:22Z</time>
      </trkpt>
      <trkpt lat="43.43282" lon="6.41719">
        <ele>84.5</ele>
        <time>2012-09-09T10:37:14Z</time>
      </trkpt>
      <trkpt lat="43.43283" lon="6.41719">
        <ele>84.400002</ele>
        <time>2012-09-09T10:37:15Z</time>
      </trkpt>
      <trkpt lat="43.4328" lon="6.41713">
        <ele>85.300003</ele>
        <time>2012-09-09T10:38:31Z</time>
      </trkpt>
      <trkpt lat="43.4328" lon="6.41712">
        <ele>85.400002</ele>
        <time>2012-09-09T10:38:32Z</time>
      </trkpt>
      <trkpt lat="43.43281" lon="6.41716">
        <ele>85.300003</ele>
        <time>2012-09-09T10:38:57Z</time>
      </trkpt>
      <trkpt lat="43.43286" lon="6.41707">
        <ele>82.699997</ele>
        <time>2012-09-09T10:41:47Z</time>
      </trkpt>
      <trkpt lat="43.43286" lon="6.41706">
        <ele>82.900002</ele>
        <time>2012-09-09T10:41:48Z</time>
      </trkpt>
      <trkpt lat="43.43289" lon="6.41719">
        <ele>82</ele>
        <time>2012-09-09T10:44:08Z</time>
      </trkpt>
      <trkpt lat="43.43291" lon="6.41706">
        <ele>81.599998</ele>
        <time>2012-09-09T10:45:10Z</time>
      </trkpt>
      <trkpt lat="43.43284" lon="6.41716">
        <ele>80.900002</ele>
        <time>2012-09-09T10:47:02Z</time>
      </trkpt>
      <trkpt lat="43.43282" lon="6.41711">
        <ele>78.800003</ele>
        <time>2012-09-09T10:49:36Z</time>
      </trkpt>
      <trkpt lat="43.43281" lon="6.41712">
        <ele>78.699997</ele>
        <time>2012-09-09T10:49:37Z</time>
      </trkpt>
      <trkpt lat="43.4328" lon="6.41723">
        <ele>76</ele>
        <time>2012-09-09T10:52:28Z</time>
      </trkpt>
      <trkpt lat="43.43271" lon="6.41732">
        <ele>74.800003</ele>
        <time>2012-09-09T10:54:05Z</time>
      </trkpt>
      <trkpt lat="43.43271" lon="6.41733">
        <ele>74.900002</ele>
        <time>2012-09-09T10:54:06Z</time>
      </trkpt>
      <trkpt lat="43.43285" lon="6.41722">
        <ele>74.800003</ele>
        <time>2012-09-09T10:54:30Z</time>
      </trkpt>
      <trkpt lat="43.43293" lon="6.41717">
        <ele>74.800003</ele>
        <time>2012-09-09T10:54:56Z</time>
      </trkpt>
      <trkpt lat="43.43285" lon="6.41723">
        <ele>72.900002</ele>
        <time>2012-09-09T10:58:42Z</time>
      </trkpt>
      <trkpt lat="43.43285" lon="6.41724">
        <ele>72.900002</ele>
        <time>2012-09-09T10:58:43Z</time>
      </trkpt>
      <trkpt lat="43.43283" lon="6.41724">
        <ele>72</ele>
        <time>2012-09-09T11:00:40Z</time>
      </trkpt>
      <trkpt lat="43.43283" lon="6.41725">
        <ele>72.199997</ele>
        <time>2012-09-09T11:00:41Z</time>
      </trkpt>
      <trkpt lat="43.43275" lon="6.41728">
        <ele>71.300003</ele>
        <time>2012-09-09T11:01:23Z</time>
      </trkpt>
      <trkpt lat="43.43282" lon="6.41723">
        <ele>72</ele>
        <time>2012-09-09T11:01:37Z</time>
      </trkpt>
      <trkpt lat="43.43289" lon="6.41717">
        <ele>72.300003</ele>
        <time>2012-09-09T11:01:48Z</time>
      </trkpt>
      <trkpt lat="43.4329" lon="6.41716">
        <ele>72.300003</ele>
        <time>2012-09-09T11:01:49Z</time>
      </trkpt>
      <trkpt lat="43.43301" lon="6.41701">
        <ele>72.900002</ele>
        <time>2012-09-09T11:02:11Z</time>
      </trkpt>
      <trkpt lat="43.43303" lon="6.41689">
        <ele>74.300003</ele>
        <time>2012-09-09T11:02:26Z</time>
      </trkpt>
      <trkpt lat="43.4331" lon="6.41682">
        <ele>73.699997</ele>
        <time>2012-09-09T11:02:56Z</time>
      </trkpt>
      <trkpt lat="43.43311" lon="6.41682">
        <ele>73.599998</ele>
        <time>2012-09-09T11:02:57Z</time>
      </trkpt>
      <trkpt lat="43.43324" lon="6.4167">
        <ele>74</ele>
        <time>2012-09-09T11:03:16Z</time>
      </trkpt>
      <trkpt lat="43.4333" lon="6.41661">
        <ele>74.400002</ele>
        <time>2012-09-09T11:03:26Z</time>
      </trkpt>
      <trkpt lat="43.43338" lon="6.41658">
        <ele>74.400002</ele>
        <time>2012-09-09T11:03:38Z</time>
      </trkpt>
      <trkpt lat="43.43345" lon="6.41655">
        <ele>75.099998</ele>
        <time>2012-09-09T11:03:45Z</time>
      </trkpt>
      <trkpt lat="43.43353" lon="6.41651">
        <ele>75.199997</ele>
        <time>2012-09-09T11:03:55Z</time>
      </trkpt>
      <trkpt lat="43.43361" lon="6.41649">
        <ele>75.300003</ele>
        <time>2012-09-09T11:04:04Z</time>
      </trkpt>
      <trkpt lat="43.43363" lon="6.41648">
        <ele>75.400002</ele>
        <time>2012-09-09T11:04:05Z</time>
      </trkpt>
      <trkpt lat="43.43376" lon="6.41641">
        <ele>76</ele>
        <time>2012-09-09T11:04:18Z</time>
      </trkpt>
      <trkpt lat="43.43383" lon="6.41637">
        <ele>76.400002</ele>
        <time>2012-09-09T11:04:27Z</time>
      </trkpt>
      <trkpt lat="43.43392" lon="6.41633">
        <ele>76.900002</ele>
        <time>2012-09-09T11:04:35Z</time>
      </trkpt>
      <trkpt lat="43.43397" lon="6.41624">
        <ele>77.199997</ele>
        <time>2012-09-09T11:04:51Z</time>
      </trkpt>
      <trkpt lat="43.43406" lon="6.41621">
        <ele>77.5</ele>
        <time>2012-09-09T11:05:05Z</time>
      </trkpt>
      <trkpt lat="43.43406" lon="6.41621">
        <ele>77.599998</ele>
        <time>2012-09-09T11:05:06Z</time>
      </trkpt>
      <trkpt lat="43.43423" lon="6.41616">
        <ele>78.400002</ele>
        <time>2012-09-09T11:05:42Z</time>
      </trkpt>
      <trkpt lat="43.43431" lon="6.41613">
        <ele>79</ele>
        <time>2012-09-09T11:05:55Z</time>
      </trkpt>
      <trkpt lat="43.43439" lon="6.41608">
        <ele>79.199997</ele>
        <time>2012-09-09T11:06:04Z</time>
      </trkpt>
      <trkpt lat="43.43447" lon="6.41607">
        <ele>79.300003</ele>
        <time>2012-09-09T11:06:14Z</time>
      </trkpt>
      <trkpt lat="43.43448" lon="6.41607">
        <ele>79.199997</ele>
        <time>2012-09-09T11:06:15Z</time>
      </trkpt>
      <trkpt lat="43.43463" lon="6.41599">
        <ele>81.300003</ele>
        <time>2012-09-09T11:06:34Z</time>
      </trkpt>
      <trkpt lat="43.4347" lon="6.41595">
        <ele>81.599998</ele>
        <time>2012-09-09T11:06:42Z</time>
      </trkpt>
      <trkpt lat="43.43478" lon="6.41592">
        <ele>82</ele>
        <time>2012-09-09T11:06:58Z</time>
      </trkpt>
      <trkpt lat="43.43486" lon="6.41589">
        <ele>81.900002</ele>
        <time>2012-09-09T11:07:07Z</time>
      </trkpt>
      <trkpt lat="43.43495" lon="6.41586">
        <ele>82</ele>
        <time>2012-09-09T11:07:16Z</time>
      </trkpt>
      <trkpt lat="43.43496" lon="6.41585">
        <ele>82.300003</ele>
        <time>2012-09-09T11:07:17Z</time>
      </trkpt>
      <trkpt lat="43.43511" lon="6.4158">
        <ele>83.199997</ele>
        <time>2012-09-09T11:07:32Z</time>
      </trkpt>
      <trkpt lat="43.43519" lon="6.41577">
        <ele>83.199997</ele>
        <time>2012-09-09T11:07:41Z</time>
      </trkpt>
      <trkpt lat="43.43526" lon="6.41572">
        <ele>83.5</ele>
        <time>2012-09-09T11:07:50Z</time>
      </trkpt>
      <trkpt lat="43.43535" lon="6.41567">
        <ele>84.699997</ele>
        <time>2012-09-09T11:07:59Z</time>
      </trkpt>
      <trkpt lat="43.43542" lon="6.41571">
        <ele>85.099998</ele>
        <time>2012-09-09T11:08:17Z</time>
      </trkpt>
      <trkpt lat="43.43543" lon="6.41572">
        <ele>85.199997</ele>
        <time>2012-09-09T11:08:18Z</time>
      </trkpt>
      <trkpt lat="43.43548" lon="6.41594">
        <ele>85.699997</ele>
        <time>2012-09-09T11:08:37Z</time>
      </trkpt>
      <trkpt lat="43.43553" lon="6.41602">
        <ele>86</ele>
        <time>2012-09-09T11:08:45Z</time>
      </trkpt>
      <trkpt lat="43.43556" lon="6.41612">
        <ele>86.5</ele>
        <time>2012-09-09T11:08:53Z</time>
      </trkpt>
      <trkpt lat="43.4356" lon="6.41623">
        <ele>86.699997</ele>
        <time>2012-09-09T11:09:03Z</time>
      </trkpt>
      <trkpt lat="43.43563" lon="6.41634">
        <ele>87.5</ele>
        <time>2012-09-09T11:09:13Z</time>
      </trkpt>
      <trkpt lat="43.43566" lon="6.41644">
        <ele>87.699997</ele>
        <time>2012-09-09T11:09:22Z</time>
      </trkpt>
      <trkpt lat="43.43567" lon="6.41645">
        <ele>87.800003</ele>
        <time>2012-09-09T11:09:23Z</time>
      </trkpt>
      <trkpt lat="43.43571" lon="6.41666">
        <ele>88.800003</ele>
        <time>2012-09-09T11:09:40Z</time>
      </trkpt>
      <trkpt lat="43.43574" lon="6.41676">
        <ele>88.599998</ele>
        <time>2012-09-09T11:09:48Z</time>
      </trkpt>
      <trkpt lat="43.43575" lon="6.41687">
        <ele>89.5</ele>
        <time>2012-09-09T11:09:59Z</time>
      </trkpt>
      <trkpt lat="43.43575" lon="6.41699">
        <ele>90.5</ele>
        <time>2012-09-09T11:10:09Z</time>
      </trkpt>
      <trkpt lat="43.43575" lon="6.4171">
        <ele>90.900002</ele>
        <time>2012-09-09T11:10:18Z</time>
      </trkpt>
      <trkpt lat="43.43576" lon="6.41722">
        <ele>91.400002</ele>
        <time>2012-09-09T11:10:27Z</time>
      </trkpt>
      <trkpt lat="43.43576" lon="6.41723">
        <ele>91.599998</ele>
        <time>2012-09-09T11:10:28Z</time>
      </trkpt>
      <trkpt lat="43.43575" lon="6.41745">
        <ele>93.099998</ele>
        <time>2012-09-09T11:10:45Z</time>
      </trkpt>
      <trkpt lat="43.43574" lon="6.41756">
        <ele>93.900002</ele>
        <time>2012-09-09T11:10:54Z</time>
      </trkpt>
      <trkpt lat="43.43573" lon="6.41767">
        <ele>94.300003</ele>
        <time>2012-09-09T11:11:02Z</time>
      </trkpt>
      <trkpt lat="43.43572" lon="6.41779">
        <ele>95</ele>
        <time>2012-09-09T11:11:13Z</time>
      </trkpt>
      <trkpt lat="43.43572" lon="6.41791">
        <ele>95.199997</ele>
        <time>2012-09-09T11:11:22Z</time>
      </trkpt>
      <trkpt lat="43.43572" lon="6.41803">
        <ele>95.300003</ele>
        <time>2012-09-09T11:11:29Z</time>
      </trkpt>
      <trkpt lat="43.43572" lon="6.41805">
        <ele>95.300003</ele>
        <time>2012-09-09T11:11:30Z</time>
      </trkpt>
      <trkpt lat="43.43571" lon="6.41827">
        <ele>96.800003</ele>
        <time>2012-09-09T11:11:46Z</time>
      </trkpt>
      <trkpt lat="43.43569" lon="6.41839">
        <ele>97.099998</ele>
        <time>2012-09-09T11:11:56Z</time>
      </trkpt>
      <trkpt lat="43.43565" lon="6.41849">
        <ele>98</ele>
        <time>2012-09-09T11:12:06Z</time>
      </trkpt>
      <trkpt lat="43.43564" lon="6.41861">
        <ele>99.800003</ele>
        <time>2012-09-09T11:12:17Z</time>
      </trkpt>
      <trkpt lat="43.43563" lon="6.41873">
        <ele>100.199997</ele>
        <time>2012-09-09T11:12:27Z</time>
      </trkpt>
      <trkpt lat="43.43561" lon="6.41884">
        <ele>101</ele>
        <time>2012-09-09T11:12:37Z</time>
      </trkpt>
      <trkpt lat="43.43561" lon="6.41885">
        <ele>101.099998</ele>
        <time>2012-09-09T11:12:38Z</time>
      </trkpt>
      <trkpt lat="43.43554" lon="6.41904">
        <ele>103.5</ele>
        <time>2012-09-09T11:12:56Z</time>
      </trkpt>
      <trkpt lat="43.43548" lon="6.41913">
        <ele>103.599998</ele>
        <time>2012-09-09T11:13:05Z</time>
      </trkpt>
      <trkpt lat="43.43543" lon="6.41922">
        <ele>103.599998</ele>
        <time>2012-09-09T11:13:14Z</time>
      </trkpt>
      <trkpt lat="43.43536" lon="6.41929">
        <ele>103.800003</ele>
        <time>2012-09-09T11:13:22Z</time>
      </trkpt>
      <trkpt lat="43.43529" lon="6.41936">
        <ele>104</ele>
        <time>2012-09-09T11:13:31Z</time>
      </trkpt>
      <trkpt lat="43.43523" lon="6.41944">
        <ele>104.900002</ele>
        <time>2012-09-09T11:13:40Z</time>
      </trkpt>
      <trkpt lat="43.43522" lon="6.41945">
        <ele>104.900002</ele>
        <time>2012-09-09T11:13:41Z</time>
      </trkpt>
      <trkpt lat="43.43508" lon="6.41954">
        <ele>104.099998</ele>
        <time>2012-09-09T11:13:59Z</time>
      </trkpt>
      <trkpt lat="43.43501" lon="6.41959">
        <ele>104.5</ele>
        <time>2012-09-09T11:14:08Z</time>
      </trkpt>
      <trkpt lat="43.43494" lon="6.41964">
        <ele>105</ele>
        <time>2012-09-09T11:14:16Z</time>
      </trkpt>
      <trkpt lat="43.43487" lon="6.41973">
        <ele>105.099998</ele>
        <time>2012-09-09T11:14:26Z</time>
      </trkpt>
      <trkpt lat="43.43482" lon="6.41981">
        <ele>105.199997</ele>
        <time>2012-09-09T11:14:34Z</time>
      </trkpt>
      <trkpt lat="43.43476" lon="6.4199">
        <ele>105.599998</ele>
        <time>2012-09-09T11:14:42Z</time>
      </trkpt>
      <trkpt lat="43.43475" lon="6.41991">
        <ele>105.699997</ele>
        <time>2012-09-09T11:14:43Z</time>
      </trkpt>
      <trkpt lat="43.4347" lon="6.4201">
        <ele>106</ele>
        <time>2012-09-09T11:14:58Z</time>
      </trkpt>
      <trkpt lat="43.43469" lon="6.42021">
        <ele>105.699997</ele>
        <time>2012-09-09T11:15:06Z</time>
      </trkpt>
      <trkpt lat="43.43466" lon="6.42033">
        <ele>106.400002</ele>
        <time>2012-09-09T11:15:19Z</time>
      </trkpt>
      <trkpt lat="43.43463" lon="6.42045">
        <ele>106.400002</ele>
        <time>2012-09-09T11:15:46Z</time>
      </trkpt>
      <trkpt lat="43.43463" lon="6.42046">
        <ele>106.400002</ele>
        <time>2012-09-09T11:15:47Z</time>
      </trkpt>
      <trkpt lat="43.43457" lon="6.42066">
        <ele>106.900002</ele>
        <time>2012-09-09T11:16:16Z</time>
      </trkpt>
      <trkpt lat="43.43454" lon="6.42077">
        <ele>107.599998</ele>
        <time>2012-09-09T11:16:27Z</time>
      </trkpt>
      <trkpt lat="43.43451" lon="6.42088">
        <ele>107.699997</ele>
        <time>2012-09-09T11:16:36Z</time>
      </trkpt>
      <trkpt lat="43.43451" lon="6.42099">
        <ele>107.900002</ele>
        <time>2012-09-09T11:16:43Z</time>
      </trkpt>
      <trkpt lat="43.4345" lon="6.42111">
        <ele>108.099998</ele>
        <time>2012-09-09T11:16:51Z</time>
      </trkpt>
      <trkpt lat="43.4345" lon="6.42112">
        <ele>108.099998</ele>
        <time>2012-09-09T11:16:52Z</time>
      </trkpt>
      <trkpt lat="43.43448" lon="6.42134">
        <ele>108.599998</ele>
        <time>2012-09-09T11:17:09Z</time>
      </trkpt>
      <trkpt lat="43.43446" lon="6.42145">
        <ele>109.099998</ele>
        <time>2012-09-09T11:17:18Z</time>
      </trkpt>
      <trkpt lat="43.43447" lon="6.42156">
        <ele>109.599998</ele>
        <time>2012-09-09T11:17:25Z</time>
      </trkpt>
      <trkpt lat="43.43449" lon="6.42168">
        <ele>109.5</ele>
        <time>2012-09-09T11:17:33Z</time>
      </trkpt>
      <trkpt lat="43.43455" lon="6.42177">
        <ele>109.300003</ele>
        <time>2012-09-09T11:17:57Z</time>
      </trkpt>
      <trkpt lat="43.43455" lon="6.42178">
        <ele>109.199997</ele>
        <time>2012-09-09T11:17:58Z</time>
      </trkpt>
      <trkpt lat="43.43462" lon="6.42198">
        <ele>109.5</ele>
        <time>2012-09-09T11:18:28Z</time>
      </trkpt>
      <trkpt lat="43.43467" lon="6.42207">
        <ele>109.300003</ele>
        <time>2012-09-09T11:18:36Z</time>
      </trkpt>
      <trkpt lat="43.43474" lon="6.42213">
        <ele>108.5</ele>
        <time>2012-09-09T11:18:46Z</time>
      </trkpt>
      <trkpt lat="43.43481" lon="6.42221">
        <ele>109</ele>
        <time>2012-09-09T11:18:55Z</time>
      </trkpt>
      <trkpt lat="43.43487" lon="6.42229">
        <ele>108.900002</ele>
        <time>2012-09-09T11:19:15Z</time>
      </trkpt>
      <trkpt lat="43.43488" lon="6.4223">
        <ele>108.900002</ele>
        <time>2012-09-09T11:19:16Z</time>
      </trkpt>
      <trkpt lat="43.43502" lon="6.4224">
        <ele>108.5</ele>
        <time>2012-09-09T11:19:32Z</time>
      </trkpt>
      <trkpt lat="43.4351" lon="6.42246">
        <ele>108.199997</ele>
        <time>2012-09-09T11:19:41Z</time>
      </trkpt>
      <trkpt lat="43.43518" lon="6.42247">
        <ele>108.900002</ele>
        <time>2012-09-09T11:19:50Z</time>
      </trkpt>
      <trkpt lat="43.43527" lon="6.42248">
        <ele>108.599998</ele>
        <time>2012-09-09T11:19:58Z</time>
      </trkpt>
      <trkpt lat="43.43536" lon="6.42247">
        <ele>108.699997</ele>
        <time>2012-09-09T11:20:22Z</time>
      </trkpt>
      <trkpt lat="43.43537" lon="6.42247">
        <ele>108.800003</ele>
        <time>2012-09-09T11:20:23Z</time>
      </trkpt>
      <trkpt lat="43.43552" lon="6.42238">
        <ele>109.300003</ele>
        <time>2012-09-09T11:20:41Z</time>
      </trkpt>
      <trkpt lat="43.4356" lon="6.42235">
        <ele>110.099998</ele>
        <time>2012-09-09T11:20:57Z</time>
      </trkpt>
      <trkpt lat="43.43568" lon="6.4223">
        <ele>109.699997</ele>
        <time>2012-09-09T11:21:05Z</time>
      </trkpt>
      <trkpt lat="43.43576" lon="6.42225">
        <ele>109.800003</ele>
        <time>2012-09-09T11:21:15Z</time>
      </trkpt>
      <trkpt lat="43.43583" lon="6.42219">
        <ele>109.900002</ele>
        <time>2012-09-09T11:21:25Z</time>
      </trkpt>
      <trkpt lat="43.43584" lon="6.42218">
        <ele>110</ele>
        <time>2012-09-09T11:21:26Z</time>
      </trkpt>
      <trkpt lat="43.43596" lon="6.42205">
        <ele>109.900002</ele>
        <time>2012-09-09T11:21:43Z</time>
      </trkpt>
      <trkpt lat="43.43602" lon="6.42197">
        <ele>110.099998</ele>
        <time>2012-09-09T11:21:51Z</time>
      </trkpt>
      <trkpt lat="43.43609" lon="6.4219">
        <ele>110.599998</ele>
        <time>2012-09-09T11:21:58Z</time>
      </trkpt>
      <trkpt lat="43.43615" lon="6.42182">
        <ele>110.300003</ele>
        <time>2012-09-09T11:22:04Z</time>
      </trkpt>
      <trkpt lat="43.43621" lon="6.42174">
        <ele>110.900002</ele>
        <time>2012-09-09T11:22:12Z</time>
      </trkpt>
      <trkpt lat="43.43627" lon="6.42165">
        <ele>110.599998</ele>
        <time>2012-09-09T11:22:19Z</time>
      </trkpt>
      <trkpt lat="43.43631" lon="6.42155">
        <ele>110.900002</ele>
        <time>2012-09-09T11:22:28Z</time>
      </trkpt>
      <trkpt lat="43.43632" lon="6.42153">
        <ele>110.699997</ele>
        <time>2012-09-09T11:22:29Z</time>
      </trkpt>
      <trkpt lat="43.43638" lon="6.42134">
        <ele>110.5</ele>
        <time>2012-09-09T11:22:44Z</time>
      </trkpt>
      <trkpt lat="43.4364" lon="6.42122">
        <ele>110.5</ele>
        <time>2012-09-09T11:22:53Z</time>
      </trkpt>
      <trkpt lat="43.43644" lon="6.42113">
        <ele>110.300003</ele>
        <time>2012-09-09T11:23:02Z</time>
      </trkpt>
      <trkpt lat="43.43644" lon="6.42101">
        <ele>110</ele>
        <time>2012-09-09T11:23:11Z</time>
      </trkpt>
      <trkpt lat="43.43646" lon="6.4209">
        <ele>109.699997</ele>
        <time>2012-09-09T11:23:19Z</time>
      </trkpt>
      <trkpt lat="43.43644" lon="6.42078">
        <ele>109.5</ele>
        <time>2012-09-09T11:23:34Z</time>
      </trkpt>
      <trkpt lat="43.43643" lon="6.42077">
        <ele>109.5</ele>
        <time>2012-09-09T11:23:35Z</time>
      </trkpt>
      <trkpt lat="43.43642" lon="6.42056">
        <ele>110</ele>
        <time>2012-09-09T11:23:51Z</time>
      </trkpt>
      <trkpt lat="43.43641" lon="6.42045">
        <ele>110</ele>
        <time>2012-09-09T11:23:58Z</time>
      </trkpt>
      <trkpt lat="43.4364" lon="6.42033">
        <ele>110.400002</ele>
        <time>2012-09-09T11:24:05Z</time>
      </trkpt>
      <trkpt lat="43.43639" lon="6.42022">
        <ele>109.699997</ele>
        <time>2012-09-09T11:24:12Z</time>
      </trkpt>
      <trkpt lat="43.43635" lon="6.42011">
        <ele>109.599998</ele>
        <time>2012-09-09T11:24:21Z</time>
      </trkpt>
      <trkpt lat="43.43632" lon="6.42">
        <ele>110.199997</ele>
        <time>2012-09-09T11:24:31Z</time>
      </trkpt>
      <trkpt lat="43.43632" lon="6.4199">
        <ele>109.699997</ele>
        <time>2012-09-09T11:24:37Z</time>
      </trkpt>
      <trkpt lat="43.43632" lon="6.41988">
        <ele>109.800003</ele>
        <time>2012-09-09T11:24:38Z</time>
      </trkpt>
      <trkpt lat="43.43635" lon="6.41967">
        <ele>109.699997</ele>
        <time>2012-09-09T11:24:53Z</time>
      </trkpt>
      <trkpt lat="43.43638" lon="6.41956">
        <ele>110</ele>
        <time>2012-09-09T11:25:02Z</time>
      </trkpt>
      <trkpt lat="43.43642" lon="6.41946">
        <ele>110.400002</ele>
        <time>2012-09-09T11:25:11Z</time>
      </trkpt>
      <trkpt lat="43.43645" lon="6.41935">
        <ele>110.199997</ele>
        <time>2012-09-09T11:25:20Z</time>
      </trkpt>
      <trkpt lat="43.43649" lon="6.41925">
        <ele>109.699997</ele>
        <time>2012-09-09T11:25:29Z</time>
      </trkpt>
      <trkpt lat="43.43645" lon="6.41914">
        <ele>109.900002</ele>
        <time>2012-09-09T11:25:53Z</time>
      </trkpt>
      <trkpt lat="43.43645" lon="6.41913">
        <ele>109.900002</ele>
        <time>2012-09-09T11:25:54Z</time>
      </trkpt>
      <trkpt lat="43.43642" lon="6.41891">
        <ele>111.199997</ele>
        <time>2012-09-09T11:27:13Z</time>
      </trkpt>
      <trkpt lat="43.43642" lon="6.4189">
        <ele>111.199997</ele>
        <time>2012-09-09T11:27:14Z</time>
      </trkpt>
      <trkpt lat="43.43637" lon="6.41869">
        <ele>110.800003</ele>
        <time>2012-09-09T11:27:57Z</time>
      </trkpt>
      <trkpt lat="43.43638" lon="6.41858">
        <ele>111.5</ele>
        <time>2012-09-09T11:28:07Z</time>
      </trkpt>
      <trkpt lat="43.43642" lon="6.41847">
        <ele>111.800003</ele>
        <time>2012-09-09T11:28:17Z</time>
      </trkpt>
      <trkpt lat="43.43641" lon="6.41846">
        <ele>111.900002</ele>
        <time>2012-09-09T11:28:18Z</time>
      </trkpt>
      <trkpt lat="43.43649" lon="6.41826">
        <ele>112.599998</ele>
        <time>2012-09-09T11:28:44Z</time>
      </trkpt>
      <trkpt lat="43.43655" lon="6.41818">
        <ele>112.699997</ele>
        <time>2012-09-09T11:28:52Z</time>
      </trkpt>
      <trkpt lat="43.4366" lon="6.4181">
        <ele>113.5</ele>
        <time>2012-09-09T11:29:00Z</time>
      </trkpt>
      <trkpt lat="43.43665" lon="6.41801">
        <ele>114.5</ele>
        <time>2012-09-09T11:29:08Z</time>
      </trkpt>
      <trkpt lat="43.43671" lon="6.41793">
        <ele>114.699997</ele>
        <time>2012-09-09T11:29:15Z</time>
      </trkpt>
      <trkpt lat="43.43678" lon="6.41785">
        <ele>115.199997</ele>
        <time>2012-09-09T11:29:25Z</time>
      </trkpt>
      <trkpt lat="43.43678" lon="6.41785">
        <ele>115.400002</ele>
        <time>2012-09-09T11:29:26Z</time>
      </trkpt>
      <trkpt lat="43.43691" lon="6.41771">
        <ele>116.699997</ele>
        <time>2012-09-09T11:29:44Z</time>
      </trkpt>
      <trkpt lat="43.43695" lon="6.41761">
        <ele>117.400002</ele>
        <time>2012-09-09T11:29:54Z</time>
      </trkpt>
      <trkpt lat="43.43702" lon="6.41754">
        <ele>118</ele>
        <time>2012-09-09T11:30:03Z</time>
      </trkpt>
      <trkpt lat="43.43707" lon="6.41744">
        <ele>119.099998</ele>
        <time>2012-09-09T11:30:12Z</time>
      </trkpt>
      <trkpt lat="43.43714" lon="6.41737">
        <ele>119.300003</ele>
        <time>2012-09-09T11:30:18Z</time>
      </trkpt>
      <trkpt lat="43.4372" lon="6.41729">
        <ele>120.300003</ele>
        <time>2012-09-09T11:30:26Z</time>
      </trkpt>
      <trkpt lat="43.43721" lon="6.41727">
        <ele>120.300003</ele>
        <time>2012-09-09T11:30:27Z</time>
      </trkpt>
      <trkpt lat="43.43733" lon="6.41715">
        <ele>120.599998</ele>
        <time>2012-09-09T11:30:38Z</time>
      </trkpt>
      <trkpt lat="43.43739" lon="6.41707">
        <ele>121.699997</ele>
        <time>2012-09-09T11:30:46Z</time>
      </trkpt>
      <trkpt lat="43.43746" lon="6.41702">
        <ele>122</ele>
        <time>2012-09-09T11:30:53Z</time>
      </trkpt>
      <trkpt lat="43.43755" lon="6.41698">
        <ele>122.400002</ele>
        <time>2012-09-09T11:31:04Z</time>
      </trkpt>
      <trkpt lat="43.43763" lon="6.41697">
        <ele>122.699997</ele>
        <time>2012-09-09T11:31:13Z</time>
      </trkpt>
      <trkpt lat="43.4377" lon="6.4169">
        <ele>123.099998</ele>
        <time>2012-09-09T11:31:20Z</time>
      </trkpt>
      <trkpt lat="43.43774" lon="6.41681">
        <ele>123.599998</ele>
        <time>2012-09-09T11:31:28Z</time>
      </trkpt>
      <trkpt lat="43.43775" lon="6.4168">
        <ele>123.599998</ele>
        <time>2012-09-09T11:31:29Z</time>
      </trkpt>
      <trkpt lat="43.43783" lon="6.41661">
        <ele>124.400002</ele>
        <time>2012-09-09T11:31:44Z</time>
      </trkpt>
      <trkpt lat="43.43787" lon="6.41652">
        <ele>124.400002</ele>
        <time>2012-09-09T11:31:52Z</time>
      </trkpt>
      <trkpt lat="43.4379" lon="6.4164">
        <ele>125.400002</ele>
        <time>2012-09-09T11:32:01Z</time>
      </trkpt>
      <trkpt lat="43.43793" lon="6.41629">
        <ele>126</ele>
        <time>2012-09-09T11:32:10Z</time>
      </trkpt>
      <trkpt lat="43.43795" lon="6.41618">
        <ele>126.400002</ele>
        <time>2012-09-09T11:32:19Z</time>
      </trkpt>
      <trkpt lat="43.43798" lon="6.41607">
        <ele>126.599998</ele>
        <time>2012-09-09T11:32:26Z</time>
      </trkpt>
      <trkpt lat="43.43801" lon="6.41595">
        <ele>126.900002</ele>
        <time>2012-09-09T11:32:35Z</time>
      </trkpt>
      <trkpt lat="43.43802" lon="6.41594">
        <ele>126.900002</ele>
        <time>2012-09-09T11:32:36Z</time>
      </trkpt>
      <trkpt lat="43.43805" lon="6.41574">
        <ele>127.5</ele>
        <time>2012-09-09T11:32:50Z</time>
      </trkpt>
      <trkpt lat="43.43807" lon="6.41561">
        <ele>127.900002</ele>
        <time>2012-09-09T11:33:00Z</time>
      </trkpt>
      <trkpt lat="43.43814" lon="6.41555">
        <ele>128.199997</ele>
        <time>2012-09-09T11:33:06Z</time>
      </trkpt>
      <trkpt lat="43.43819" lon="6.41547">
        <ele>128.5</ele>
        <time>2012-09-09T11:33:17Z</time>
      </trkpt>
      <trkpt lat="43.43826" lon="6.41545">
        <ele>128.699997</ele>
        <time>2012-09-09T11:33:22Z</time>
      </trkpt>
      <trkpt lat="43.43834" lon="6.41538">
        <ele>129.399994</ele>
        <time>2012-09-09T11:33:30Z</time>
      </trkpt>
      <trkpt lat="43.43841" lon="6.41532">
        <ele>129</ele>
        <time>2012-09-09T11:33:39Z</time>
      </trkpt>
      <trkpt lat="43.43842" lon="6.41531">
        <ele>129.100006</ele>
        <time>2012-09-09T11:33:40Z</time>
      </trkpt>
      <trkpt lat="43.43854" lon="6.41517">
        <ele>130</ele>
        <time>2012-09-09T11:33:54Z</time>
      </trkpt>
      <trkpt lat="43.43862" lon="6.41512">
        <ele>130.300003</ele>
        <time>2012-09-09T11:34:02Z</time>
      </trkpt>
      <trkpt lat="43.43868" lon="6.41503">
        <ele>131.199997</ele>
        <time>2012-09-09T11:34:12Z</time>
      </trkpt>
      <trkpt lat="43.43873" lon="6.41493">
        <ele>131.199997</ele>
        <time>2012-09-09T11:34:21Z</time>
      </trkpt>
      <trkpt lat="43.43882" lon="6.4149">
        <ele>131.399994</ele>
        <time>2012-09-09T11:34:29Z</time>
      </trkpt>
      <trkpt lat="43.43887" lon="6.41481">
        <ele>132.100006</ele>
        <time>2012-09-09T11:34:37Z</time>
      </trkpt>
      <trkpt lat="43.43894" lon="6.41475">
        <ele>132.600006</ele>
        <time>2012-09-09T11:34:43Z</time>
      </trkpt>
      <trkpt lat="43.43895" lon="6.41474">
        <ele>132.800003</ele>
        <time>2012-09-09T11:34:44Z</time>
      </trkpt>
      <trkpt lat="43.43909" lon="6.41464">
        <ele>133.699997</ele>
        <time>2012-09-09T11:35:00Z</time>
      </trkpt>
      <trkpt lat="43.43918" lon="6.41461">
        <ele>133.899994</ele>
        <time>2012-09-09T11:35:13Z</time>
      </trkpt>
      <trkpt lat="43.43926" lon="6.41463">
        <ele>134.800003</ele>
        <time>2012-09-09T11:35:23Z</time>
      </trkpt>
      <trkpt lat="43.43934" lon="6.41467">
        <ele>135.399994</ele>
        <time>2012-09-09T11:35:34Z</time>
      </trkpt>
      <trkpt lat="43.43941" lon="6.41473">
        <ele>135.699997</ele>
        <time>2012-09-09T11:35:43Z</time>
      </trkpt>
      <trkpt lat="43.43948" lon="6.41478">
        <ele>136</ele>
        <time>2012-09-09T11:35:51Z</time>
      </trkpt>
      <trkpt lat="43.43949" lon="6.41479">
        <ele>135.899994</ele>
        <time>2012-09-09T11:35:52Z</time>
      </trkpt>
      <trkpt lat="43.43962" lon="6.41489">
        <ele>136.800003</ele>
        <time>2012-09-09T11:36:06Z</time>
      </trkpt>
      <trkpt lat="43.43969" lon="6.41496">
        <ele>136.899994</ele>
        <time>2012-09-09T11:36:13Z</time>
      </trkpt>
      <trkpt lat="43.43976" lon="6.41499">
        <ele>136.800003</ele>
        <time>2012-09-09T11:36:19Z</time>
      </trkpt>
      <trkpt lat="43.43983" lon="6.41506">
        <ele>136.899994</ele>
        <time>2012-09-09T11:36:26Z</time>
      </trkpt>
      <trkpt lat="43.4399" lon="6.41511">
        <ele>136.399994</ele>
        <time>2012-09-09T11:36:36Z</time>
      </trkpt>
      <trkpt lat="43.43998" lon="6.41515">
        <ele>136.600006</ele>
        <time>2012-09-09T11:36:46Z</time>
      </trkpt>
      <trkpt lat="43.44006" lon="6.4152">
        <ele>137.300003</ele>
        <time>2012-09-09T11:36:53Z</time>
      </trkpt>
      <trkpt lat="43.44007" lon="6.41522">
        <ele>137.199997</ele>
        <time>2012-09-09T11:36:54Z</time>
      </trkpt>
      <trkpt lat="43.44019" lon="6.41533">
        <ele>136.899994</ele>
        <time>2012-09-09T11:37:12Z</time>
      </trkpt>
      <trkpt lat="43.44026" lon="6.4154">
        <ele>137.300003</ele>
        <time>2012-09-09T11:37:19Z</time>
      </trkpt>
      <trkpt lat="43.44035" lon="6.41543">
        <ele>137.699997</ele>
        <time>2012-09-09T11:37:26Z</time>
      </trkpt>
      <trkpt lat="43.44043" lon="6.41543">
        <ele>138.199997</ele>
        <time>2012-09-09T11:37:31Z</time>
      </trkpt>
      <trkpt lat="43.44049" lon="6.41533">
        <ele>139.399994</ele>
        <time>2012-09-09T11:37:40Z</time>
      </trkpt>
      <trkpt lat="43.44055" lon="6.41525">
        <ele>139.899994</ele>
        <time>2012-09-09T11:37:49Z</time>
      </trkpt>
      <trkpt lat="43.44061" lon="6.41517">
        <ele>140.300003</ele>
        <time>2012-09-09T11:37:59Z</time>
      </trkpt>
      <trkpt lat="43.44062" lon="6.41516">
        <ele>140.199997</ele>
        <time>2012-09-09T11:38:00Z</time>
      </trkpt>
      <trkpt lat="43.44069" lon="6.41496">
        <ele>141.699997</ele>
        <time>2012-09-09T11:38:19Z</time>
      </trkpt>
      <trkpt lat="43.4407" lon="6.41486">
        <ele>141.899994</ele>
        <time>2012-09-09T11:38:25Z</time>
      </trkpt>
      <trkpt lat="43.44074" lon="6.41474">
        <ele>141.699997</ele>
        <time>2012-09-09T11:38:33Z</time>
      </trkpt>
      <trkpt lat="43.44076" lon="6.41464">
        <ele>142.199997</ele>
        <time>2012-09-09T11:38:40Z</time>
      </trkpt>
      <trkpt lat="43.44081" lon="6.41454">
        <ele>142.699997</ele>
        <time>2012-09-09T11:38:47Z</time>
      </trkpt>
      <trkpt lat="43.44086" lon="6.41444">
        <ele>142.699997</ele>
        <time>2012-09-09T11:38:58Z</time>
      </trkpt>
      <trkpt lat="43.44088" lon="6.41432">
        <ele>142.699997</ele>
        <time>2012-09-09T11:39:07Z</time>
      </trkpt>
      <trkpt lat="43.44088" lon="6.41431">
        <ele>142.800003</ele>
        <time>2012-09-09T11:39:08Z</time>
      </trkpt>
      <trkpt lat="43.44095" lon="6.41414">
        <ele>142.899994</ele>
        <time>2012-09-09T11:43:24Z</time>
      </trkpt>
      <trkpt lat="43.44096" lon="6.41412">
        <ele>142.899994</ele>
        <time>2012-09-09T11:43:25Z</time>
      </trkpt>
      <trkpt lat="43.44109" lon="6.41405">
        <ele>144.399994</ele>
        <time>2012-09-09T11:43:43Z</time>
      </trkpt>
      <trkpt lat="43.44118" lon="6.41406">
        <ele>144.5</ele>
        <time>2012-09-09T11:43:50Z</time>
      </trkpt>
      <trkpt lat="43.44125" lon="6.4141">
        <ele>145.100006</ele>
        <time>2012-09-09T11:43:57Z</time>
      </trkpt>
      <trkpt lat="43.44133" lon="6.4141">
        <ele>145</ele>
        <time>2012-09-09T11:44:06Z</time>
      </trkpt>
      <trkpt lat="43.44141" lon="6.41411">
        <ele>145</ele>
        <time>2012-09-09T11:44:14Z</time>
      </trkpt>
      <trkpt lat="43.44149" lon="6.41415">
        <ele>145.699997</ele>
        <time>2012-09-09T11:44:23Z</time>
      </trkpt>
      <trkpt lat="43.44156" lon="6.41419">
        <ele>146.100006</ele>
        <time>2012-09-09T11:44:30Z</time>
      </trkpt>
      <trkpt lat="43.44157" lon="6.4142">
        <ele>146.199997</ele>
        <time>2012-09-09T11:44:31Z</time>
      </trkpt>
      <trkpt lat="43.44172" lon="6.41427">
        <ele>146.899994</ele>
        <time>2012-09-09T11:44:45Z</time>
      </trkpt>
      <trkpt lat="43.44179" lon="6.41433">
        <ele>146.800003</ele>
        <time>2012-09-09T11:44:52Z</time>
      </trkpt>
      <trkpt lat="43.44185" lon="6.41442">
        <ele>147.5</ele>
        <time>2012-09-09T11:45:01Z</time>
      </trkpt>
      <trkpt lat="43.44193" lon="6.41448">
        <ele>148.199997</ele>
        <time>2012-09-09T11:45:11Z</time>
      </trkpt>
      <trkpt lat="43.44201" lon="6.4145">
        <ele>148.300003</ele>
        <time>2012-09-09T11:45:24Z</time>
      </trkpt>
      <trkpt lat="43.44209" lon="6.41455">
        <ele>148.600006</ele>
        <time>2012-09-09T11:45:33Z</time>
      </trkpt>
      <trkpt lat="43.4421" lon="6.41455">
        <ele>148.5</ele>
        <time>2012-09-09T11:45:34Z</time>
      </trkpt>
      <trkpt lat="43.44223" lon="6.41467">
        <ele>148.899994</ele>
        <time>2012-09-09T11:45:51Z</time>
      </trkpt>
      <trkpt lat="43.44231" lon="6.41472">
        <ele>148.699997</ele>
        <time>2012-09-09T11:46:00Z</time>
      </trkpt>
      <trkpt lat="43.44239" lon="6.41477">
        <ele>148.899994</ele>
        <time>2012-09-09T11:46:07Z</time>
      </trkpt>
      <trkpt lat="43.44246" lon="6.41482">
        <ele>149</ele>
        <time>2012-09-09T11:46:14Z</time>
      </trkpt>
      <trkpt lat="43.44254" lon="6.41485">
        <ele>149.300003</ele>
        <time>2012-09-09T11:46:25Z</time>
      </trkpt>
      <trkpt lat="43.44262" lon="6.41489">
        <ele>149.800003</ele>
        <time>2012-09-09T11:46:32Z</time>
      </trkpt>
      <trkpt lat="43.4427" lon="6.41493">
        <ele>150.100006</ele>
        <time>2012-09-09T11:46:40Z</time>
      </trkpt>
      <trkpt lat="43.44271" lon="6.41494">
        <ele>150.199997</ele>
        <time>2012-09-09T11:46:41Z</time>
      </trkpt>
      <trkpt lat="43.44283" lon="6.41504">
        <ele>151</ele>
        <time>2012-09-09T11:46:54Z</time>
      </trkpt>
      <trkpt lat="43.4429" lon="6.41508">
        <ele>150.800003</ele>
        <time>2012-09-09T11:46:59Z</time>
      </trkpt>
      <trkpt lat="43.44299" lon="6.41508">
        <ele>151.399994</ele>
        <time>2012-09-09T11:47:06Z</time>
      </trkpt>
      <trkpt lat="43.44306" lon="6.41503">
        <ele>151.600006</ele>
        <time>2012-09-09T11:47:15Z</time>
      </trkpt>
      <trkpt lat="43.44314" lon="6.41503">
        <ele>152.600006</ele>
        <time>2012-09-09T11:47:25Z</time>
      </trkpt>
      <trkpt lat="43.44322" lon="6.41506">
        <ele>153</ele>
        <time>2012-09-09T11:47:34Z</time>
      </trkpt>
      <trkpt lat="43.44329" lon="6.41506">
        <ele>153</ele>
        <time>2012-09-09T11:47:39Z</time>
      </trkpt>
      <trkpt lat="43.44338" lon="6.41503">
        <ele>153.100006</ele>
        <time>2012-09-09T11:47:47Z</time>
      </trkpt>
      <trkpt lat="43.44339" lon="6.41502">
        <ele>153.300003</ele>
        <time>2012-09-09T11:47:48Z</time>
      </trkpt>
      <trkpt lat="43.44346" lon="6.41483">
        <ele>153.899994</ele>
        <time>2012-09-09T11:48:03Z</time>
      </trkpt>
      <trkpt lat="43.44349" lon="6.41472">
        <ele>154.300003</ele>
        <time>2012-09-09T11:48:12Z</time>
      </trkpt>
      <trkpt lat="43.44351" lon="6.41461">
        <ele>153.800003</ele>
        <time>2012-09-09T11:48:20Z</time>
      </trkpt>
      <trkpt lat="43.44353" lon="6.4145">
        <ele>153.600006</ele>
        <time>2012-09-09T11:48:27Z</time>
      </trkpt>
      <trkpt lat="43.44352" lon="6.41439">
        <ele>153.300003</ele>
        <time>2012-09-09T11:48:35Z</time>
      </trkpt>
      <trkpt lat="43.44355" lon="6.41429">
        <ele>153.5</ele>
        <time>2012-09-09T11:48:42Z</time>
      </trkpt>
      <trkpt lat="43.44358" lon="6.41419">
        <ele>153.600006</ele>
        <time>2012-09-09T11:48:48Z</time>
      </trkpt>
      <trkpt lat="43.44358" lon="6.41417">
        <ele>153.5</ele>
        <time>2012-09-09T11:48:49Z</time>
      </trkpt>
      <trkpt lat="43.44363" lon="6.41396">
        <ele>153.199997</ele>
        <time>2012-09-09T11:49:03Z</time>
      </trkpt>
      <trkpt lat="43.44367" lon="6.41385">
        <ele>153.199997</ele>
        <time>2012-09-09T11:49:11Z</time>
      </trkpt>
      <trkpt lat="43.44367" lon="6.41374">
        <ele>153.600006</ele>
        <time>2012-09-09T11:49:19Z</time>
      </trkpt>
      <trkpt lat="43.44368" lon="6.41362">
        <ele>152.5</ele>
        <time>2012-09-09T11:49:27Z</time>
      </trkpt>
      <trkpt lat="43.44372" lon="6.41353">
        <ele>153.100006</ele>
        <time>2012-09-09T11:49:34Z</time>
      </trkpt>
      <trkpt lat="43.44376" lon="6.41342">
        <ele>153</ele>
        <time>2012-09-09T11:49:41Z</time>
      </trkpt>
      <trkpt lat="43.4438" lon="6.41334">
        <ele>153</ele>
        <time>2012-09-09T11:49:48Z</time>
      </trkpt>
      <trkpt lat="43.44384" lon="6.41323">
        <ele>152.899994</ele>
        <time>2012-09-09T11:49:55Z</time>
      </trkpt>
      <trkpt lat="43.44385" lon="6.41321">
        <ele>152.899994</ele>
        <time>2012-09-09T11:49:56Z</time>
      </trkpt>
      <trkpt lat="43.44393" lon="6.41304">
        <ele>152.600006</ele>
        <time>2012-09-09T11:50:09Z</time>
      </trkpt>
      <trkpt lat="43.44396" lon="6.41292">
        <ele>152.199997</ele>
        <time>2012-09-09T11:50:18Z</time>
      </trkpt>
      <trkpt lat="43.44402" lon="6.41285">
        <ele>151.100006</ele>
        <time>2012-09-09T11:50:26Z</time>
      </trkpt>
      <trkpt lat="43.44407" lon="6.41277">
        <ele>151.100006</ele>
        <time>2012-09-09T11:50:32Z</time>
      </trkpt>
      <trkpt lat="43.44413" lon="6.41269">
        <ele>150.600006</ele>
        <time>2012-09-09T11:50:38Z</time>
      </trkpt>
      <trkpt lat="43.44419" lon="6.4126">
        <ele>149.899994</ele>
        <time>2012-09-09T11:50:44Z</time>
      </trkpt>
      <trkpt lat="43.44421" lon="6.4125">
        <ele>149.5</ele>
        <time>2012-09-09T11:50:50Z</time>
      </trkpt>
      <trkpt lat="43.44425" lon="6.4124">
        <ele>148.800003</ele>
        <time>2012-09-09T11:50:58Z</time>
      </trkpt>
      <trkpt lat="43.44426" lon="6.41237">
        <ele>148.899994</ele>
        <time>2012-09-09T11:50:59Z</time>
      </trkpt>
      <trkpt lat="43.44427" lon="6.41217">
        <ele>148.600006</ele>
        <time>2012-09-09T11:51:14Z</time>
      </trkpt>
      <trkpt lat="43.44427" lon="6.41206">
        <ele>148.399994</ele>
        <time>2012-09-09T11:51:21Z</time>
      </trkpt>
      <trkpt lat="43.44426" lon="6.41194">
        <ele>148.300003</ele>
        <time>2012-09-09T11:51:28Z</time>
      </trkpt>
      <trkpt lat="43.44426" lon="6.41183">
        <ele>148.199997</ele>
        <time>2012-09-09T11:51:35Z</time>
      </trkpt>
      <trkpt lat="43.44428" lon="6.41172">
        <ele>147.600006</ele>
        <time>2012-09-09T11:51:43Z</time>
      </trkpt>
      <trkpt lat="43.44428" lon="6.4116">
        <ele>147.800003</ele>
        <time>2012-09-09T11:51:50Z</time>
      </trkpt>
      <trkpt lat="43.44429" lon="6.41148">
        <ele>147.5</ele>
        <time>2012-09-09T11:51:59Z</time>
      </trkpt>
      <trkpt lat="43.44429" lon="6.41147">
        <ele>147.600006</ele>
        <time>2012-09-09T11:52:00Z</time>
      </trkpt>
      <trkpt lat="43.44432" lon="6.41128">
        <ele>147.199997</ele>
        <time>2012-09-09T11:52:11Z</time>
      </trkpt>
      <trkpt lat="43.44434" lon="6.41117">
        <ele>146.800003</ele>
        <time>2012-09-09T11:52:17Z</time>
      </trkpt>
      <trkpt lat="43.44437" lon="6.41108">
        <ele>146.800003</ele>
        <time>2012-09-09T11:52:22Z</time>
      </trkpt>
      <trkpt lat="43.44439" lon="6.41097">
        <ele>146.800003</ele>
        <time>2012-09-09T11:52:30Z</time>
      </trkpt>
      <trkpt lat="43.44443" lon="6.41087">
        <ele>146.100006</ele>
        <time>2012-09-09T11:52:38Z</time>
      </trkpt>
      <trkpt lat="43.44444" lon="6.41075">
        <ele>144.600006</ele>
        <time>2012-09-09T11:52:46Z</time>
      </trkpt>
      <trkpt lat="43.44444" lon="6.41064">
        <ele>144.699997</ele>
        <time>2012-09-09T11:52:53Z</time>
      </trkpt>
      <trkpt lat="43.4445" lon="6.41055">
        <ele>144</ele>
        <time>2012-09-09T11:53:00Z</time>
      </trkpt>
      <trkpt lat="43.4445" lon="6.41054">
        <ele>144</ele>
        <time>2012-09-09T11:53:01Z</time>
      </trkpt>
      <trkpt lat="43.44447" lon="6.41036">
        <ele>142.5</ele>
        <time>2012-09-09T11:53:15Z</time>
      </trkpt>
      <trkpt lat="43.44442" lon="6.41027">
        <ele>141.899994</ele>
        <time>2012-09-09T11:53:25Z</time>
      </trkpt>
      <trkpt lat="43.44435" lon="6.41025">
        <ele>141.5</ele>
        <time>2012-09-09T11:53:32Z</time>
      </trkpt>
      <trkpt lat="43.44427" lon="6.41029">
        <ele>141.5</ele>
        <time>2012-09-09T11:53:39Z</time>
      </trkpt>
      <trkpt lat="43.44419" lon="6.41035">
        <ele>141.199997</ele>
        <time>2012-09-09T11:53:49Z</time>
      </trkpt>
      <trkpt lat="43.44411" lon="6.41038">
        <ele>139.800003</ele>
        <time>2012-09-09T11:53:56Z</time>
      </trkpt>
      <trkpt lat="43.44403" lon="6.41042">
        <ele>139.600006</ele>
        <time>2012-09-09T11:54:04Z</time>
      </trkpt>
      <trkpt lat="43.44402" lon="6.41042">
        <ele>139.300003</ele>
        <time>2012-09-09T11:54:05Z</time>
      </trkpt>
      <trkpt lat="43.44387" lon="6.41049">
        <ele>137</ele>
        <time>2012-09-09T11:54:20Z</time>
      </trkpt>
      <trkpt lat="43.44378" lon="6.4105">
        <ele>135.699997</ele>
        <time>2012-09-09T11:54:30Z</time>
      </trkpt>
      <trkpt lat="43.4437" lon="6.41052">
        <ele>134.899994</ele>
        <time>2012-09-09T11:54:40Z</time>
      </trkpt>
      <trkpt lat="43.44361" lon="6.41054">
        <ele>134.300003</ele>
        <time>2012-09-09T11:54:47Z</time>
      </trkpt>
      <trkpt lat="43.44353" lon="6.41056">
        <ele>133.5</ele>
        <time>2012-09-09T11:54:56Z</time>
      </trkpt>
      <trkpt lat="43.44345" lon="6.41054">
        <ele>133</ele>
        <time>2012-09-09T11:55:03Z</time>
      </trkpt>
      <trkpt lat="43.44337" lon="6.4106">
        <ele>133.399994</ele>
        <time>2012-09-09T11:55:11Z</time>
      </trkpt>
      <trkpt lat="43.44336" lon="6.4106">
        <ele>133.300003</ele>
        <time>2012-09-09T11:55:12Z</time>
      </trkpt>
      <trkpt lat="43.44322" lon="6.41068">
        <ele>132.199997</ele>
        <time>2012-09-09T11:55:27Z</time>
      </trkpt>
      <trkpt lat="43.44313" lon="6.41069">
        <ele>132.100006</ele>
        <time>2012-09-09T11:55:35Z</time>
      </trkpt>
      <trkpt lat="43.44305" lon="6.41068">
        <ele>132</ele>
        <time>2012-09-09T11:55:44Z</time>
      </trkpt>
      <trkpt lat="43.44296" lon="6.4107">
        <ele>131.199997</ele>
        <time>2012-09-09T11:55:52Z</time>
      </trkpt>
      <trkpt lat="43.44288" lon="6.41071">
        <ele>130.800003</ele>
        <time>2012-09-09T11:55:59Z</time>
      </trkpt>
      <trkpt lat="43.4428" lon="6.41073">
        <ele>130.199997</ele>
        <time>2012-09-09T11:56:05Z</time>
      </trkpt>
      <trkpt lat="43.44271" lon="6.41074">
        <ele>129.699997</ele>
        <time>2012-09-09T11:56:12Z</time>
      </trkpt>
      <trkpt lat="43.44271" lon="6.41074">
        <ele>129.600006</ele>
        <time>2012-09-09T11:56:13Z</time>
      </trkpt>
      <trkpt lat="43.44254" lon="6.41078">
        <ele>128.5</ele>
        <time>2012-09-09T11:56:29Z</time>
      </trkpt>
      <trkpt lat="43.44246" lon="6.41079">
        <ele>127.699997</ele>
        <time>2012-09-09T11:56:34Z</time>
      </trkpt>
      <trkpt lat="43.44239" lon="6.41083">
        <ele>126.900002</ele>
        <time>2012-09-09T11:56:41Z</time>
      </trkpt>
      <trkpt lat="43.4423" lon="6.41087">
        <ele>125.800003</ele>
        <time>2012-09-09T11:56:52Z</time>
      </trkpt>
      <trkpt lat="43.44224" lon="6.41095">
        <ele>124.699997</ele>
        <time>2012-09-09T11:56:59Z</time>
      </trkpt>
      <trkpt lat="43.44217" lon="6.41102">
        <ele>124.099998</ele>
        <time>2012-09-09T11:57:07Z</time>
      </trkpt>
      <trkpt lat="43.44209" lon="6.41106">
        <ele>123.5</ele>
        <time>2012-09-09T11:57:14Z</time>
      </trkpt>
      <trkpt lat="43.44208" lon="6.41106">
        <ele>123.699997</ele>
        <time>2012-09-09T11:57:15Z</time>
      </trkpt>
      <trkpt lat="43.44196" lon="6.41116">
        <ele>122.800003</ele>
        <time>2012-09-09T11:57:27Z</time>
      </trkpt>
      <trkpt lat="43.44188" lon="6.41121">
        <ele>122</ele>
        <time>2012-09-09T11:57:36Z</time>
      </trkpt>
      <trkpt lat="43.44181" lon="6.41127">
        <ele>121.900002</ele>
        <time>2012-09-09T11:57:43Z</time>
      </trkpt>
      <trkpt lat="43.44173" lon="6.4113">
        <ele>121.5</ele>
        <time>2012-09-09T11:57:50Z</time>
      </trkpt>
      <trkpt lat="43.44165" lon="6.41134">
        <ele>121.099998</ele>
        <time>2012-09-09T11:57:55Z</time>
      </trkpt>
      <trkpt lat="43.44158" lon="6.41141">
        <ele>121</ele>
        <time>2012-09-09T11:58:04Z</time>
      </trkpt>
      <trkpt lat="43.44151" lon="6.41146">
        <ele>120.5</ele>
        <time>2012-09-09T11:58:12Z</time>
      </trkpt>
      <trkpt lat="43.44143" lon="6.41149">
        <ele>120</ele>
        <time>2012-09-09T11:58:20Z</time>
      </trkpt>
      <trkpt lat="43.44142" lon="6.41149">
        <ele>120</ele>
        <time>2012-09-09T11:58:21Z</time>
      </trkpt>
      <trkpt lat="43.44128" lon="6.41155">
        <ele>119.199997</ele>
        <time>2012-09-09T11:58:32Z</time>
      </trkpt>
      <trkpt lat="43.44122" lon="6.41161">
        <ele>118.599998</ele>
        <time>2012-09-09T11:58:41Z</time>
      </trkpt>
      <trkpt lat="43.44114" lon="6.41167">
        <ele>118.400002</ele>
        <time>2012-09-09T11:58:50Z</time>
      </trkpt>
      <trkpt lat="43.44106" lon="6.41171">
        <ele>117.900002</ele>
        <time>2012-09-09T11:58:56Z</time>
      </trkpt>
      <trkpt lat="43.44099" lon="6.41178">
        <ele>117</ele>
        <time>2012-09-09T11:59:04Z</time>
      </trkpt>
      <trkpt lat="43.44091" lon="6.41179">
        <ele>115.900002</ele>
        <time>2012-09-09T11:59:11Z</time>
      </trkpt>
      <trkpt lat="43.44082" lon="6.41182">
        <ele>116.099998</ele>
        <time>2012-09-09T11:59:18Z</time>
      </trkpt>
      <trkpt lat="43.44074" lon="6.41186">
        <ele>115.5</ele>
        <time>2012-09-09T11:59:27Z</time>
      </trkpt>
      <trkpt lat="43.44073" lon="6.41186">
        <ele>115.5</ele>
        <time>2012-09-09T11:59:28Z</time>
      </trkpt>
      <trkpt lat="43.44058" lon="6.41188">
        <ele>114.400002</ele>
        <time>2012-09-09T11:59:39Z</time>
      </trkpt>
      <trkpt lat="43.44049" lon="6.41191">
        <ele>114.300003</ele>
        <time>2012-09-09T11:59:47Z</time>
      </trkpt>
      <trkpt lat="43.44042" lon="6.41191">
        <ele>114</ele>
        <time>2012-09-09T11:59:53Z</time>
      </trkpt>
      <trkpt lat="43.44035" lon="6.41194">
        <ele>113.199997</ele>
        <time>2012-09-09T12:00:01Z</time>
      </trkpt>
      <trkpt lat="43.44027" lon="6.41196">
        <ele>113.199997</ele>
        <time>2012-09-09T12:00:07Z</time>
      </trkpt>
      <trkpt lat="43.44019" lon="6.41197">
        <ele>113.199997</ele>
        <time>2012-09-09T12:00:14Z</time>
      </trkpt>
      <trkpt lat="43.44011" lon="6.412">
        <ele>112.5</ele>
        <time>2012-09-09T12:00:22Z</time>
      </trkpt>
      <trkpt lat="43.44002" lon="6.41204">
        <ele>111.800003</ele>
        <time>2012-09-09T12:00:32Z</time>
      </trkpt>
      <trkpt lat="43.44001" lon="6.41204">
        <ele>111.400002</ele>
        <time>2012-09-09T12:00:33Z</time>
      </trkpt>
      <trkpt lat="43.43987" lon="6.41211">
        <ele>110.599998</ele>
        <time>2012-09-09T12:00:46Z</time>
      </trkpt>
      <trkpt lat="43.43979" lon="6.41213">
        <ele>110.599998</ele>
        <time>2012-09-09T12:00:52Z</time>
      </trkpt>
      <trkpt lat="43.4397" lon="6.41215">
        <ele>111.099998</ele>
        <time>2012-09-09T12:00:58Z</time>
      </trkpt>
      <trkpt lat="43.43961" lon="6.41217">
        <ele>110.300003</ele>
        <time>2012-09-09T12:01:08Z</time>
      </trkpt>
      <trkpt lat="43.43953" lon="6.41221">
        <ele>110.699997</ele>
        <time>2012-09-09T12:01:14Z</time>
      </trkpt>
      <trkpt lat="43.43946" lon="6.41226">
        <ele>109.900002</ele>
        <time>2012-09-09T12:01:21Z</time>
      </trkpt>
      <trkpt lat="43.43937" lon="6.41229">
        <ele>109.400002</ele>
        <time>2012-09-09T12:01:28Z</time>
      </trkpt>
      <trkpt lat="43.4393" lon="6.41233">
        <ele>108.099998</ele>
        <time>2012-09-09T12:01:37Z</time>
      </trkpt>
      <trkpt lat="43.43929" lon="6.41234">
        <ele>108.099998</ele>
        <time>2012-09-09T12:01:38Z</time>
      </trkpt>
      <trkpt lat="43.43914" lon="6.41239">
        <ele>107.199997</ele>
        <time>2012-09-09T12:01:50Z</time>
      </trkpt>
      <trkpt lat="43.43906" lon="6.41241">
        <ele>106.699997</ele>
        <time>2012-09-09T12:01:57Z</time>
      </trkpt>
      <trkpt lat="43.43899" lon="6.41246">
        <ele>106.300003</ele>
        <time>2012-09-09T12:02:04Z</time>
      </trkpt>
      <trkpt lat="43.43892" lon="6.41251">
        <ele>105.5</ele>
        <time>2012-09-09T12:02:11Z</time>
      </trkpt>
      <trkpt lat="43.43883" lon="6.41253">
        <ele>105</ele>
        <time>2012-09-09T12:02:18Z</time>
      </trkpt>
      <trkpt lat="43.43874" lon="6.41255">
        <ele>104.599998</ele>
        <time>2012-09-09T12:02:24Z</time>
      </trkpt>
      <trkpt lat="43.43866" lon="6.41255">
        <ele>104.5</ele>
        <time>2012-09-09T12:02:33Z</time>
      </trkpt>
      <trkpt lat="43.43857" lon="6.41255">
        <ele>104.699997</ele>
        <time>2012-09-09T12:02:41Z</time>
      </trkpt>
      <trkpt lat="43.43856" lon="6.41255">
        <ele>104.5</ele>
        <time>2012-09-09T12:02:42Z</time>
      </trkpt>
      <trkpt lat="43.43841" lon="6.4126">
        <ele>104.199997</ele>
        <time>2012-09-09T12:02:56Z</time>
      </trkpt>
      <trkpt lat="43.43834" lon="6.41262">
        <ele>104.199997</ele>
        <time>2012-09-09T12:03:03Z</time>
      </trkpt>
      <trkpt lat="43.43825" lon="6.41266">
        <ele>104</ele>
        <time>2012-09-09T12:03:10Z</time>
      </trkpt>
      <trkpt lat="43.43817" lon="6.41267">
        <ele>103.5</ele>
        <time>2012-09-09T12:03:18Z</time>
      </trkpt>
      <trkpt lat="43.4381" lon="6.41272">
        <ele>102.300003</ele>
        <time>2012-09-09T12:03:24Z</time>
      </trkpt>
      <trkpt lat="43.43802" lon="6.41274">
        <ele>101.800003</ele>
        <time>2012-09-09T12:03:30Z</time>
      </trkpt>
      <trkpt lat="43.43794" lon="6.41275">
        <ele>101.5</ele>
        <time>2012-09-09T12:03:36Z</time>
      </trkpt>
      <trkpt lat="43.43786" lon="6.41281">
        <ele>99.5</ele>
        <time>2012-09-09T12:03:46Z</time>
      </trkpt>
      <trkpt lat="43.43785" lon="6.41282">
        <ele>99.5</ele>
        <time>2012-09-09T12:03:47Z</time>
      </trkpt>
      <trkpt lat="43.43773" lon="6.41297">
        <ele>97.5</ele>
        <time>2012-09-09T12:04:02Z</time>
      </trkpt>
      <trkpt lat="43.43768" lon="6.41305">
        <ele>96.099998</ele>
        <time>2012-09-09T12:04:10Z</time>
      </trkpt>
      <trkpt lat="43.4376" lon="6.41309">
        <ele>95.199997</ele>
        <time>2012-09-09T12:04:17Z</time>
      </trkpt>
      <trkpt lat="43.43753" lon="6.41316">
        <ele>93.800003</ele>
        <time>2012-09-09T12:04:24Z</time>
      </trkpt>
      <trkpt lat="43.43746" lon="6.41322">
        <ele>94</ele>
        <time>2012-09-09T12:04:31Z</time>
      </trkpt>
      <trkpt lat="43.43739" lon="6.4133">
        <ele>93.599998</ele>
        <time>2012-09-09T12:04:40Z</time>
      </trkpt>
      <trkpt lat="43.43731" lon="6.41337">
        <ele>93.099998</ele>
        <time>2012-09-09T12:04:48Z</time>
      </trkpt>
      <trkpt lat="43.43731" lon="6.41337">
        <ele>93.400002</ele>
        <time>2012-09-09T12:04:49Z</time>
      </trkpt>
      <trkpt lat="43.43717" lon="6.41347">
        <ele>91.800003</ele>
        <time>2012-09-09T12:05:04Z</time>
      </trkpt>
      <trkpt lat="43.43709" lon="6.41352">
        <ele>91.900002</ele>
        <time>2012-09-09T12:05:14Z</time>
      </trkpt>
      <trkpt lat="43.43702" lon="6.41358">
        <ele>91.599998</ele>
        <time>2012-09-09T12:05:22Z</time>
      </trkpt>
      <trkpt lat="43.43694" lon="6.41362">
        <ele>91.599998</ele>
        <time>2012-09-09T12:05:28Z</time>
      </trkpt>
      <trkpt lat="43.43686" lon="6.41363">
        <ele>91.400002</ele>
        <time>2012-09-09T12:05:36Z</time>
      </trkpt>
      <trkpt lat="43.4368" lon="6.4137">
        <ele>91</ele>
        <time>2012-09-09T12:05:44Z</time>
      </trkpt>
      <trkpt lat="43.43672" lon="6.41375">
        <ele>91.199997</ele>
        <time>2012-09-09T12:05:52Z</time>
      </trkpt>
      <trkpt lat="43.43671" lon="6.41376">
        <ele>91.199997</ele>
        <time>2012-09-09T12:05:53Z</time>
      </trkpt>
      <trkpt lat="43.43657" lon="6.41383">
        <ele>91.099998</ele>
        <time>2012-09-09T12:06:12Z</time>
      </trkpt>
      <trkpt lat="43.43649" lon="6.41387">
        <ele>91.699997</ele>
        <time>2012-09-09T12:06:23Z</time>
      </trkpt>
      <trkpt lat="43.43641" lon="6.41392">
        <ele>91.599998</ele>
        <time>2012-09-09T12:06:32Z</time>
      </trkpt>
      <trkpt lat="43.43634" lon="6.41398">
        <ele>91.5</ele>
        <time>2012-09-09T12:06:39Z</time>
      </trkpt>
      <trkpt lat="43.43627" lon="6.41405">
        <ele>91</ele>
        <time>2012-09-09T12:06:47Z</time>
      </trkpt>
      <trkpt lat="43.43619" lon="6.41411">
        <ele>90.5</ele>
        <time>2012-09-09T12:06:54Z</time>
      </trkpt>
      <trkpt lat="43.43618" lon="6.41411">
        <ele>90.699997</ele>
        <time>2012-09-09T12:06:55Z</time>
      </trkpt>
      <trkpt lat="43.43604" lon="6.41419">
        <ele>90.400002</ele>
        <time>2012-09-09T12:07:10Z</time>
      </trkpt>
      <trkpt lat="43.43596" lon="6.41421">
        <ele>89.5</ele>
        <time>2012-09-09T12:07:16Z</time>
      </trkpt>
      <trkpt lat="43.43589" lon="6.41426">
        <ele>89</ele>
        <time>2012-09-09T12:07:22Z</time>
      </trkpt>
      <trkpt lat="43.43582" lon="6.41434">
        <ele>87.800003</ele>
        <time>2012-09-09T12:07:30Z</time>
      </trkpt>
      <trkpt lat="43.43576" lon="6.41442">
        <ele>87.599998</ele>
        <time>2012-09-09T12:07:37Z</time>
      </trkpt>
      <trkpt lat="43.43571" lon="6.4145">
        <ele>87.300003</ele>
        <time>2012-09-09T12:07:44Z</time>
      </trkpt>
      <trkpt lat="43.43566" lon="6.41459">
        <ele>86.300003</ele>
        <time>2012-09-09T12:07:51Z</time>
      </trkpt>
      <trkpt lat="43.43561" lon="6.41467">
        <ele>86.400002</ele>
        <time>2012-09-09T12:07:57Z</time>
      </trkpt>
      <trkpt lat="43.43559" lon="6.41468">
        <ele>86.300003</ele>
        <time>2012-09-09T12:07:58Z</time>
      </trkpt>
      <trkpt lat="43.43546" lon="6.41479">
        <ele>86</ele>
        <time>2012-09-09T12:08:11Z</time>
      </trkpt>
      <trkpt lat="43.43539" lon="6.41486">
        <ele>85.300003</ele>
        <time>2012-09-09T12:08:19Z</time>
      </trkpt>
      <trkpt lat="43.43531" lon="6.41489">
        <ele>86.300003</ele>
        <time>2012-09-09T12:11:11Z</time>
      </trkpt>
      <trkpt lat="43.4353" lon="6.41489">
        <ele>86.199997</ele>
        <time>2012-09-09T12:11:12Z</time>
      </trkpt>
      <trkpt lat="43.43526" lon="6.41472">
        <ele>85.400002</ele>
        <time>2012-09-09T12:11:33Z</time>
      </trkpt>
      <trkpt lat="43.4353" lon="6.41462">
        <ele>85.199997</ele>
        <time>2012-09-09T12:11:40Z</time>
      </trkpt>
      <trkpt lat="43.43534" lon="6.41452">
        <ele>85.699997</ele>
        <time>2012-09-09T12:11:49Z</time>
      </trkpt>
      <trkpt lat="43.43537" lon="6.41441">
        <ele>86.199997</ele>
        <time>2012-09-09T12:11:57Z</time>
      </trkpt>
      <trkpt lat="43.43541" lon="6.41431">
        <ele>86.099998</ele>
        <time>2012-09-09T12:12:05Z</time>
      </trkpt>
      <trkpt lat="43.43543" lon="6.4142">
        <ele>85.400002</ele>
        <time>2012-09-09T12:12:13Z</time>
      </trkpt>
      <trkpt lat="43.43543" lon="6.41418">
        <ele>85.400002</ele>
        <time>2012-09-09T12:12:14Z</time>
      </trkpt>
      <trkpt lat="43.43544" lon="6.41397">
        <ele>85.900002</ele>
        <time>2012-09-09T12:12:28Z</time>
      </trkpt>
      <trkpt lat="43.43545" lon="6.41385">
        <ele>85.300003</ele>
        <time>2012-09-09T12:12:35Z</time>
      </trkpt>
      <trkpt lat="43.43541" lon="6.41374">
        <ele>85.099998</ele>
        <time>2012-09-09T12:12:42Z</time>
      </trkpt>
      <trkpt lat="43.43538" lon="6.41364">
        <ele>85.5</ele>
        <time>2012-09-09T12:12:49Z</time>
      </trkpt>
      <trkpt lat="43.43534" lon="6.41355">
        <ele>85.099998</ele>
        <time>2012-09-09T12:12:56Z</time>
      </trkpt>
      <trkpt lat="43.43529" lon="6.41344">
        <ele>84.800003</ele>
        <time>2012-09-09T12:13:04Z</time>
      </trkpt>
      <trkpt lat="43.43524" lon="6.41335">
        <ele>84.599998</ele>
        <time>2012-09-09T12:13:10Z</time>
      </trkpt>
      <trkpt lat="43.43518" lon="6.41326">
        <ele>84.300003</ele>
        <time>2012-09-09T12:13:17Z</time>
      </trkpt>
      <trkpt lat="43.43518" lon="6.41325">
        <ele>84.099998</ele>
        <time>2012-09-09T12:13:18Z</time>
      </trkpt>
      <trkpt lat="43.43505" lon="6.41311">
        <ele>84.300003</ele>
        <time>2012-09-09T12:13:31Z</time>
      </trkpt>
      <trkpt lat="43.43499" lon="6.41304">
        <ele>83.699997</ele>
        <time>2012-09-09T12:13:38Z</time>
      </trkpt>
      <trkpt lat="43.43492" lon="6.41296">
        <ele>83.800003</ele>
        <time>2012-09-09T12:13:45Z</time>
      </trkpt>
      <trkpt lat="43.43496" lon="6.41284">
        <ele>82.800003</ele>
        <time>2012-09-09T12:14:01Z</time>
      </trkpt>
      <trkpt lat="43.43504" lon="6.4128">
        <ele>83.400002</ele>
        <time>2012-09-09T12:14:14Z</time>
      </trkpt>
      <trkpt lat="43.43512" lon="6.41276">
        <ele>82.5</ele>
        <time>2012-09-09T12:14:30Z</time>
      </trkpt>
      <trkpt lat="43.43513" lon="6.41276">
        <ele>82.599998</ele>
        <time>2012-09-09T12:14:31Z</time>
      </trkpt>
      <trkpt lat="43.43528" lon="6.41265">
        <ele>82.199997</ele>
        <time>2012-09-09T12:14:55Z</time>
      </trkpt>
      <trkpt lat="43.43534" lon="6.41258">
        <ele>81.599998</ele>
        <time>2012-09-09T12:15:03Z</time>
      </trkpt>
      <trkpt lat="43.43536" lon="6.41247">
        <ele>81.599998</ele>
        <time>2012-09-09T12:15:12Z</time>
      </trkpt>
      <trkpt lat="43.43536" lon="6.41235">
        <ele>81</ele>
        <time>2012-09-09T12:15:22Z</time>
      </trkpt>
      <trkpt lat="43.43533" lon="6.41224">
        <ele>80.900002</ele>
        <time>2012-09-09T12:15:33Z</time>
      </trkpt>
      <trkpt lat="43.43533" lon="6.41223">
        <ele>81.199997</ele>
        <time>2012-09-09T12:15:34Z</time>
      </trkpt>
      <trkpt lat="43.43524" lon="6.41203">
        <ele>80.800003</ele>
        <time>2012-09-09T12:16:05Z</time>
      </trkpt>
      <trkpt lat="43.43523" lon="6.41191">
        <ele>80.400002</ele>
        <time>2012-09-09T12:16:23Z</time>
      </trkpt>
      <trkpt lat="43.43526" lon="6.4118">
        <ele>80.300003</ele>
        <time>2012-09-09T12:16:37Z</time>
      </trkpt>
      <trkpt lat="43.43526" lon="6.41179">
        <ele>80.199997</ele>
        <time>2012-09-09T12:16:38Z</time>
      </trkpt>
      <trkpt lat="43.43535" lon="6.4116">
        <ele>80.099998</ele>
        <time>2012-09-09T12:16:57Z</time>
      </trkpt>
      <trkpt lat="43.43541" lon="6.41151">
        <ele>79.599998</ele>
        <time>2012-09-09T12:17:06Z</time>
      </trkpt>
      <trkpt lat="43.43546" lon="6.41142">
        <ele>79.300003</ele>
        <time>2012-09-09T12:17:15Z</time>
      </trkpt>
      <trkpt lat="43.4355" lon="6.41131">
        <ele>78.400002</ele>
        <time>2012-09-09T12:17:31Z</time>
      </trkpt>
      <trkpt lat="43.43553" lon="6.41121">
        <ele>79.199997</ele>
        <time>2012-09-09T12:17:39Z</time>
      </trkpt>
      <trkpt lat="43.43554" lon="6.4112">
        <ele>79</ele>
        <time>2012-09-09T12:17:40Z</time>
      </trkpt>
      <trkpt lat="43.43562" lon="6.411">
        <ele>79.800003</ele>
        <time>2012-09-09T12:18:07Z</time>
      </trkpt>
      <trkpt lat="43.43564" lon="6.41089">
        <ele>80.5</ele>
        <time>2012-09-09T12:18:19Z</time>
      </trkpt>
      <trkpt lat="43.43568" lon="6.41079">
        <ele>81.5</ele>
        <time>2012-09-09T12:18:27Z</time>
      </trkpt>
      <trkpt lat="43.43571" lon="6.41068">
        <ele>82.599998</ele>
        <time>2012-09-09T12:18:36Z</time>
      </trkpt>
      <trkpt lat="43.43577" lon="6.4106">
        <ele>83.199997</ele>
        <time>2012-09-09T12:18:46Z</time>
      </trkpt>
      <trkpt lat="43.43577" lon="6.41059">
        <ele>83.199997</ele>
        <time>2012-09-09T12:18:47Z</time>
      </trkpt>
      <trkpt lat="43.43585" lon="6.4104">
        <ele>83.800003</ele>
        <time>2012-09-09T12:19:09Z</time>
      </trkpt>
      <trkpt lat="43.4359" lon="6.41029">
        <ele>83.900002</ele>
        <time>2012-09-09T12:19:22Z</time>
      </trkpt>
      <trkpt lat="43.43594" lon="6.4102">
        <ele>84.400002</ele>
        <time>2012-09-09T12:19:31Z</time>
      </trkpt>
      <trkpt lat="43.436" lon="6.4101">
        <ele>84.699997</ele>
        <time>2012-09-09T12:19:40Z</time>
      </trkpt>
      <trkpt lat="43.43604" lon="6.41001">
        <ele>84.099998</ele>
        <time>2012-09-09T12:19:49Z</time>
      </trkpt>
      <trkpt lat="43.43605" lon="6.40999">
        <ele>84.300003</ele>
        <time>2012-09-09T12:19:50Z</time>
      </trkpt>
      <trkpt lat="43.43614" lon="6.40982">
        <ele>83</ele>
        <time>2012-09-09T12:20:05Z</time>
      </trkpt>
      <trkpt lat="43.43619" lon="6.40972">
        <ele>82.599998</ele>
        <time>2012-09-09T12:20:13Z</time>
      </trkpt>
      <trkpt lat="43.43623" lon="6.40961">
        <ele>82.400002</ele>
        <time>2012-09-09T12:20:22Z</time>
      </trkpt>
      <trkpt lat="43.43629" lon="6.40953">
        <ele>82.699997</ele>
        <time>2012-09-09T12:20:29Z</time>
      </trkpt>
      <trkpt lat="43.43632" lon="6.40942">
        <ele>82.099998</ele>
        <time>2012-09-09T12:20:38Z</time>
      </trkpt>
      <trkpt lat="43.43637" lon="6.40932">
        <ele>82.699997</ele>
        <time>2012-09-09T12:20:49Z</time>
      </trkpt>
      <trkpt lat="43.43642" lon="6.40922">
        <ele>82.5</ele>
        <time>2012-09-09T12:20:59Z</time>
      </trkpt>
      <trkpt lat="43.43642" lon="6.40921">
        <ele>82.300003</ele>
        <time>2012-09-09T12:21:00Z</time>
      </trkpt>
      <trkpt lat="43.43658" lon="6.40913">
        <ele>83.300003</ele>
        <time>2012-09-09T12:21:26Z</time>
      </trkpt>
      <trkpt lat="43.43666" lon="6.40911">
        <ele>84.099998</ele>
        <time>2012-09-09T12:21:38Z</time>
      </trkpt>
      <trkpt lat="43.43674" lon="6.40907">
        <ele>84.5</ele>
        <time>2012-09-09T12:21:45Z</time>
      </trkpt>
      <trkpt lat="43.43681" lon="6.40905">
        <ele>85</ele>
        <time>2012-09-09T12:21:52Z</time>
      </trkpt>
      <trkpt lat="43.43688" lon="6.40898">
        <ele>85.900002</ele>
        <time>2012-09-09T12:22:01Z</time>
      </trkpt>
      <trkpt lat="43.43689" lon="6.40897">
        <ele>86.199997</ele>
        <time>2012-09-09T12:22:02Z</time>
      </trkpt>
      <trkpt lat="43.43705" lon="6.40893">
        <ele>87.800003</ele>
        <time>2012-09-09T12:22:18Z</time>
      </trkpt>
      <trkpt lat="43.43713" lon="6.40892">
        <ele>88.900002</ele>
        <time>2012-09-09T12:22:26Z</time>
      </trkpt>
      <trkpt lat="43.43721" lon="6.40887">
        <ele>89.199997</ele>
        <time>2012-09-09T12:22:42Z</time>
      </trkpt>
      <trkpt lat="43.4373" lon="6.40888">
        <ele>90.800003</ele>
        <time>2012-09-09T12:23:03Z</time>
      </trkpt>
      <trkpt lat="43.43731" lon="6.40888">
        <ele>91.099998</ele>
        <time>2012-09-09T12:23:04Z</time>
      </trkpt>
      <trkpt lat="43.43747" lon="6.40892">
        <ele>93.099998</ele>
        <time>2012-09-09T12:23:24Z</time>
      </trkpt>
      <trkpt lat="43.43756" lon="6.40891">
        <ele>93.599998</ele>
        <time>2012-09-09T12:24:13Z</time>
      </trkpt>
      <trkpt lat="43.43756" lon="6.40891">
        <ele>93.599998</ele>
        <time>2012-09-09T12:24:14Z</time>
      </trkpt>
      <trkpt lat="43.43765" lon="6.40887">
        <ele>93.5</ele>
        <time>2012-09-09T12:25:42Z</time>
      </trkpt>
      <trkpt lat="43.43778" lon="6.40873">
        <ele>93.400002</ele>
        <time>2012-09-09T12:26:01Z</time>
      </trkpt>
      <trkpt lat="43.43784" lon="6.40865">
        <ele>93.400002</ele>
        <time>2012-09-09T12:26:10Z</time>
      </trkpt>
      <trkpt lat="43.43791" lon="6.40859">
        <ele>94.099998</ele>
        <time>2012-09-09T12:26:17Z</time>
      </trkpt>
      <trkpt lat="43.43799" lon="6.40855">
        <ele>94.699997</ele>
        <time>2012-09-09T12:26:26Z</time>
      </trkpt>
      <trkpt lat="43.43807" lon="6.4085">
        <ele>94.900002</ele>
        <time>2012-09-09T12:26:33Z</time>
      </trkpt>
      <trkpt lat="43.43814" lon="6.40846">
        <ele>94.800003</ele>
        <time>2012-09-09T12:26:39Z</time>
      </trkpt>
      <trkpt lat="43.43821" lon="6.4084">
        <ele>95.099998</ele>
        <time>2012-09-09T12:26:46Z</time>
      </trkpt>
      <trkpt lat="43.43823" lon="6.40839">
        <ele>95.400002</ele>
        <time>2012-09-09T12:26:47Z</time>
      </trkpt>
      <trkpt lat="43.43836" lon="6.4083">
        <ele>94.800003</ele>
        <time>2012-09-09T12:27:01Z</time>
      </trkpt>
      <trkpt lat="43.43844" lon="6.40825">
        <ele>96.199997</ele>
        <time>2012-09-09T12:27:12Z</time>
      </trkpt>
      <trkpt lat="43.4385" lon="6.40818">
        <ele>96.400002</ele>
        <time>2012-09-09T12:27:21Z</time>
      </trkpt>
      <trkpt lat="43.43858" lon="6.40817">
        <ele>96.800003</ele>
        <time>2012-09-09T12:27:27Z</time>
      </trkpt>
      <trkpt lat="43.43866" lon="6.40812">
        <ele>96.699997</ele>
        <time>2012-09-09T12:27:36Z</time>
      </trkpt>
      <trkpt lat="43.43875" lon="6.40812">
        <ele>97.199997</ele>
        <time>2012-09-09T12:27:46Z</time>
      </trkpt>
      <trkpt lat="43.43883" lon="6.40809">
        <ele>98</ele>
        <time>2012-09-09T12:27:52Z</time>
      </trkpt>
      <trkpt lat="43.43884" lon="6.40808">
        <ele>97.800003</ele>
        <time>2012-09-09T12:27:53Z</time>
      </trkpt>
      <trkpt lat="43.43898" lon="6.40801">
        <ele>99.099998</ele>
        <time>2012-09-09T12:28:06Z</time>
      </trkpt>
      <trkpt lat="43.43907" lon="6.40798">
        <ele>100.099998</ele>
        <time>2012-09-09T12:28:13Z</time>
      </trkpt>
      <trkpt lat="43.43915" lon="6.40796">
        <ele>99.900002</ele>
        <time>2012-09-09T12:28:21Z</time>
      </trkpt>
      <trkpt lat="43.43922" lon="6.40794">
        <ele>100.099998</ele>
        <time>2012-09-09T12:28:27Z</time>
      </trkpt>
      <trkpt lat="43.4393" lon="6.40788">
        <ele>101.300003</ele>
        <time>2012-09-09T12:28:35Z</time>
      </trkpt>
      <trkpt lat="43.43938" lon="6.40786">
        <ele>103.300003</ele>
        <time>2012-09-09T12:28:47Z</time>
      </trkpt>
      <trkpt lat="43.43946" lon="6.40782">
        <ele>104.800003</ele>
        <time>2012-09-09T12:29:01Z</time>
      </trkpt>
      <trkpt lat="43.43947" lon="6.40781">
        <ele>105</ele>
        <time>2012-09-09T12:29:02Z</time>
      </trkpt>
      <trkpt lat="43.43962" lon="6.40772">
        <ele>107.099998</ele>
        <time>2012-09-09T12:29:19Z</time>
      </trkpt>
      <trkpt lat="43.4397" lon="6.40768">
        <ele>107.400002</ele>
        <time>2012-09-09T12:29:28Z</time>
      </trkpt>
      <trkpt lat="43.43978" lon="6.40765">
        <ele>108.599998</ele>
        <time>2012-09-09T12:29:41Z</time>
      </trkpt>
      <trkpt lat="43.43986" lon="6.4076">
        <ele>109.900002</ele>
        <time>2012-09-09T12:30:01Z</time>
      </trkpt>
      <trkpt lat="43.43994" lon="6.40757">
        <ele>110.699997</ele>
        <time>2012-09-09T12:30:12Z</time>
      </trkpt>
      <trkpt lat="43.43995" lon="6.40758">
        <ele>110.900002</ele>
        <time>2012-09-09T12:30:13Z</time>
      </trkpt>
      <trkpt lat="43.44011" lon="6.40752">
        <ele>112.400002</ele>
        <time>2012-09-09T12:30:33Z</time>
      </trkpt>
      <trkpt lat="43.44019" lon="6.40747">
        <ele>113.099998</ele>
        <time>2012-09-09T12:30:43Z</time>
      </trkpt>
      <trkpt lat="43.44027" lon="6.40745">
        <ele>113.400002</ele>
        <time>2012-09-09T12:30:52Z</time>
      </trkpt>
      <trkpt lat="43.44035" lon="6.4074">
        <ele>114.099998</ele>
        <time>2012-09-09T12:31:01Z</time>
      </trkpt>
      <trkpt lat="43.44043" lon="6.40735">
        <ele>114.900002</ele>
        <time>2012-09-09T12:31:11Z</time>
      </trkpt>
      <trkpt lat="43.44051" lon="6.4073">
        <ele>115.800003</ele>
        <time>2012-09-09T12:31:21Z</time>
      </trkpt>
      <trkpt lat="43.44052" lon="6.4073">
        <ele>116</ele>
        <time>2012-09-09T12:31:22Z</time>
      </trkpt>
      <trkpt lat="43.44067" lon="6.40726">
        <ele>116.800003</ele>
        <time>2012-09-09T12:31:35Z</time>
      </trkpt>
      <trkpt lat="43.44075" lon="6.40721">
        <ele>116.900002</ele>
        <time>2012-09-09T12:31:44Z</time>
      </trkpt>
      <trkpt lat="43.44083" lon="6.40717">
        <ele>117.199997</ele>
        <time>2012-09-09T12:31:53Z</time>
      </trkpt>
      <trkpt lat="43.4409" lon="6.40714">
        <ele>117.599998</ele>
        <time>2012-09-09T12:32:05Z</time>
      </trkpt>
      <trkpt lat="43.44099" lon="6.4071">
        <ele>117.699997</ele>
        <time>2012-09-09T12:32:14Z</time>
      </trkpt>
      <trkpt lat="43.44107" lon="6.40708">
        <ele>117.800003</ele>
        <time>2012-09-09T12:32:25Z</time>
      </trkpt>
      <trkpt lat="43.44108" lon="6.40707">
        <ele>117.900002</ele>
        <time>2012-09-09T12:32:26Z</time>
      </trkpt>
      <trkpt lat="43.44123" lon="6.407">
        <ele>118.900002</ele>
        <time>2012-09-09T12:32:41Z</time>
      </trkpt>
      <trkpt lat="43.44131" lon="6.40699">
        <ele>118.400002</ele>
        <time>2012-09-09T12:32:47Z</time>
      </trkpt>
      <trkpt lat="43.44139" lon="6.40697">
        <ele>118.5</ele>
        <time>2012-09-09T12:32:52Z</time>
      </trkpt>
      <trkpt lat="43.44147" lon="6.40693">
        <ele>117.900002</ele>
        <time>2012-09-09T12:33:02Z</time>
      </trkpt>
      <trkpt lat="43.44155" lon="6.4069">
        <ele>118.400002</ele>
        <time>2012-09-09T12:33:09Z</time>
      </trkpt>
      <trkpt lat="43.44162" lon="6.40687">
        <ele>117.599998</ele>
        <time>2012-09-09T12:33:17Z</time>
      </trkpt>
      <trkpt lat="43.4417" lon="6.40686">
        <ele>117.800003</ele>
        <time>2012-09-09T12:33:25Z</time>
      </trkpt>
      <trkpt lat="43.44177" lon="6.40682">
        <ele>117.699997</ele>
        <time>2012-09-09T12:33:33Z</time>
      </trkpt>
      <trkpt lat="43.44179" lon="6.40681">
        <ele>117.5</ele>
        <time>2012-09-09T12:33:34Z</time>
      </trkpt>
      <trkpt lat="43.44192" lon="6.40675">
        <ele>116.800003</ele>
        <time>2012-09-09T12:33:48Z</time>
      </trkpt>
      <trkpt lat="43.44201" lon="6.40671">
        <ele>116.900002</ele>
        <time>2012-09-09T12:33:55Z</time>
      </trkpt>
      <trkpt lat="43.44208" lon="6.40665">
        <ele>116.400002</ele>
        <time>2012-09-09T12:34:07Z</time>
      </trkpt>
      <trkpt lat="43.44217" lon="6.40662">
        <ele>116.099998</ele>
        <time>2012-09-09T12:34:16Z</time>
      </trkpt>
      <trkpt lat="43.44224" lon="6.40659">
        <ele>115.400002</ele>
        <time>2012-09-09T12:34:25Z</time>
      </trkpt>
      <trkpt lat="43.44232" lon="6.40656">
        <ele>115.800003</ele>
        <time>2012-09-09T12:34:32Z</time>
      </trkpt>
      <trkpt lat="43.4424" lon="6.40652">
        <ele>116.400002</ele>
        <time>2012-09-09T12:34:41Z</time>
      </trkpt>
      <trkpt lat="43.44242" lon="6.40651">
        <ele>116.599998</ele>
        <time>2012-09-09T12:34:42Z</time>
      </trkpt>
      <trkpt lat="43.44257" lon="6.40648">
        <ele>116.5</ele>
        <time>2012-09-09T12:34:56Z</time>
      </trkpt>
      <trkpt lat="43.44265" lon="6.40645">
        <ele>116.900002</ele>
        <time>2012-09-09T12:35:06Z</time>
      </trkpt>
      <trkpt lat="43.44273" lon="6.40641">
        <ele>117.099998</ele>
        <time>2012-09-09T12:35:14Z</time>
      </trkpt>
      <trkpt lat="43.44281" lon="6.40638">
        <ele>117.099998</ele>
        <time>2012-09-09T12:35:24Z</time>
      </trkpt>
      <trkpt lat="43.44289" lon="6.40636">
        <ele>117.599998</ele>
        <time>2012-09-09T12:35:30Z</time>
      </trkpt>
      <trkpt lat="43.44297" lon="6.40635">
        <ele>118.099998</ele>
        <time>2012-09-09T12:35:40Z</time>
      </trkpt>
      <trkpt lat="43.44305" lon="6.4063">
        <ele>118.400002</ele>
        <time>2012-09-09T12:35:47Z</time>
      </trkpt>
      <trkpt lat="43.44306" lon="6.4063">
        <ele>118.199997</ele>
        <time>2012-09-09T12:35:48Z</time>
      </trkpt>
      <trkpt lat="43.44321" lon="6.40622">
        <ele>119</ele>
        <time>2012-09-09T12:36:01Z</time>
      </trkpt>
      <trkpt lat="43.44328" lon="6.40619">
        <ele>119</ele>
        <time>2012-09-09T12:36:08Z</time>
      </trkpt>
      <trkpt lat="43.44336" lon="6.40614">
        <ele>118.5</ele>
        <time>2012-09-09T12:36:15Z</time>
      </trkpt>
      <trkpt lat="43.44344" lon="6.40609">
        <ele>118.099998</ele>
        <time>2012-09-09T12:36:24Z</time>
      </trkpt>
      <trkpt lat="43.44351" lon="6.40604">
        <ele>119</ele>
        <time>2012-09-09T12:36:35Z</time>
      </trkpt>
      <trkpt lat="43.44359" lon="6.40601">
        <ele>118.800003</ele>
        <time>2012-09-09T12:36:41Z</time>
      </trkpt>
      <trkpt lat="43.44367" lon="6.406">
        <ele>119.300003</ele>
        <time>2012-09-09T12:36:48Z</time>
      </trkpt>
      <trkpt lat="43.44368" lon="6.406">
        <ele>119.199997</ele>
        <time>2012-09-09T12:36:49Z</time>
      </trkpt>
      <trkpt lat="43.44375" lon="6.40594">
        <ele>119.900002</ele>
        <time>2012-09-09T12:40:12Z</time>
      </trkpt>
      <trkpt lat="43.44392" lon="6.40597">
        <ele>121.300003</ele>
        <time>2012-09-09T12:40:40Z</time>
      </trkpt>
      <trkpt lat="43.44399" lon="6.40597">
        <ele>121.199997</ele>
        <time>2012-09-09T12:40:46Z</time>
      </trkpt>
      <trkpt lat="43.44408" lon="6.40597">
        <ele>120.900002</ele>
        <time>2012-09-09T12:40:54Z</time>
      </trkpt>
      <trkpt lat="43.44416" lon="6.40597">
        <ele>121.599998</ele>
        <time>2012-09-09T12:41:17Z</time>
      </trkpt>
      <trkpt lat="43.44417" lon="6.40597">
        <ele>121.599998</ele>
        <time>2012-09-09T12:41:18Z</time>
      </trkpt>
      <trkpt lat="43.44432" lon="6.40601">
        <ele>121.099998</ele>
        <time>2012-09-09T12:41:54Z</time>
      </trkpt>
      <trkpt lat="43.4444" lon="6.40601">
        <ele>120.5</ele>
        <time>2012-09-09T12:42:02Z</time>
      </trkpt>
      <trkpt lat="43.44448" lon="6.40603">
        <ele>120.099998</ele>
        <time>2012-09-09T12:42:09Z</time>
      </trkpt>
      <trkpt lat="43.44457" lon="6.40605">
        <ele>118.800003</ele>
        <time>2012-09-09T12:42:17Z</time>
      </trkpt>
      <trkpt lat="43.44466" lon="6.40606">
        <ele>117.199997</ele>
        <time>2012-09-09T12:42:24Z</time>
      </trkpt>
      <trkpt lat="43.44467" lon="6.40606">
        <ele>117.199997</ele>
        <time>2012-09-09T12:42:25Z</time>
      </trkpt>
      <trkpt lat="43.44482" lon="6.40606">
        <ele>118.199997</ele>
        <time>2012-09-09T12:42:40Z</time>
      </trkpt>
      <trkpt lat="43.44491" lon="6.40606">
        <ele>119.199997</ele>
        <time>2012-09-09T12:42:48Z</time>
      </trkpt>
      <trkpt lat="43.44499" lon="6.40605">
        <ele>119.199997</ele>
        <time>2012-09-09T12:42:57Z</time>
      </trkpt>
      <trkpt lat="43.44508" lon="6.40604">
        <ele>119</ele>
        <time>2012-09-09T12:43:14Z</time>
      </trkpt>
      <trkpt lat="43.44516" lon="6.40599">
        <ele>118.699997</ele>
        <time>2012-09-09T12:43:30Z</time>
      </trkpt>
      <trkpt lat="43.44516" lon="6.406">
        <ele>118.900002</ele>
        <time>2012-09-09T12:43:31Z</time>
      </trkpt>
      <trkpt lat="43.44533" lon="6.40598">
        <ele>120.800003</ele>
        <time>2012-09-09T12:44:07Z</time>
      </trkpt>
      <trkpt lat="43.44542" lon="6.40598">
        <ele>121.5</ele>
        <time>2012-09-09T12:44:15Z</time>
      </trkpt>
      <trkpt lat="43.44549" lon="6.40596">
        <ele>121.300003</ele>
        <time>2012-09-09T12:44:22Z</time>
      </trkpt>
      <trkpt lat="43.44558" lon="6.40594">
        <ele>121.400002</ele>
        <time>2012-09-09T12:44:30Z</time>
      </trkpt>
      <trkpt lat="43.44565" lon="6.40591">
        <ele>121.599998</ele>
        <time>2012-09-09T12:44:38Z</time>
      </trkpt>
      <trkpt lat="43.44567" lon="6.40591">
        <ele>121.699997</ele>
        <time>2012-09-09T12:44:39Z</time>
      </trkpt>
      <trkpt lat="43.44582" lon="6.40587">
        <ele>121.5</ele>
        <time>2012-09-09T12:44:54Z</time>
      </trkpt>
      <trkpt lat="43.4459" lon="6.40588">
        <ele>121.800003</ele>
        <time>2012-09-09T12:45:00Z</time>
      </trkpt>
      <trkpt lat="43.44598" lon="6.40584">
        <ele>121.800003</ele>
        <time>2012-09-09T12:45:09Z</time>
      </trkpt>
      <trkpt lat="43.44607" lon="6.40583">
        <ele>121.699997</ele>
        <time>2012-09-09T12:45:17Z</time>
      </trkpt>
      <trkpt lat="43.44615" lon="6.40584">
        <ele>121.599998</ele>
        <time>2012-09-09T12:45:24Z</time>
      </trkpt>
      <trkpt lat="43.44623" lon="6.40583">
        <ele>121.599998</ele>
        <time>2012-09-09T12:45:31Z</time>
      </trkpt>
      <trkpt lat="43.44632" lon="6.40583">
        <ele>121.699997</ele>
        <time>2012-09-09T12:45:42Z</time>
      </trkpt>
      <trkpt lat="43.44633" lon="6.40582">
        <ele>121.699997</ele>
        <time>2012-09-09T12:45:43Z</time>
      </trkpt>
      <trkpt lat="43.44648" lon="6.40577">
        <ele>121.400002</ele>
        <time>2012-09-09T12:45:57Z</time>
      </trkpt>
      <trkpt lat="43.44657" lon="6.40576">
        <ele>121.699997</ele>
        <time>2012-09-09T12:46:06Z</time>
      </trkpt>
      <trkpt lat="43.44664" lon="6.40573">
        <ele>121.199997</ele>
        <time>2012-09-09T12:46:17Z</time>
      </trkpt>
      <trkpt lat="43.44672" lon="6.40572">
        <ele>121.300003</ele>
        <time>2012-09-09T12:46:24Z</time>
      </trkpt>
      <trkpt lat="43.44681" lon="6.40568">
        <ele>120.699997</ele>
        <time>2012-09-09T12:46:39Z</time>
      </trkpt>
      <trkpt lat="43.44689" lon="6.40564">
        <ele>119.800003</ele>
        <time>2012-09-09T12:47:02Z</time>
      </trkpt>
      <trkpt lat="43.4469" lon="6.40564">
        <ele>119.599998</ele>
        <time>2012-09-09T12:47:03Z</time>
      </trkpt>
      <trkpt lat="43.44705" lon="6.40572">
        <ele>119.300003</ele>
        <time>2012-09-09T12:47:21Z</time>
      </trkpt>
      <trkpt lat="43.4471" lon="6.4058">
        <ele>119.5</ele>
        <time>2012-09-09T12:47:29Z</time>
      </trkpt>
      <trkpt lat="43.44718" lon="6.40584">
        <ele>119.199997</ele>
        <time>2012-09-09T12:47:34Z</time>
      </trkpt>
      <trkpt lat="43.44725" lon="6.40589">
        <ele>118.800003</ele>
        <time>2012-09-09T12:47:42Z</time>
      </trkpt>
      <trkpt lat="43.4473" lon="6.40599">
        <ele>118.300003</ele>
        <time>2012-09-09T12:47:53Z</time>
      </trkpt>
      <trkpt lat="43.44736" lon="6.40607">
        <ele>118.599998</ele>
        <time>2012-09-09T12:48:01Z</time>
      </trkpt>
      <trkpt lat="43.44741" lon="6.40616">
        <ele>118.599998</ele>
        <time>2012-09-09T12:48:19Z</time>
      </trkpt>
      <trkpt lat="43.44741" lon="6.40617">
        <ele>118.699997</ele>
        <time>2012-09-09T12:48:20Z</time>
      </trkpt>
      <trkpt lat="43.4474" lon="6.40639">
        <ele>120.300003</ele>
        <time>2012-09-09T12:48:46Z</time>
      </trkpt>
      <trkpt lat="43.44744" lon="6.4065">
        <ele>120</ele>
        <time>2012-09-09T12:48:55Z</time>
      </trkpt>
      <trkpt lat="43.4475" lon="6.40659">
        <ele>119.300003</ele>
        <time>2012-09-09T12:49:03Z</time>
      </trkpt>
      <trkpt lat="43.44751" lon="6.40669">
        <ele>120</ele>
        <time>2012-09-09T12:49:10Z</time>
      </trkpt>
      <trkpt lat="43.4475" lon="6.40681">
        <ele>120</ele>
        <time>2012-09-09T12:49:20Z</time>
      </trkpt>
      <trkpt lat="43.4475" lon="6.40683">
        <ele>119.800003</ele>
        <time>2012-09-09T12:49:21Z</time>
      </trkpt>
      <trkpt lat="43.44763" lon="6.40691">
        <ele>120</ele>
        <time>2012-09-09T12:49:43Z</time>
      </trkpt>
      <trkpt lat="43.44771" lon="6.40688">
        <ele>120.199997</ele>
        <time>2012-09-09T12:49:50Z</time>
      </trkpt>
      <trkpt lat="43.44777" lon="6.4068">
        <ele>119.900002</ele>
        <time>2012-09-09T12:49:58Z</time>
      </trkpt>
      <trkpt lat="43.44783" lon="6.40671">
        <ele>119.800003</ele>
        <time>2012-09-09T12:50:08Z</time>
      </trkpt>
      <trkpt lat="43.44787" lon="6.40661">
        <ele>119.900002</ele>
        <time>2012-09-09T12:50:16Z</time>
      </trkpt>
      <trkpt lat="43.44794" lon="6.40654">
        <ele>120.800003</ele>
        <time>2012-09-09T12:50:32Z</time>
      </trkpt>
      <trkpt lat="43.44794" lon="6.40653">
        <ele>120.699997</ele>
        <time>2012-09-09T12:50:33Z</time>
      </trkpt>
      <trkpt lat="43.44805" lon="6.40642">
        <ele>123.699997</ele>
        <time>2012-09-09T12:51:17Z</time>
      </trkpt>
      <trkpt lat="43.44804" lon="6.40631">
        <ele>123</ele>
        <time>2012-09-09T12:51:31Z</time>
      </trkpt>
      <trkpt lat="43.44803" lon="6.40619">
        <ele>123.099998</ele>
        <time>2012-09-09T12:51:38Z</time>
      </trkpt>
      <trkpt lat="43.44802" lon="6.40617">
        <ele>122.800003</ele>
        <time>2012-09-09T12:51:39Z</time>
      </trkpt>
      <trkpt lat="43.44794" lon="6.40601">
        <ele>122.099998</ele>
        <time>2012-09-09T12:51:52Z</time>
      </trkpt>
      <trkpt lat="43.44791" lon="6.40591">
        <ele>120.900002</ele>
        <time>2012-09-09T12:51:59Z</time>
      </trkpt>
      <trkpt lat="43.44786" lon="6.40582">
        <ele>120.699997</ele>
        <time>2012-09-09T12:52:05Z</time>
      </trkpt>
      <trkpt lat="43.44781" lon="6.40572">
        <ele>119.800003</ele>
        <time>2012-09-09T12:52:13Z</time>
      </trkpt>
      <trkpt lat="43.44778" lon="6.40562">
        <ele>118.800003</ele>
        <time>2012-09-09T12:52:19Z</time>
      </trkpt>
      <trkpt lat="43.44773" lon="6.40552">
        <ele>119.300003</ele>
        <time>2012-09-09T12:52:26Z</time>
      </trkpt>
      <trkpt lat="43.44769" lon="6.40543">
        <ele>118.800003</ele>
        <time>2012-09-09T12:52:32Z</time>
      </trkpt>
      <trkpt lat="43.44765" lon="6.40533">
        <ele>118</ele>
        <time>2012-09-09T12:52:42Z</time>
      </trkpt>
      <trkpt lat="43.44765" lon="6.40532">
        <ele>117.699997</ele>
        <time>2012-09-09T12:52:43Z</time>
      </trkpt>
      <trkpt lat="43.44756" lon="6.40513">
        <ele>116.400002</ele>
        <time>2012-09-09T12:52:58Z</time>
      </trkpt>
      <trkpt lat="43.44753" lon="6.40502">
        <ele>115.900002</ele>
        <time>2012-09-09T12:53:08Z</time>
      </trkpt>
      <trkpt lat="43.44749" lon="6.40492">
        <ele>115.300003</ele>
        <time>2012-09-09T12:53:16Z</time>
      </trkpt>
      <trkpt lat="43.44745" lon="6.40481">
        <ele>114.699997</ele>
        <time>2012-09-09T12:53:22Z</time>
      </trkpt>
      <trkpt lat="43.44742" lon="6.4047">
        <ele>114</ele>
        <time>2012-09-09T12:53:29Z</time>
      </trkpt>
      <trkpt lat="43.44736" lon="6.40461">
        <ele>114</ele>
        <time>2012-09-09T12:53:37Z</time>
      </trkpt>
      <trkpt lat="43.44731" lon="6.40452">
        <ele>113.300003</ele>
        <time>2012-09-09T12:53:43Z</time>
      </trkpt>
      <trkpt lat="43.4473" lon="6.40451">
        <ele>112.900002</ele>
        <time>2012-09-09T12:53:44Z</time>
      </trkpt>
      <trkpt lat="43.44722" lon="6.40432">
        <ele>111.599998</ele>
        <time>2012-09-09T12:53:59Z</time>
      </trkpt>
      <trkpt lat="43.44723" lon="6.40421">
        <ele>110.199997</ele>
        <time>2012-09-09T12:54:10Z</time>
      </trkpt>
      <trkpt lat="43.44729" lon="6.40413">
        <ele>109.300003</ele>
        <time>2012-09-09T12:54:18Z</time>
      </trkpt>
      <trkpt lat="43.44735" lon="6.40404">
        <ele>108.699997</ele>
        <time>2012-09-09T12:54:28Z</time>
      </trkpt>
      <trkpt lat="43.4474" lon="6.40396">
        <ele>107.900002</ele>
        <time>2012-09-09T12:54:36Z</time>
      </trkpt>
      <trkpt lat="43.44745" lon="6.40386">
        <ele>107.5</ele>
        <time>2012-09-09T12:54:42Z</time>
      </trkpt>
      <trkpt lat="43.4475" lon="6.40378">
        <ele>107.300003</ele>
        <time>2012-09-09T12:54:48Z</time>
      </trkpt>
      <trkpt lat="43.44751" lon="6.40376">
        <ele>107.5</ele>
        <time>2012-09-09T12:54:49Z</time>
      </trkpt>
      <trkpt lat="43.44761" lon="6.40359">
        <ele>108.699997</ele>
        <time>2012-09-09T12:55:04Z</time>
      </trkpt>
      <trkpt lat="43.44766" lon="6.4035">
        <ele>109.300003</ele>
        <time>2012-09-09T12:55:13Z</time>
      </trkpt>
      <trkpt lat="43.4477" lon="6.40341">
        <ele>110.300003</ele>
        <time>2012-09-09T12:55:22Z</time>
      </trkpt>
      <trkpt lat="43.44776" lon="6.40334">
        <ele>110.800003</ele>
        <time>2012-09-09T12:55:29Z</time>
      </trkpt>
      <trkpt lat="43.44783" lon="6.40327">
        <ele>111.900002</ele>
        <time>2012-09-09T12:55:36Z</time>
      </trkpt>
      <trkpt lat="43.44789" lon="6.40319">
        <ele>112.199997</ele>
        <time>2012-09-09T12:55:44Z</time>
      </trkpt>
      <trkpt lat="43.44794" lon="6.40308">
        <ele>112.599998</ele>
        <time>2012-09-09T12:56:06Z</time>
      </trkpt>
      <trkpt lat="43.44794" lon="6.40307">
        <ele>112.699997</ele>
        <time>2012-09-09T12:56:07Z</time>
      </trkpt>
      <trkpt lat="43.44801" lon="6.40301">
        <ele>113.800003</ele>
        <time>2012-09-09T12:58:19Z</time>
      </trkpt>
      <trkpt lat="43.44802" lon="6.40308">
        <ele>113.900002</ele>
        <time>2012-09-09T12:59:06Z</time>
      </trkpt>
      <trkpt lat="43.44808" lon="6.40316">
        <ele>113.699997</ele>
        <time>2012-09-09T13:01:49Z</time>
      </trkpt>
      <trkpt lat="43.44808" lon="6.40316">
        <ele>113.800003</ele>
        <time>2012-09-09T13:01:50Z</time>
      </trkpt>
      <trkpt lat="43.44821" lon="6.40329">
        <ele>113.800003</ele>
        <time>2012-09-09T13:02:12Z</time>
      </trkpt>
      <trkpt lat="43.44828" lon="6.40337">
        <ele>112.400002</ele>
        <time>2012-09-09T13:02:23Z</time>
      </trkpt>
      <trkpt lat="43.44832" lon="6.40346">
        <ele>111.099998</ele>
        <time>2012-09-09T13:02:31Z</time>
      </trkpt>
      <trkpt lat="43.44838" lon="6.40354">
        <ele>110.800003</ele>
        <time>2012-09-09T13:02:41Z</time>
      </trkpt>
      <trkpt lat="43.44842" lon="6.40365">
        <ele>110.5</ele>
        <time>2012-09-09T13:02:50Z</time>
      </trkpt>
      <trkpt lat="43.44842" lon="6.40366">
        <ele>110.699997</ele>
        <time>2012-09-09T13:02:51Z</time>
      </trkpt>
      <trkpt lat="43.44857" lon="6.40375">
        <ele>110.699997</ele>
        <time>2012-09-09T13:03:20Z</time>
      </trkpt>
      <trkpt lat="43.44866" lon="6.40375">
        <ele>112.099998</ele>
        <time>2012-09-09T13:03:31Z</time>
      </trkpt>
      <trkpt lat="43.44874" lon="6.40377">
        <ele>111.900002</ele>
        <time>2012-09-09T13:03:44Z</time>
      </trkpt>
      <trkpt lat="43.44882" lon="6.40377">
        <ele>112.199997</ele>
        <time>2012-09-09T13:03:58Z</time>
      </trkpt>
      <trkpt lat="43.44883" lon="6.40376">
        <ele>112.199997</ele>
        <time>2012-09-09T13:03:59Z</time>
      </trkpt>
      <trkpt lat="43.44899" lon="6.40376">
        <ele>112.5</ele>
        <time>2012-09-09T13:04:18Z</time>
      </trkpt>
      <trkpt lat="43.44907" lon="6.40381">
        <ele>112.599998</ele>
        <time>2012-09-09T13:04:31Z</time>
      </trkpt>
      <trkpt lat="43.44914" lon="6.40389">
        <ele>114</ele>
        <time>2012-09-09T13:04:41Z</time>
      </trkpt>
      <trkpt lat="43.44921" lon="6.40396">
        <ele>113.400002</ele>
        <time>2012-09-09T13:04:49Z</time>
      </trkpt>
      <trkpt lat="43.44927" lon="6.40404">
        <ele>114.5</ele>
        <time>2012-09-09T13:04:59Z</time>
      </trkpt>
      <trkpt lat="43.44928" lon="6.40405">
        <ele>114.5</ele>
        <time>2012-09-09T13:05:00Z</time>
      </trkpt>
      <trkpt lat="43.44939" lon="6.40419">
        <ele>114.300003</ele>
        <time>2012-09-09T13:05:19Z</time>
      </trkpt>
      <trkpt lat="43.44946" lon="6.40425">
        <ele>114.800003</ele>
        <time>2012-09-09T13:05:30Z</time>
      </trkpt>
      <trkpt lat="43.44954" lon="6.40425">
        <ele>115.199997</ele>
        <time>2012-09-09T13:05:38Z</time>
      </trkpt>
      <trkpt lat="43.44963" lon="6.40423">
        <ele>115.900002</ele>
        <time>2012-09-09T13:05:50Z</time>
      </trkpt>
      <trkpt lat="43.44972" lon="6.40422">
        <ele>117.199997</ele>
        <time>2012-09-09T13:06:00Z</time>
      </trkpt>
      <trkpt lat="43.44973" lon="6.40421">
        <ele>117.300003</ele>
        <time>2012-09-09T13:06:01Z</time>
      </trkpt>
      <trkpt lat="43.44988" lon="6.40417">
        <ele>118.099998</ele>
        <time>2012-09-09T13:06:19Z</time>
      </trkpt>
      <trkpt lat="43.44997" lon="6.40415">
        <ele>118.699997</ele>
        <time>2012-09-09T13:06:32Z</time>
      </trkpt>
      <trkpt lat="43.45005" lon="6.40412">
        <ele>118.900002</ele>
        <time>2012-09-09T13:06:41Z</time>
      </trkpt>
      <trkpt lat="43.45014" lon="6.4041">
        <ele>120.599998</ele>
        <time>2012-09-09T13:06:52Z</time>
      </trkpt>
      <trkpt lat="43.45022" lon="6.40407">
        <ele>121.800003</ele>
        <time>2012-09-09T13:07:03Z</time>
      </trkpt>
      <trkpt lat="43.45023" lon="6.40407">
        <ele>122</ele>
        <time>2012-09-09T13:07:04Z</time>
      </trkpt>
      <trkpt lat="43.45038" lon="6.40404">
        <ele>124.099998</ele>
        <time>2012-09-09T13:07:26Z</time>
      </trkpt>
      <trkpt lat="43.45046" lon="6.40399">
        <ele>124.699997</ele>
        <time>2012-09-09T13:07:34Z</time>
      </trkpt>
      <trkpt lat="43.45054" lon="6.40395">
        <ele>126</ele>
        <time>2012-09-09T13:07:53Z</time>
      </trkpt>
      <trkpt lat="43.4506" lon="6.40386">
        <ele>126.5</ele>
        <time>2012-09-09T13:08:04Z</time>
      </trkpt>
      <trkpt lat="43.45061" lon="6.40384">
        <ele>126.599998</ele>
        <time>2012-09-09T13:08:05Z</time>
      </trkpt>
      <trkpt lat="43.45069" lon="6.40367">
        <ele>128.5</ele>
        <time>2012-09-09T13:08:39Z</time>
      </trkpt>
      <trkpt lat="43.45075" lon="6.40358">
        <ele>128.800003</ele>
        <time>2012-09-09T13:08:49Z</time>
      </trkpt>
      <trkpt lat="43.45081" lon="6.40349">
        <ele>128.699997</ele>
        <time>2012-09-09T13:09:00Z</time>
      </trkpt>
      <trkpt lat="43.45088" lon="6.40341">
        <ele>129.300003</ele>
        <time>2012-09-09T13:09:10Z</time>
      </trkpt>
      <trkpt lat="43.45088" lon="6.40341">
        <ele>129.600006</ele>
        <time>2012-09-09T13:09:11Z</time>
      </trkpt>
      <trkpt lat="43.45102" lon="6.40327">
        <ele>130.300003</ele>
        <time>2012-09-09T13:09:42Z</time>
      </trkpt>
      <trkpt lat="43.45095" lon="6.40321">
        <ele>130.199997</ele>
        <time>2012-09-09T13:10:14Z</time>
      </trkpt>
      <trkpt lat="43.45094" lon="6.4032">
        <ele>130</ele>
        <time>2012-09-09T13:10:15Z</time>
      </trkpt>
      <trkpt lat="43.45102" lon="6.40327">
        <ele>130.300003</ele>
        <time>2012-09-09T13:11:39Z</time>
      </trkpt>
      <trkpt lat="43.45103" lon="6.40327">
        <ele>130</ele>
        <time>2012-09-09T13:12:41Z</time>
      </trkpt>
      <trkpt lat="43.45104" lon="6.40327">
        <ele>130.100006</ele>
        <time>2012-09-09T13:12:42Z</time>
      </trkpt>
      <trkpt lat="43.45111" lon="6.40321">
        <ele>130.800003</ele>
        <time>2012-09-09T13:14:20Z</time>
      </trkpt>
      <trkpt lat="43.45119" lon="6.40302">
        <ele>130.100006</ele>
        <time>2012-09-09T13:14:42Z</time>
      </trkpt>
      <trkpt lat="43.45123" lon="6.40293">
        <ele>130.699997</ele>
        <time>2012-09-09T13:14:53Z</time>
      </trkpt>
      <trkpt lat="43.45128" lon="6.40284">
        <ele>131.600006</ele>
        <time>2012-09-09T13:15:01Z</time>
      </trkpt>
      <trkpt lat="43.45133" lon="6.40276">
        <ele>131.199997</ele>
        <time>2012-09-09T13:15:09Z</time>
      </trkpt>
      <trkpt lat="43.45138" lon="6.40267">
        <ele>131.699997</ele>
        <time>2012-09-09T13:15:17Z</time>
      </trkpt>
      <trkpt lat="43.45143" lon="6.40257">
        <ele>131.899994</ele>
        <time>2012-09-09T13:15:27Z</time>
      </trkpt>
      <trkpt lat="43.45144" lon="6.40256">
        <ele>131.899994</ele>
        <time>2012-09-09T13:15:28Z</time>
      </trkpt>
      <trkpt lat="43.45155" lon="6.4024">
        <ele>132.800003</ele>
        <time>2012-09-09T13:15:43Z</time>
      </trkpt>
      <trkpt lat="43.45161" lon="6.40231">
        <ele>132.800003</ele>
        <time>2012-09-09T13:15:51Z</time>
      </trkpt>
      <trkpt lat="43.45164" lon="6.4022">
        <ele>133</ele>
        <time>2012-09-09T13:16:03Z</time>
      </trkpt>
      <trkpt lat="43.45166" lon="6.40209">
        <ele>133.600006</ele>
        <time>2012-09-09T13:16:12Z</time>
      </trkpt>
      <trkpt lat="43.45173" lon="6.40202">
        <ele>133.800003</ele>
        <time>2012-09-09T13:16:19Z</time>
      </trkpt>
      <trkpt lat="43.45179" lon="6.40195">
        <ele>134</ele>
        <time>2012-09-09T13:16:26Z</time>
      </trkpt>
      <trkpt lat="43.45183" lon="6.40185">
        <ele>134.699997</ele>
        <time>2012-09-09T13:16:34Z</time>
      </trkpt>
      <trkpt lat="43.45184" lon="6.40184">
        <ele>134.800003</ele>
        <time>2012-09-09T13:16:35Z</time>
      </trkpt>
      <trkpt lat="43.45193" lon="6.40167">
        <ele>134.699997</ele>
        <time>2012-09-09T13:16:52Z</time>
      </trkpt>
      <trkpt lat="43.45199" lon="6.40158">
        <ele>135.800003</ele>
        <time>2012-09-09T13:17:04Z</time>
      </trkpt>
      <trkpt lat="43.45206" lon="6.40151">
        <ele>135.800003</ele>
        <time>2012-09-09T13:17:16Z</time>
      </trkpt>
      <trkpt lat="43.45213" lon="6.40145">
        <ele>136.5</ele>
        <time>2012-09-09T13:17:28Z</time>
      </trkpt>
      <trkpt lat="43.45221" lon="6.40139">
        <ele>136.399994</ele>
        <time>2012-09-09T13:17:39Z</time>
      </trkpt>
      <trkpt lat="43.45222" lon="6.40139">
        <ele>136.5</ele>
        <time>2012-09-09T13:17:40Z</time>
      </trkpt>
      <trkpt lat="43.45235" lon="6.40126">
        <ele>136.800003</ele>
        <time>2012-09-09T13:17:58Z</time>
      </trkpt>
      <trkpt lat="43.45242" lon="6.4012">
        <ele>137.5</ele>
        <time>2012-09-09T13:18:10Z</time>
      </trkpt>
      <trkpt lat="43.4525" lon="6.40115">
        <ele>137.300003</ele>
        <time>2012-09-09T13:18:20Z</time>
      </trkpt>
      <trkpt lat="43.45258" lon="6.40111">
        <ele>138.300003</ele>
        <time>2012-09-09T13:18:31Z</time>
      </trkpt>
      <trkpt lat="43.45265" lon="6.40105">
        <ele>137.899994</ele>
        <time>2012-09-09T13:18:42Z</time>
      </trkpt>
      <trkpt lat="43.45266" lon="6.40104">
        <ele>138.100006</ele>
        <time>2012-09-09T13:18:43Z</time>
      </trkpt>
      <trkpt lat="43.45281" lon="6.40094">
        <ele>139.5</ele>
        <time>2012-09-09T13:19:05Z</time>
      </trkpt>
      <trkpt lat="43.45288" lon="6.40089">
        <ele>139.899994</ele>
        <time>2012-09-09T13:19:14Z</time>
      </trkpt>
      <trkpt lat="43.45295" lon="6.40081">
        <ele>140.800003</ele>
        <time>2012-09-09T13:19:25Z</time>
      </trkpt>
      <trkpt lat="43.45302" lon="6.40074">
        <ele>141.199997</ele>
        <time>2012-09-09T13:19:36Z</time>
      </trkpt>
      <trkpt lat="43.4531" lon="6.40068">
        <ele>141.600006</ele>
        <time>2012-09-09T13:19:46Z</time>
      </trkpt>
      <trkpt lat="43.4531" lon="6.40068">
        <ele>141.600006</ele>
        <time>2012-09-09T13:19:47Z</time>
      </trkpt>
      <trkpt lat="43.45324" lon="6.40055">
        <ele>142</ele>
        <time>2012-09-09T13:20:05Z</time>
      </trkpt>
      <trkpt lat="43.4533" lon="6.40046">
        <ele>142.300003</ele>
        <time>2012-09-09T13:20:35Z</time>
      </trkpt>
      <trkpt lat="43.45332" lon="6.40034">
        <ele>143.300003</ele>
        <time>2012-09-09T13:22:10Z</time>
      </trkpt>
      <trkpt lat="43.45332" lon="6.40033">
        <ele>143.300003</ele>
        <time>2012-09-09T13:22:11Z</time>
      </trkpt>
      <trkpt lat="43.45337" lon="6.40011">
        <ele>144.399994</ele>
        <time>2012-09-09T13:22:33Z</time>
      </trkpt>
      <trkpt lat="43.4534" lon="6.40001">
        <ele>145.300003</ele>
        <time>2012-09-09T13:22:42Z</time>
      </trkpt>
      <trkpt lat="43.45344" lon="6.3999">
        <ele>145.899994</ele>
        <time>2012-09-09T13:22:52Z</time>
      </trkpt>
      <trkpt lat="43.45345" lon="6.39978">
        <ele>145.899994</ele>
        <time>2012-09-09T13:23:00Z</time>
      </trkpt>
      <trkpt lat="43.45349" lon="6.39968">
        <ele>146.800003</ele>
        <time>2012-09-09T13:23:12Z</time>
      </trkpt>
      <trkpt lat="43.4535" lon="6.39967">
        <ele>146.899994</ele>
        <time>2012-09-09T13:23:13Z</time>
      </trkpt>
      <trkpt lat="43.45359" lon="6.39948">
        <ele>148.100006</ele>
        <time>2012-09-09T13:23:34Z</time>
      </trkpt>
      <trkpt lat="43.45364" lon="6.39939">
        <ele>149</ele>
        <time>2012-09-09T13:23:46Z</time>
      </trkpt>
      <trkpt lat="43.4537" lon="6.3993">
        <ele>149.199997</ele>
        <time>2012-09-09T13:23:56Z</time>
      </trkpt>
      <trkpt lat="43.45376" lon="6.39922">
        <ele>149.899994</ele>
        <time>2012-09-09T13:24:05Z</time>
      </trkpt>
      <trkpt lat="43.45384" lon="6.39916">
        <ele>150.600006</ele>
        <time>2012-09-09T13:24:15Z</time>
      </trkpt>
      <trkpt lat="43.45384" lon="6.39915">
        <ele>150.600006</ele>
        <time>2012-09-09T13:24:16Z</time>
      </trkpt>
      <trkpt lat="43.45397" lon="6.39901">
        <ele>152.100006</ele>
        <time>2012-09-09T13:24:36Z</time>
      </trkpt>
      <trkpt lat="43.45403" lon="6.39893">
        <ele>152.300003</ele>
        <time>2012-09-09T13:24:45Z</time>
      </trkpt>
      <trkpt lat="43.4541" lon="6.39887">
        <ele>153.300003</ele>
        <time>2012-09-09T13:24:55Z</time>
      </trkpt>
      <trkpt lat="43.45418" lon="6.39883">
        <ele>153.600006</ele>
        <time>2012-09-09T13:25:05Z</time>
      </trkpt>
      <trkpt lat="43.45426" lon="6.39879">
        <ele>154.100006</ele>
        <time>2012-09-09T13:25:15Z</time>
      </trkpt>
      <trkpt lat="43.45434" lon="6.39875">
        <ele>154.600006</ele>
        <time>2012-09-09T13:25:25Z</time>
      </trkpt>
      <trkpt lat="43.45434" lon="6.39874">
        <ele>154.5</ele>
        <time>2012-09-09T13:25:26Z</time>
      </trkpt>
      <trkpt lat="43.4545" lon="6.39873">
        <ele>155.399994</ele>
        <time>2012-09-09T13:25:46Z</time>
      </trkpt>
      <trkpt lat="43.45459" lon="6.39873">
        <ele>155.899994</ele>
        <time>2012-09-09T13:25:56Z</time>
      </trkpt>
      <trkpt lat="43.45468" lon="6.39872">
        <ele>156.300003</ele>
        <time>2012-09-09T13:26:07Z</time>
      </trkpt>
      <trkpt lat="43.45474" lon="6.39863">
        <ele>157.199997</ele>
        <time>2012-09-09T13:26:18Z</time>
      </trkpt>
      <trkpt lat="43.45469" lon="6.39853">
        <ele>157.800003</ele>
        <time>2012-09-09T13:26:31Z</time>
      </trkpt>
      <trkpt lat="43.45468" lon="6.39852">
        <ele>157.800003</ele>
        <time>2012-09-09T13:26:32Z</time>
      </trkpt>
      <trkpt lat="43.45452" lon="6.39848">
        <ele>157.699997</ele>
        <time>2012-09-09T13:26:52Z</time>
      </trkpt>
      <trkpt lat="43.45444" lon="6.39849">
        <ele>157.600006</ele>
        <time>2012-09-09T13:27:00Z</time>
      </trkpt>
      <trkpt lat="43.45435" lon="6.39852">
        <ele>157.300003</ele>
        <time>2012-09-09T13:27:08Z</time>
      </trkpt>
      <trkpt lat="43.45427" lon="6.39852">
        <ele>157.399994</ele>
        <time>2012-09-09T13:27:16Z</time>
      </trkpt>
      <trkpt lat="43.45419" lon="6.39854">
        <ele>157.300003</ele>
        <time>2012-09-09T13:27:24Z</time>
      </trkpt>
      <trkpt lat="43.45411" lon="6.39859">
        <ele>156.600006</ele>
        <time>2012-09-09T13:27:33Z</time>
      </trkpt>
      <trkpt lat="43.4541" lon="6.39859">
        <ele>156.699997</ele>
        <time>2012-09-09T13:27:34Z</time>
      </trkpt>
      <trkpt lat="43.45395" lon="6.39868">
        <ele>157</ele>
        <time>2012-09-09T13:27:49Z</time>
      </trkpt>
      <trkpt lat="43.45386" lon="6.39869">
        <ele>157.100006</ele>
        <time>2012-09-09T13:27:58Z</time>
      </trkpt>
      <trkpt lat="43.45378" lon="6.39872">
        <ele>157.699997</ele>
        <time>2012-09-09T13:28:07Z</time>
      </trkpt>
      <trkpt lat="43.4537" lon="6.39874">
        <ele>158.300003</ele>
        <time>2012-09-09T13:28:15Z</time>
      </trkpt>
      <trkpt lat="43.45362" lon="6.39877">
        <ele>158.300003</ele>
        <time>2012-09-09T13:28:25Z</time>
      </trkpt>
      <trkpt lat="43.45354" lon="6.39878">
        <ele>158.399994</ele>
        <time>2012-09-09T13:28:33Z</time>
      </trkpt>
      <trkpt lat="43.45345" lon="6.39882">
        <ele>158.399994</ele>
        <time>2012-09-09T13:28:42Z</time>
      </trkpt>
      <trkpt lat="43.45344" lon="6.39882">
        <ele>158.199997</ele>
        <time>2012-09-09T13:28:43Z</time>
      </trkpt>
      <trkpt lat="43.45329" lon="6.39888">
        <ele>158.699997</ele>
        <time>2012-09-09T13:28:59Z</time>
      </trkpt>
      <trkpt lat="43.4532" lon="6.3989">
        <ele>159.100006</ele>
        <time>2012-09-09T13:29:07Z</time>
      </trkpt>
      <trkpt lat="43.45312" lon="6.39892">
        <ele>158.899994</ele>
        <time>2012-09-09T13:29:15Z</time>
      </trkpt>
      <trkpt lat="43.45304" lon="6.39893">
        <ele>158.899994</ele>
        <time>2012-09-09T13:29:23Z</time>
      </trkpt>
      <trkpt lat="43.45295" lon="6.39896">
        <ele>159.100006</ele>
        <time>2012-09-09T13:29:31Z</time>
      </trkpt>
      <trkpt lat="43.45287" lon="6.39901">
        <ele>159</ele>
        <time>2012-09-09T13:29:39Z</time>
      </trkpt>
      <trkpt lat="43.45279" lon="6.39903">
        <ele>159</ele>
        <time>2012-09-09T13:29:47Z</time>
      </trkpt>
      <trkpt lat="43.45278" lon="6.39904">
        <ele>158.899994</ele>
        <time>2012-09-09T13:29:48Z</time>
      </trkpt>
      <trkpt lat="43.45265" lon="6.39915">
        <ele>159.300003</ele>
        <time>2012-09-09T13:30:02Z</time>
      </trkpt>
      <trkpt lat="43.45259" lon="6.39923">
        <ele>159.100006</ele>
        <time>2012-09-09T13:30:10Z</time>
      </trkpt>
      <trkpt lat="43.45252" lon="6.39929">
        <ele>159</ele>
        <time>2012-09-09T13:30:18Z</time>
      </trkpt>
      <trkpt lat="43.45247" lon="6.39938">
        <ele>159.5</ele>
        <time>2012-09-09T13:30:25Z</time>
      </trkpt>
      <trkpt lat="43.4524" lon="6.39943">
        <ele>160</ele>
        <time>2012-09-09T13:30:32Z</time>
      </trkpt>
      <trkpt lat="43.45234" lon="6.39951">
        <ele>160.300003</ele>
        <time>2012-09-09T13:30:40Z</time>
      </trkpt>
      <trkpt lat="43.45227" lon="6.39958">
        <ele>160.399994</ele>
        <time>2012-09-09T13:30:49Z</time>
      </trkpt>
      <trkpt lat="43.45226" lon="6.39959">
        <ele>160.5</ele>
        <time>2012-09-09T13:30:50Z</time>
      </trkpt>
      <trkpt lat="43.45215" lon="6.39971">
        <ele>160.800003</ele>
        <time>2012-09-09T13:31:02Z</time>
      </trkpt>
      <trkpt lat="43.4521" lon="6.39977">
        <ele>160.699997</ele>
        <time>2012-09-09T13:31:08Z</time>
      </trkpt>
      <trkpt lat="43.45205" lon="6.39987">
        <ele>161</ele>
        <time>2012-09-09T13:31:19Z</time>
      </trkpt>
      <trkpt lat="43.45198" lon="6.39993">
        <ele>161.899994</ele>
        <time>2012-09-09T13:31:26Z</time>
      </trkpt>
      <trkpt lat="43.45191" lon="6.4">
        <ele>162.199997</ele>
        <time>2012-09-09T13:31:35Z</time>
      </trkpt>
      <trkpt lat="43.45184" lon="6.40008">
        <ele>162</ele>
        <time>2012-09-09T13:31:44Z</time>
      </trkpt>
      <trkpt lat="43.45177" lon="6.40016">
        <ele>162.300003</ele>
        <time>2012-09-09T13:31:52Z</time>
      </trkpt>
      <trkpt lat="43.45176" lon="6.40017">
        <ele>162.100006</ele>
        <time>2012-09-09T13:31:53Z</time>
      </trkpt>
      <trkpt lat="43.45162" lon="6.40029">
        <ele>161.199997</ele>
        <time>2012-09-09T13:32:07Z</time>
      </trkpt>
      <trkpt lat="43.45155" lon="6.40034">
        <ele>161.399994</ele>
        <time>2012-09-09T13:32:14Z</time>
      </trkpt>
      <trkpt lat="43.45149" lon="6.40042">
        <ele>161.199997</ele>
        <time>2012-09-09T13:32:21Z</time>
      </trkpt>
      <trkpt lat="43.45142" lon="6.40047">
        <ele>160.399994</ele>
        <time>2012-09-09T13:32:28Z</time>
      </trkpt>
      <trkpt lat="43.45134" lon="6.40051">
        <ele>160.800003</ele>
        <time>2012-09-09T13:32:36Z</time>
      </trkpt>
      <trkpt lat="43.45127" lon="6.40058">
        <ele>160.399994</ele>
        <time>2012-09-09T13:32:43Z</time>
      </trkpt>
      <trkpt lat="43.45121" lon="6.40066">
        <ele>160.600006</ele>
        <time>2012-09-09T13:32:51Z</time>
      </trkpt>
      <trkpt lat="43.45117" lon="6.40077">
        <ele>160.399994</ele>
        <time>2012-09-09T13:34:02Z</time>
      </trkpt>
      <trkpt lat="43.45117" lon="6.40077">
        <ele>160.399994</ele>
        <time>2012-09-09T13:34:03Z</time>
      </trkpt>
      <trkpt lat="43.45108" lon="6.40078">
        <ele>160.100006</ele>
        <time>2012-09-09T13:37:31Z</time>
      </trkpt>
      <trkpt lat="43.45101" lon="6.40057">
        <ele>163.699997</ele>
        <time>2012-09-09T13:38:49Z</time>
      </trkpt>
      <trkpt lat="43.451" lon="6.40057">
        <ele>163.899994</ele>
        <time>2012-09-09T13:38:50Z</time>
      </trkpt>
      <trkpt lat="43.45095" lon="6.4004">
        <ele>164.100006</ele>
        <time>2012-09-09T13:39:12Z</time>
      </trkpt>
      <trkpt lat="43.45099" lon="6.4003">
        <ele>165.5</ele>
        <time>2012-09-09T13:39:22Z</time>
      </trkpt>
      <trkpt lat="43.45104" lon="6.4002">
        <ele>166.899994</ele>
        <time>2012-09-09T13:39:32Z</time>
      </trkpt>
      <trkpt lat="43.45107" lon="6.40009">
        <ele>167.699997</ele>
        <time>2012-09-09T13:39:45Z</time>
      </trkpt>
      <trkpt lat="43.45116" lon="6.40006">
        <ele>170.600006</ele>
        <time>2012-09-09T13:39:59Z</time>
      </trkpt>
      <trkpt lat="43.45117" lon="6.40006">
        <ele>170.800003</ele>
        <time>2012-09-09T13:40:00Z</time>
      </trkpt>
      <trkpt lat="43.45125" lon="6.39987">
        <ele>172.5</ele>
        <time>2012-09-09T13:40:18Z</time>
      </trkpt>
      <trkpt lat="43.4513" lon="6.39977">
        <ele>173.5</ele>
        <time>2012-09-09T13:40:28Z</time>
      </trkpt>
      <trkpt lat="43.45134" lon="6.39967">
        <ele>173.899994</ele>
        <time>2012-09-09T13:40:37Z</time>
      </trkpt>
      <trkpt lat="43.45138" lon="6.39956">
        <ele>175.100006</ele>
        <time>2012-09-09T13:40:47Z</time>
      </trkpt>
      <trkpt lat="43.45144" lon="6.39948">
        <ele>175.699997</ele>
        <time>2012-09-09T13:40:57Z</time>
      </trkpt>
      <trkpt lat="43.4515" lon="6.39938">
        <ele>176</ele>
        <time>2012-09-09T13:41:09Z</time>
      </trkpt>
      <trkpt lat="43.4515" lon="6.39937">
        <ele>176.100006</ele>
        <time>2012-09-09T13:41:10Z</time>
      </trkpt>
      <trkpt lat="43.45159" lon="6.39921">
        <ele>177.100006</ele>
        <time>2012-09-09T13:41:24Z</time>
      </trkpt>
      <trkpt lat="43.4516" lon="6.39909">
        <ele>178</ele>
        <time>2012-09-09T13:41:32Z</time>
      </trkpt>
      <trkpt lat="43.45164" lon="6.39898">
        <ele>177.800003</ele>
        <time>2012-09-09T13:41:40Z</time>
      </trkpt>
      <trkpt lat="43.45167" lon="6.39887">
        <ele>178.199997</ele>
        <time>2012-09-09T13:41:49Z</time>
      </trkpt>
      <trkpt lat="43.45167" lon="6.39876">
        <ele>178.600006</ele>
        <time>2012-09-09T13:41:57Z</time>
      </trkpt>
      <trkpt lat="43.45168" lon="6.39864">
        <ele>178.800003</ele>
        <time>2012-09-09T13:42:07Z</time>
      </trkpt>
      <trkpt lat="43.45172" lon="6.39853">
        <ele>179.300003</ele>
        <time>2012-09-09T13:42:16Z</time>
      </trkpt>
      <trkpt lat="43.45173" lon="6.39852">
        <ele>179.300003</ele>
        <time>2012-09-09T13:42:17Z</time>
      </trkpt>
      <trkpt lat="43.45177" lon="6.39832">
        <ele>179.800003</ele>
        <time>2012-09-09T13:42:35Z</time>
      </trkpt>
      <trkpt lat="43.4518" lon="6.3982">
        <ele>180.899994</ele>
        <time>2012-09-09T13:42:43Z</time>
      </trkpt>
      <trkpt lat="43.45182" lon="6.3981">
        <ele>181.399994</ele>
        <time>2012-09-09T13:42:52Z</time>
      </trkpt>
      <trkpt lat="43.45183" lon="6.39798">
        <ele>181.300003</ele>
        <time>2012-09-09T13:43:00Z</time>
      </trkpt>
      <trkpt lat="43.45185" lon="6.39786">
        <ele>182.199997</ele>
        <time>2012-09-09T13:43:10Z</time>
      </trkpt>
      <trkpt lat="43.45186" lon="6.39774">
        <ele>182.899994</ele>
        <time>2012-09-09T13:43:20Z</time>
      </trkpt>
      <trkpt lat="43.45186" lon="6.39773">
        <ele>183</ele>
        <time>2012-09-09T13:43:21Z</time>
      </trkpt>
      <trkpt lat="43.45194" lon="6.39753">
        <ele>183.199997</ele>
        <time>2012-09-09T13:43:41Z</time>
      </trkpt>
      <trkpt lat="43.45199" lon="6.39744">
        <ele>184.199997</ele>
        <time>2012-09-09T13:43:49Z</time>
      </trkpt>
      <trkpt lat="43.45201" lon="6.39733">
        <ele>184.199997</ele>
        <time>2012-09-09T13:43:58Z</time>
      </trkpt>
      <trkpt lat="43.45204" lon="6.39722">
        <ele>184.800003</ele>
        <time>2012-09-09T13:44:05Z</time>
      </trkpt>
      <trkpt lat="43.45209" lon="6.39712">
        <ele>185.100006</ele>
        <time>2012-09-09T13:44:12Z</time>
      </trkpt>
      <trkpt lat="43.45213" lon="6.39702">
        <ele>186.199997</ele>
        <time>2012-09-09T13:44:21Z</time>
      </trkpt>
      <trkpt lat="43.45214" lon="6.39701">
        <ele>186.300003</ele>
        <time>2012-09-09T13:44:22Z</time>
      </trkpt>
      <trkpt lat="43.45228" lon="6.3969">
        <ele>186.800003</ele>
        <time>2012-09-09T13:44:40Z</time>
      </trkpt>
      <trkpt lat="43.45237" lon="6.39686">
        <ele>187.399994</ele>
        <time>2012-09-09T13:44:51Z</time>
      </trkpt>
      <trkpt lat="43.45245" lon="6.39683">
        <ele>187.800003</ele>
        <time>2012-09-09T13:45:00Z</time>
      </trkpt>
      <trkpt lat="43.45253" lon="6.39678">
        <ele>189.199997</ele>
        <time>2012-09-09T13:45:09Z</time>
      </trkpt>
      <trkpt lat="43.4526" lon="6.39671">
        <ele>189.5</ele>
        <time>2012-09-09T13:45:19Z</time>
      </trkpt>
      <trkpt lat="43.45266" lon="6.39663">
        <ele>190.600006</ele>
        <time>2012-09-09T13:45:32Z</time>
      </trkpt>
      <trkpt lat="43.45266" lon="6.39662">
        <ele>190.899994</ele>
        <time>2012-09-09T13:45:33Z</time>
      </trkpt>
      <trkpt lat="43.4528" lon="6.39652">
        <ele>192.899994</ele>
        <time>2012-09-09T13:45:48Z</time>
      </trkpt>
      <trkpt lat="43.45288" lon="6.39649">
        <ele>193.300003</ele>
        <time>2012-09-09T13:45:59Z</time>
      </trkpt>
      <trkpt lat="43.45296" lon="6.39645">
        <ele>194.600006</ele>
        <time>2012-09-09T13:46:13Z</time>
      </trkpt>
      <trkpt lat="43.45301" lon="6.39635">
        <ele>195.300003</ele>
        <time>2012-09-09T13:46:22Z</time>
      </trkpt>
      <trkpt lat="43.45308" lon="6.39629">
        <ele>195.899994</ele>
        <time>2012-09-09T13:46:35Z</time>
      </trkpt>
      <trkpt lat="43.45309" lon="6.39628">
        <ele>195.699997</ele>
        <time>2012-09-09T13:46:36Z</time>
      </trkpt>
      <trkpt lat="43.45325" lon="6.39628">
        <ele>196.100006</ele>
        <time>2012-09-09T13:46:51Z</time>
      </trkpt>
      <trkpt lat="43.45333" lon="6.39625">
        <ele>196.399994</ele>
        <time>2012-09-09T13:47:00Z</time>
      </trkpt>
      <trkpt lat="43.45342" lon="6.39625">
        <ele>196.600006</ele>
        <time>2012-09-09T13:47:11Z</time>
      </trkpt>
      <trkpt lat="43.45351" lon="6.39623">
        <ele>196.899994</ele>
        <time>2012-09-09T13:47:21Z</time>
      </trkpt>
      <trkpt lat="43.45359" lon="6.39619">
        <ele>197.5</ele>
        <time>2012-09-09T13:47:32Z</time>
      </trkpt>
      <trkpt lat="43.45366" lon="6.39616">
        <ele>198.699997</ele>
        <time>2012-09-09T13:47:44Z</time>
      </trkpt>
      <trkpt lat="43.45368" lon="6.39616">
        <ele>198.699997</ele>
        <time>2012-09-09T13:47:45Z</time>
      </trkpt>
      <trkpt lat="43.45382" lon="6.39606">
        <ele>199.5</ele>
        <time>2012-09-09T13:48:06Z</time>
      </trkpt>
      <trkpt lat="43.45389" lon="6.39598">
        <ele>199.899994</ele>
        <time>2012-09-09T13:48:17Z</time>
      </trkpt>
      <trkpt lat="43.45392" lon="6.39587">
        <ele>201</ele>
        <time>2012-09-09T13:48:50Z</time>
      </trkpt>
      <trkpt lat="43.45391" lon="6.39586">
        <ele>201.100006</ele>
        <time>2012-09-09T13:48:51Z</time>
      </trkpt>
      <trkpt lat="43.45407" lon="6.39596">
        <ele>203.199997</ele>
        <time>2012-09-09T13:49:40Z</time>
      </trkpt>
      <trkpt lat="43.45416" lon="6.39595">
        <ele>202.800003</ele>
        <time>2012-09-09T13:49:51Z</time>
      </trkpt>
      <trkpt lat="43.45417" lon="6.39594">
        <ele>202.899994</ele>
        <time>2012-09-09T13:49:52Z</time>
      </trkpt>
      <trkpt lat="43.45433" lon="6.39591">
        <ele>203.399994</ele>
        <time>2012-09-09T13:50:08Z</time>
      </trkpt>
      <trkpt lat="43.45441" lon="6.39589">
        <ele>204.600006</ele>
        <time>2012-09-09T13:50:16Z</time>
      </trkpt>
      <trkpt lat="43.45449" lon="6.39586">
        <ele>204</ele>
        <time>2012-09-09T13:50:23Z</time>
      </trkpt>
      <trkpt lat="43.45458" lon="6.39584">
        <ele>203.899994</ele>
        <time>2012-09-09T13:50:32Z</time>
      </trkpt>
      <trkpt lat="43.45466" lon="6.39583">
        <ele>204.100006</ele>
        <time>2012-09-09T13:50:41Z</time>
      </trkpt>
      <trkpt lat="43.45474" lon="6.39582">
        <ele>204</ele>
        <time>2012-09-09T13:50:48Z</time>
      </trkpt>
      <trkpt lat="43.45482" lon="6.39579">
        <ele>204.399994</ele>
        <time>2012-09-09T13:50:55Z</time>
      </trkpt>
      <trkpt lat="43.45483" lon="6.39578">
        <ele>204.399994</ele>
        <time>2012-09-09T13:50:56Z</time>
      </trkpt>
      <trkpt lat="43.45497" lon="6.3957">
        <ele>204.199997</ele>
        <time>2012-09-09T13:51:11Z</time>
      </trkpt>
      <trkpt lat="43.45505" lon="6.39567">
        <ele>204.300003</ele>
        <time>2012-09-09T13:51:18Z</time>
      </trkpt>
      <trkpt lat="43.45513" lon="6.39564">
        <ele>204.600006</ele>
        <time>2012-09-09T13:51:26Z</time>
      </trkpt>
      <trkpt lat="43.45521" lon="6.39562">
        <ele>204.899994</ele>
        <time>2012-09-09T13:51:33Z</time>
      </trkpt>
      <trkpt lat="43.4553" lon="6.39561">
        <ele>204.600006</ele>
        <time>2012-09-09T13:51:41Z</time>
      </trkpt>
      <trkpt lat="43.45538" lon="6.39557">
        <ele>204.600006</ele>
        <time>2012-09-09T13:51:49Z</time>
      </trkpt>
      <trkpt lat="43.45546" lon="6.39554">
        <ele>205.100006</ele>
        <time>2012-09-09T13:51:59Z</time>
      </trkpt>
      <trkpt lat="43.45547" lon="6.39554">
        <ele>205.199997</ele>
        <time>2012-09-09T13:52:00Z</time>
      </trkpt>
      <trkpt lat="43.45563" lon="6.39552">
        <ele>206.100006</ele>
        <time>2012-09-09T13:52:16Z</time>
      </trkpt>
      <trkpt lat="43.45571" lon="6.39549">
        <ele>206.300003</ele>
        <time>2012-09-09T13:52:24Z</time>
      </trkpt>
      <trkpt lat="43.4558" lon="6.39546">
        <ele>207.300003</ele>
        <time>2012-09-09T13:52:33Z</time>
      </trkpt>
      <trkpt lat="43.45587" lon="6.39542">
        <ele>207.699997</ele>
        <time>2012-09-09T13:52:40Z</time>
      </trkpt>
      <trkpt lat="43.45596" lon="6.39539">
        <ele>207.5</ele>
        <time>2012-09-09T13:52:47Z</time>
      </trkpt>
      <trkpt lat="43.45604" lon="6.39534">
        <ele>207.300003</ele>
        <time>2012-09-09T13:52:57Z</time>
      </trkpt>
      <trkpt lat="43.45612" lon="6.39533">
        <ele>207.399994</ele>
        <time>2012-09-09T13:53:05Z</time>
      </trkpt>
      <trkpt lat="43.45614" lon="6.39532">
        <ele>207.5</ele>
        <time>2012-09-09T13:53:06Z</time>
      </trkpt>
      <trkpt lat="43.45628" lon="6.39529">
        <ele>208.399994</ele>
        <time>2012-09-09T13:53:22Z</time>
      </trkpt>
      <trkpt lat="43.45636" lon="6.39528">
        <ele>209.199997</ele>
        <time>2012-09-09T13:53:29Z</time>
      </trkpt>
      <trkpt lat="43.45645" lon="6.39528">
        <ele>209.199997</ele>
        <time>2012-09-09T13:53:38Z</time>
      </trkpt>
      <trkpt lat="43.45653" lon="6.39529">
        <ele>209.600006</ele>
        <time>2012-09-09T13:53:45Z</time>
      </trkpt>
      <trkpt lat="43.45661" lon="6.39529">
        <ele>210.100006</ele>
        <time>2012-09-09T13:53:51Z</time>
      </trkpt>
      <trkpt lat="43.45669" lon="6.39529">
        <ele>210</ele>
        <time>2012-09-09T13:53:59Z</time>
      </trkpt>
      <trkpt lat="43.45677" lon="6.39527">
        <ele>209.399994</ele>
        <time>2012-09-09T13:54:06Z</time>
      </trkpt>
      <trkpt lat="43.45679" lon="6.39527">
        <ele>209.5</ele>
        <time>2012-09-09T13:54:07Z</time>
      </trkpt>
      <trkpt lat="43.45694" lon="6.39525">
        <ele>209.699997</ele>
        <time>2012-09-09T13:54:21Z</time>
      </trkpt>
      <trkpt lat="43.45701" lon="6.39523">
        <ele>209</ele>
        <time>2012-09-09T13:54:29Z</time>
      </trkpt>
      <trkpt lat="43.45709" lon="6.3952">
        <ele>208.600006</ele>
        <time>2012-09-09T13:54:37Z</time>
      </trkpt>
      <trkpt lat="43.45718" lon="6.3952">
        <ele>208.199997</ele>
        <time>2012-09-09T13:54:47Z</time>
      </trkpt>
      <trkpt lat="43.45726" lon="6.39519">
        <ele>208.5</ele>
        <time>2012-09-09T13:54:53Z</time>
      </trkpt>
      <trkpt lat="43.45735" lon="6.39518">
        <ele>208.100006</ele>
        <time>2012-09-09T13:55:03Z</time>
      </trkpt>
      <trkpt lat="43.45743" lon="6.39516">
        <ele>207.399994</ele>
        <time>2012-09-09T13:55:10Z</time>
      </trkpt>
      <trkpt lat="43.45744" lon="6.39515">
        <ele>207.5</ele>
        <time>2012-09-09T13:55:11Z</time>
      </trkpt>
      <trkpt lat="43.4576" lon="6.3951">
        <ele>207</ele>
        <time>2012-09-09T13:55:26Z</time>
      </trkpt>
      <trkpt lat="43.45768" lon="6.39506">
        <ele>206.800003</ele>
        <time>2012-09-09T13:55:34Z</time>
      </trkpt>
      <trkpt lat="43.45777" lon="6.39502">
        <ele>206.399994</ele>
        <time>2012-09-09T13:55:42Z</time>
      </trkpt>
      <trkpt lat="43.45785" lon="6.39501">
        <ele>205.100006</ele>
        <time>2012-09-09T13:55:50Z</time>
      </trkpt>
      <trkpt lat="43.45793" lon="6.39497">
        <ele>205.199997</ele>
        <time>2012-09-09T13:55:56Z</time>
      </trkpt>
      <trkpt lat="43.45801" lon="6.39494">
        <ele>204.399994</ele>
        <time>2012-09-09T13:56:05Z</time>
      </trkpt>
      <trkpt lat="43.45809" lon="6.3949">
        <ele>204</ele>
        <time>2012-09-09T13:56:16Z</time>
      </trkpt>
      <trkpt lat="43.4581" lon="6.3949">
        <ele>204</ele>
        <time>2012-09-09T13:56:17Z</time>
      </trkpt>
      <trkpt lat="43.45825" lon="6.39492">
        <ele>204.199997</ele>
        <time>2012-09-09T13:57:18Z</time>
      </trkpt>
      <trkpt lat="43.45825" lon="6.39493">
        <ele>204.199997</ele>
        <time>2012-09-09T13:57:19Z</time>
      </trkpt>
      <trkpt lat="43.45841" lon="6.39498">
        <ele>204.100006</ele>
        <time>2012-09-09T13:58:04Z</time>
      </trkpt>
      <trkpt lat="43.4585" lon="6.39496">
        <ele>204.300003</ele>
        <time>2012-09-09T13:58:13Z</time>
      </trkpt>
      <trkpt lat="43.45858" lon="6.39496">
        <ele>204.600006</ele>
        <time>2012-09-09T13:58:23Z</time>
      </trkpt>
      <trkpt lat="43.4586" lon="6.39496">
        <ele>204.600006</ele>
        <time>2012-09-09T13:58:24Z</time>
      </trkpt>
      <trkpt lat="43.45873" lon="6.39485">
        <ele>204.600006</ele>
        <time>2012-09-09T13:58:38Z</time>
      </trkpt>
      <trkpt lat="43.45879" lon="6.39476">
        <ele>204.5</ele>
        <time>2012-09-09T13:58:46Z</time>
      </trkpt>
      <trkpt lat="43.45883" lon="6.39465">
        <ele>204.800003</ele>
        <time>2012-09-09T13:58:53Z</time>
      </trkpt>
      <trkpt lat="43.45889" lon="6.39458">
        <ele>204.699997</ele>
        <time>2012-09-09T13:59:00Z</time>
      </trkpt>
      <trkpt lat="43.45896" lon="6.39453">
        <ele>205</ele>
        <time>2012-09-09T13:59:05Z</time>
      </trkpt>
      <trkpt lat="43.45903" lon="6.39445">
        <ele>204.800003</ele>
        <time>2012-09-09T13:59:12Z</time>
      </trkpt>
      <trkpt lat="43.45909" lon="6.39437">
        <ele>204.699997</ele>
        <time>2012-09-09T13:59:20Z</time>
      </trkpt>
      <trkpt lat="43.45916" lon="6.39433">
        <ele>204.5</ele>
        <time>2012-09-09T13:59:27Z</time>
      </trkpt>
      <trkpt lat="43.45917" lon="6.39431">
        <ele>204.5</ele>
        <time>2012-09-09T13:59:28Z</time>
      </trkpt>
      <trkpt lat="43.45927" lon="6.39415">
        <ele>204.199997</ele>
        <time>2012-09-09T13:59:41Z</time>
      </trkpt>
      <trkpt lat="43.45932" lon="6.39407">
        <ele>203.800003</ele>
        <time>2012-09-09T13:59:49Z</time>
      </trkpt>
      <trkpt lat="43.45939" lon="6.39401">
        <ele>203.699997</ele>
        <time>2012-09-09T13:59:55Z</time>
      </trkpt>
      <trkpt lat="43.45945" lon="6.39396">
        <ele>203.5</ele>
        <time>2012-09-09T14:00:01Z</time>
      </trkpt>
      <trkpt lat="43.45952" lon="6.39389">
        <ele>202.899994</ele>
        <time>2012-09-09T14:00:06Z</time>
      </trkpt>
      <trkpt lat="43.45956" lon="6.39378">
        <ele>202.600006</ele>
        <time>2012-09-09T14:00:13Z</time>
      </trkpt>
      <trkpt lat="43.45961" lon="6.39367">
        <ele>202.199997</ele>
        <time>2012-09-09T14:00:21Z</time>
      </trkpt>
      <trkpt lat="43.45967" lon="6.39362">
        <ele>202.199997</ele>
        <time>2012-09-09T14:00:28Z</time>
      </trkpt>
      <trkpt lat="43.45969" lon="6.39361">
        <ele>202.300003</ele>
        <time>2012-09-09T14:00:29Z</time>
      </trkpt>
      <trkpt lat="43.45981" lon="6.39349">
        <ele>201.300003</ele>
        <time>2012-09-09T14:00:43Z</time>
      </trkpt>
      <trkpt lat="43.45989" lon="6.39345">
        <ele>201</ele>
        <time>2012-09-09T14:00:49Z</time>
      </trkpt>
      <trkpt lat="43.45995" lon="6.39338">
        <ele>200.699997</ele>
        <time>2012-09-09T14:00:55Z</time>
      </trkpt>
      <trkpt lat="43.46001" lon="6.39331">
        <ele>200.899994</ele>
        <time>2012-09-09T14:01:09Z</time>
      </trkpt>
      <trkpt lat="43.46008" lon="6.39325">
        <ele>200</ele>
        <time>2012-09-09T14:01:17Z</time>
      </trkpt>
      <trkpt lat="43.46015" lon="6.39317">
        <ele>199.699997</ele>
        <time>2012-09-09T14:01:27Z</time>
      </trkpt>
      <trkpt lat="43.46023" lon="6.39314">
        <ele>199.199997</ele>
        <time>2012-09-09T14:01:36Z</time>
      </trkpt>
      <trkpt lat="43.46024" lon="6.39314">
        <ele>199.300003</ele>
        <time>2012-09-09T14:01:37Z</time>
      </trkpt>
      <trkpt lat="43.46039" lon="6.3931">
        <ele>198.5</ele>
        <time>2012-09-09T14:01:51Z</time>
      </trkpt>
      <trkpt lat="43.46045" lon="6.39304">
        <ele>198.199997</ele>
        <time>2012-09-09T14:01:59Z</time>
      </trkpt>
      <trkpt lat="43.46054" lon="6.39302">
        <ele>198</ele>
        <time>2012-09-09T14:02:05Z</time>
      </trkpt>
      <trkpt lat="43.46062" lon="6.39299">
        <ele>198.300003</ele>
        <time>2012-09-09T14:02:15Z</time>
      </trkpt>
      <trkpt lat="43.4607" lon="6.39294">
        <ele>197.699997</ele>
        <time>2012-09-09T14:02:23Z</time>
      </trkpt>
      <trkpt lat="43.46077" lon="6.39291">
        <ele>197.5</ele>
        <time>2012-09-09T14:02:31Z</time>
      </trkpt>
      <trkpt lat="43.46085" lon="6.39287">
        <ele>197.600006</ele>
        <time>2012-09-09T14:02:40Z</time>
      </trkpt>
      <trkpt lat="43.46086" lon="6.39286">
        <ele>197.600006</ele>
        <time>2012-09-09T14:02:41Z</time>
      </trkpt>
      <trkpt lat="43.46101" lon="6.39284">
        <ele>196.699997</ele>
        <time>2012-09-09T14:02:55Z</time>
      </trkpt>
      <trkpt lat="43.4611" lon="6.39283">
        <ele>196.699997</ele>
        <time>2012-09-09T14:03:04Z</time>
      </trkpt>
      <trkpt lat="43.46118" lon="6.39281">
        <ele>196.399994</ele>
        <time>2012-09-09T14:03:12Z</time>
      </trkpt>
      <trkpt lat="43.46125" lon="6.39279">
        <ele>196.899994</ele>
        <time>2012-09-09T14:03:19Z</time>
      </trkpt>
      <trkpt lat="43.46133" lon="6.39277">
        <ele>196.399994</ele>
        <time>2012-09-09T14:03:26Z</time>
      </trkpt>
      <trkpt lat="43.46141" lon="6.39276">
        <ele>196.5</ele>
        <time>2012-09-09T14:03:33Z</time>
      </trkpt>
      <trkpt lat="43.46149" lon="6.39274">
        <ele>196.100006</ele>
        <time>2012-09-09T14:03:41Z</time>
      </trkpt>
      <trkpt lat="43.4615" lon="6.39274">
        <ele>195.899994</ele>
        <time>2012-09-09T14:03:42Z</time>
      </trkpt>
      <trkpt lat="43.46166" lon="6.39269">
        <ele>195.399994</ele>
        <time>2012-09-09T14:03:57Z</time>
      </trkpt>
      <trkpt lat="43.46174" lon="6.39269">
        <ele>194.699997</ele>
        <time>2012-09-09T14:04:06Z</time>
      </trkpt>
      <trkpt lat="43.46182" lon="6.39267">
        <ele>194.699997</ele>
        <time>2012-09-09T14:04:13Z</time>
      </trkpt>
      <trkpt lat="43.4619" lon="6.39264">
        <ele>194.800003</ele>
        <time>2012-09-09T14:04:19Z</time>
      </trkpt>
      <trkpt lat="43.46194" lon="6.39254">
        <ele>194.600006</ele>
        <time>2012-09-09T14:04:27Z</time>
      </trkpt>
      <trkpt lat="43.46198" lon="6.39243">
        <ele>194.800003</ele>
        <time>2012-09-09T14:04:36Z</time>
      </trkpt>
      <trkpt lat="43.46197" lon="6.39231">
        <ele>194.600006</ele>
        <time>2012-09-09T14:04:45Z</time>
      </trkpt>
      <trkpt lat="43.46197" lon="6.39228">
        <ele>194.5</ele>
        <time>2012-09-09T14:04:46Z</time>
      </trkpt>
      <trkpt lat="43.46188" lon="6.39213">
        <ele>194.300003</ele>
        <time>2012-09-09T14:04:59Z</time>
      </trkpt>
      <trkpt lat="43.46185" lon="6.39202">
        <ele>193.899994</ele>
        <time>2012-09-09T14:05:08Z</time>
      </trkpt>
      <trkpt lat="43.46181" lon="6.39193">
        <ele>193.899994</ele>
        <time>2012-09-09T14:05:15Z</time>
      </trkpt>
      <trkpt lat="43.46176" lon="6.39183">
        <ele>194.300003</ele>
        <time>2012-09-09T14:05:22Z</time>
      </trkpt>
      <trkpt lat="43.46173" lon="6.39174">
        <ele>194.300003</ele>
        <time>2012-09-09T14:05:29Z</time>
      </trkpt>
      <trkpt lat="43.46172" lon="6.39164">
        <ele>193.600006</ele>
        <time>2012-09-09T14:05:36Z</time>
      </trkpt>
      <trkpt lat="43.46168" lon="6.39154">
        <ele>193.399994</ele>
        <time>2012-09-09T14:05:43Z</time>
      </trkpt>
      <trkpt lat="43.46163" lon="6.39144">
        <ele>193.800003</ele>
        <time>2012-09-09T14:05:50Z</time>
      </trkpt>
      <trkpt lat="43.46162" lon="6.39142">
        <ele>193.899994</ele>
        <time>2012-09-09T14:05:51Z</time>
      </trkpt>
      <trkpt lat="43.46155" lon="6.39125">
        <ele>194.5</ele>
        <time>2012-09-09T14:06:04Z</time>
      </trkpt>
      <trkpt lat="43.46153" lon="6.39114">
        <ele>194.399994</ele>
        <time>2012-09-09T14:06:13Z</time>
      </trkpt>
      <trkpt lat="43.46151" lon="6.39103">
        <ele>194.699997</ele>
        <time>2012-09-09T14:06:22Z</time>
      </trkpt>
      <trkpt lat="43.46147" lon="6.39092">
        <ele>194.899994</ele>
        <time>2012-09-09T14:06:30Z</time>
      </trkpt>
      <trkpt lat="43.46143" lon="6.39082">
        <ele>194.399994</ele>
        <time>2012-09-09T14:06:38Z</time>
      </trkpt>
      <trkpt lat="43.46141" lon="6.39071">
        <ele>194.899994</ele>
        <time>2012-09-09T14:06:46Z</time>
      </trkpt>
      <trkpt lat="43.46138" lon="6.3906">
        <ele>194.5</ele>
        <time>2012-09-09T14:06:56Z</time>
      </trkpt>
      <trkpt lat="43.46139" lon="6.39059">
        <ele>194.5</ele>
        <time>2012-09-09T14:06:57Z</time>
      </trkpt>
      <trkpt lat="43.46131" lon="6.3904">
        <ele>195</ele>
        <time>2012-09-09T14:07:11Z</time>
      </trkpt>
      <trkpt lat="43.46126" lon="6.3903">
        <ele>195.399994</ele>
        <time>2012-09-09T14:07:18Z</time>
      </trkpt>
      <trkpt lat="43.46122" lon="6.39021">
        <ele>195.699997</ele>
        <time>2012-09-09T14:07:26Z</time>
      </trkpt>
      <trkpt lat="43.46118" lon="6.3901">
        <ele>195.600006</ele>
        <time>2012-09-09T14:07:33Z</time>
      </trkpt>
      <trkpt lat="43.46113" lon="6.39">
        <ele>196.300003</ele>
        <time>2012-09-09T14:07:41Z</time>
      </trkpt>
      <trkpt lat="43.46111" lon="6.38988">
        <ele>196.199997</ele>
        <time>2012-09-09T14:07:50Z</time>
      </trkpt>
      <trkpt lat="43.46108" lon="6.38978">
        <ele>196.699997</ele>
        <time>2012-09-09T14:07:58Z</time>
      </trkpt>
      <trkpt lat="43.46108" lon="6.38976">
        <ele>196.699997</ele>
        <time>2012-09-09T14:07:59Z</time>
      </trkpt>
      <trkpt lat="43.46101" lon="6.38956">
        <ele>197.199997</ele>
        <time>2012-09-09T14:08:21Z</time>
      </trkpt>
      <trkpt lat="43.46099" lon="6.38944">
        <ele>197.800003</ele>
        <time>2012-09-09T14:08:33Z</time>
      </trkpt>
      <trkpt lat="43.46106" lon="6.38937">
        <ele>198.199997</ele>
        <time>2012-09-09T14:08:48Z</time>
      </trkpt>
      <trkpt lat="43.46114" lon="6.38933">
        <ele>197.899994</ele>
        <time>2012-09-09T14:08:56Z</time>
      </trkpt>
      <trkpt lat="43.46121" lon="6.38926">
        <ele>198.600006</ele>
        <time>2012-09-09T14:09:06Z</time>
      </trkpt>
      <trkpt lat="43.46121" lon="6.38925">
        <ele>198.699997</ele>
        <time>2012-09-09T14:09:07Z</time>
      </trkpt>
      <trkpt lat="43.4612" lon="6.38902">
        <ele>200.600006</ele>
        <time>2012-09-09T14:09:29Z</time>
      </trkpt>
      <trkpt lat="43.46115" lon="6.38893">
        <ele>201.5</ele>
        <time>2012-09-09T14:09:41Z</time>
      </trkpt>
      <trkpt lat="43.46109" lon="6.38885">
        <ele>201.199997</ele>
        <time>2012-09-09T14:09:49Z</time>
      </trkpt>
      <trkpt lat="43.46105" lon="6.38875">
        <ele>201.899994</ele>
        <time>2012-09-09T14:09:59Z</time>
      </trkpt>
      <trkpt lat="43.46099" lon="6.38869">
        <ele>202</ele>
        <time>2012-09-09T14:10:06Z</time>
      </trkpt>
      <trkpt lat="43.46093" lon="6.38861">
        <ele>202</ele>
        <time>2012-09-09T14:10:15Z</time>
      </trkpt>
      <trkpt lat="43.46092" lon="6.38859">
        <ele>202</ele>
        <time>2012-09-09T14:10:16Z</time>
      </trkpt>
      <trkpt lat="43.46078" lon="6.38847">
        <ele>202.5</ele>
        <time>2012-09-09T14:10:29Z</time>
      </trkpt>
      <trkpt lat="43.46073" lon="6.38837">
        <ele>202.100006</ele>
        <time>2012-09-09T14:10:38Z</time>
      </trkpt>
      <trkpt lat="43.46067" lon="6.3883">
        <ele>202</ele>
        <time>2012-09-09T14:10:45Z</time>
      </trkpt>
      <trkpt lat="43.46058" lon="6.3883">
        <ele>201.300003</ele>
        <time>2012-09-09T14:11:16Z</time>
      </trkpt>
      <trkpt lat="43.46057" lon="6.38831">
        <ele>201.399994</ele>
        <time>2012-09-09T14:11:17Z</time>
      </trkpt>
      <trkpt lat="43.46053" lon="6.38818">
        <ele>199.399994</ele>
        <time>2012-09-09T14:13:30Z</time>
      </trkpt>
    </trkseg>
  </trk>
</gpx>